[[{"header":{"parameterUnit":"m.s-1","parameterCategory":1,"la1":30.6,"la2":28.766,"lo1":-90.7593,"lo2":-88.6598,"dy":0.0162,"dx":0.0183,"nx":116,"ny":114,"refTime":"2023-09-26T00:00:00:Z","depth":0,"parameterNumber":2,"parameterNumberName":"U-component_of_WINDS"},"data":[0.0,0.0,0.0,0.0,0.0,0.0,0.0,0.0,0.0,0.0,0.0,0.0,0.0,0.0,0.0,0.0,0.0,0.0,0.0,0.0,0.0,0.0,0.0,0.0,0.0,0.0,0.0,0.0,0.0,0.0,0.0,0.0,0.0,0.0,0.0,0.0,0.0,0.0,0.0,0.0,0.0,0.0,0.0,0.0,0.0,0.0,0.0,0.0,0.0,0.0,0.0,0.0,0.0,0.0,0.0,0.0,0.0,0.0,0.0,0.0,0.0,0.0,0.0,0.0,0.0,0.0,0.0,0.0,0.0,0.0,0.0,0.0,0.0,0.0,0.0,0.0,0.0,0.0,0.0,0.0,0.0,0.0,0.0,0.0,0.0,0.0,0.0,0.0,0.0,0.0,0.0,0.0,0.0,0.0,0.0,0.0,0.0,0.0,0.0,0.0,0.0,0.0,0.0,0.0,0.0,0.0,0.0,0.0,0.0,0.0,0.0,0.0,0.0,0.0,0.0,0.0,0.0,0.0,0.0,0.0,0.0,0.0,0.0,0.0,0.0,0.0,0.0,0.0,0.0,0.0,0.0,0.0,0.0,0.0,0.0,0.0,0.0,0.0,0.0,0.0,0.0,0.0,0.0,0.0,0.0,0.0,0.0,0.0,0.0,0.0,0.0,0.0,0.0,0.0,0.0,0.0,0.0,0.0,0.0,0.0,0.0,0.0,0.0,0.0,0.0,0.0,0.0,0.0,0.0,0.0,0.0,0.0,0.0,0.0,0.0,0.0,0.0,0.0,0.0,0.0,0.0,0.0,0.0,0.0,0.0,0.0,0.0,0.0,0.0,0.0,0.0,0.0,0.0,0.0,0.0,0.0,0.0,0.0,0.0,0.0,0.0,0.0,0.0,0.0,0.0,0.0,0.0,0.0,0.0,0.0,0.0,0.0,0.0,0.0,0.0,0.0,0.0,0.0,0.0,0.0,0.0,0.0,0.0,0.0,0.0,0.0,0.0,0.0,0.0,0.0,0.0,0.0,0.0,0.0,0.0,0.0,0.0,0.0,0.0,0.0,0.0,0.0,0.0,0.0,0.0,0.0,0.0,0.0,0.0,0.0,0.0,0.0,0.0,0.0,0.0,0.0,0.0,0.0,0.0,0.0,0.0,0.0,0.0,0.0,0.0,0.0,0.0,0.0,0.0,0.0,0.0,0.0,0.0,0.0,0.0,0.0,0.0,0.0,0.0,0.0,0.0,0.0,0.0,0.0,0.0,0.0,0.0,0.0,0.0,0.0,0.0,0.0,0.0,0.0,0.0,0.0,0.0,0.0,0.0,0.0,0.0,0.0,0.0,0.0,0.0,0.0,0.0,0.0,0.0,0.0,0.0,0.0,0.0,0.0,0.0,0.0,0.0,0.0,0.0,0.0,0.0,0.0,0.0,0.0,0.0,0.0,0.0,0.0,0.0,0.0,0.0,0.0,0.0,0.0,0.0,0.0,0.0,0.0,0.0,0.0,0.0,0.0,0.0,0.0,0.0,0.0,0.0,0.0,0.0,0.0,0.0,0.0,0.0,0.0,0.0,0.0,0.0,0.0,0.0,0.0,0.0,0.0,0.0,0.0,0.0,0.0,0.0,0.0,0.0,0.0,0.0,0.0,0.0,0.0,0.0,0.0,0.0,0.0,0.0,0.0,0.0,0.0,0.0,0.0,0.0,0.0,0.0,0.0,0.0,0.0,0.0,0.0,0.0,0.0,0.0,0.0,0.0,0.0,0.0,0.0,0.0,0.0,0.0,0.0,0.0,0.0,0.0,0.0,0.0,0.0,0.0,0.0,0.0,0.0,0.0,0.0,0.0,0.0,0.0,0.0,0.0,0.0,0.0,0.0,0.0,0.0,0.0,0.0,0.0,0.0,0.0,0.0,0.0,0.0,0.0,0.0,0.0,0.0,0.0,0.0,0.0,0.0,0.0,0.0,0.0,0.0,0.0,0.0,0.0,0.0,0.0,0.0,0.0,0.0,0.0,0.0,0.0,0.0,0.0,0.0,0.0,0.0,0.0,0.0,0.0,0.0,0.0,0.0,0.0,0.0,0.0,0.0,0.0,0.0,0.0,0.0,0.0,0.0,0.0,0.0,0.0,0.0,0.0,0.0,0.0,0.0,0.0,0.0,0.0,0.0,0.0,0.0,0.0,0.0,0.0,0.0,0.0,0.0,0.0,0.0,0.0,0.0,0.0,0.0,0.0,0.0,0.0,0.0,0.0,0.0,0.0,0.0,0.0,0.0,0.0,0.0,0.0,0.0,0.0,0.0,0.0,0.0,0.0,0.0,0.0,0.0,0.0,0.0,0.0,0.0,0.0,0.0,0.0,0.0,0.0,0.0,0.0,0.0,0.0,0.0,0.0,0.0,0.0,0.0,0.0,0.0,0.0,0.0,0.0,0.0,0.0,0.0,0.0,0.0,0.0,0.0,0.0,0.0,0.0,0.0,0.0,0.0,0.0,0.0,0.0,0.0,0.0,0.0,0.0,0.0,0.0,0.0,0.0,0.0,0.0,0.0,0.0,0.0,0.0,0.0,0.0,0.0,0.0,0.0,0.0,0.0,0.0,0.0,0.0,0.0,0.0,0.0,0.0,0.0,0.0,0.0,0.0,0.0,0.0,0.0,0.0,0.0,0.0,0.0,0.0,0.0,0.0,0.0,0.0,0.0,0.0,0.0,0.0,0.0,0.0,0.0,0.0,0.0,0.0,0.0,0.0,0.0,0.0,0.0,0.0,0.0,0.0,0.0,0.0,0.0,0.0,0.0,0.0,0.0,0.0,0.0,0.0,0.0,0.0,0.0,0.0,0.0,0.0,0.0,0.0,0.0,0.0,0.0,0.0,0.0,0.0,0.0,0.0,0.0,0.0,0.0,0.0,0.0,0.0,0.0,0.0,0.0,0.0,0.0,0.0,0.0,0.0,0.0,0.0,0.0,0.0,0.0,0.0,0.0,0.0,0.0,0.0,0.0,0.0,0.0,0.0,0.0,0.0,0.0,0.0,0.0,0.0,0.0,0.0,0.0,0.0,0.0,0.0,0.0,0.0,0.0,0.0,0.0,0.0,0.0,0.0,0.0,0.0,0.0,0.0,0.0,0.0,0.0,0.0,0.0,0.0,0.0,0.0,0.0,0.0,0.0,0.0,0.0,0.0,0.0,0.0,0.0,0.0,0.0,0.0,0.0,0.0,0.0,0.0,0.0,0.0,0.0,0.0,0.0,0.0,0.0,0.0,0.0,0.0,0.0,0.0,0.0,0.0,0.0,0.0,0.0,0.0,0.0,0.0,0.0,0.0,0.0,0.0,0.0,0.0,0.0,0.0,0.0,0.0,0.0,0.0,0.0,0.0,0.0,0.0,0.0,0.0,0.0,0.0,0.0,0.0,0.0,0.0,0.0,0.0,0.0,0.0,0.0,0.0,0.0,0.0,0.0,0.0,0.0,0.0,0.0,0.0,0.0,0.0,0.0,0.0,0.0,0.0,0.0,0.0,0.0,0.0,0.0,0.0,0.0,0.0,0.0,0.0,0.0,0.0,0.0,0.0,0.0,0.0,0.0,0.0,0.0,0.0,0.0,0.0,0.0,0.0,0.0,0.0,0.0,0.0,0.0,0.0,0.0,0.0,0.0,0.0,0.0,0.0,0.0,0.0,0.0,0.0,0.0,0.0,0.0,0.0,0.0,0.0,0.0,0.0,0.0,0.0,0.0,0.0,0.0,0.0,0.0,0.0,0.0,0.0,0.0,0.0,0.0,0.0,0.0,0.0,0.0,0.0,0.0,0.0,0.0,0.0,0.0,0.0,0.0,0.0,0.0,0.0,0.0,0.0,0.0,0.0,0.0,0.0,0.0,0.0,0.0,0.0,0.0,0.0,0.0,0.0,0.0,0.0,0.0,0.0,0.0,0.0,0.0,0.0,0.0,0.0,0.0,0.0,0.0,0.0,0.0,0.0,0.0,0.0,0.0,0.0,0.0,0.0,0.0,0.0,0.0,0.0,0.0,0.0,0.0,0.0,0.0,0.0,0.0,0.0,0.0,0.0,0.0,0.0,0.0,0.0,0.0,0.0,0.0,0.0,0.0,0.0,0.0,0.0,0.0,0.0,0.0,0.0,0.0,0.0,0.0,0.0,0.0,0.0,0.0,0.0,0.0,0.0,0.0,0.0,0.0,0.0,0.0,0.0,0.0,0.0,0.0,0.0,0.0,0.0,0.0,0.0,0.0,0.0,0.0,0.0,0.0,0.0,0.0,0.0,0.0,0.0,0.0,0.0,0.0,0.0,0.0,0.0,0.0,0.0,0.0,0.0,0.0,0.0,0.0,0.0,0.0,0.0,0.0,0.0,0.0,0.0,0.0,0.0,0.0,0.0,0.0,0.0,0.0,0.0,0.0,0.0,0.0,0.0,0.0,0.0,0.0,0.0,0.0,0.0,0.0,0.0,0.0,0.0,0.0,0.0,0.0,0.0,0.0,0.0,0.0,0.0,0.0,0.0,0.0,0.0,0.0,0.0,0.0,0.0,0.0,0.0,0.0,0.0,0.0,0.0,0.0,0.0,0.0,0.0,0.0,0.0,0.0,0.0,0.0,0.0,0.0,0.0,0.0,0.0,0.0,0.0,0.0,0.0,0.0,0.0,0.0,0.0,0.0,0.0,0.0,0.0,0.0,0.0,0.0,0.0,0.0,0.0,0.0,0.0,0.0,0.0,0.0,0.0,0.0,0.0,0.0,0.0,0.0,0.0,0.0,0.0,0.0,0.0,0.0,0.0,0.0,0.0,0.0,0.0,0.0,0.0,0.0,0.0,0.0,0.0,0.0,0.0,0.0,0.0,0.0,0.0,0.0,0.0,0.0,0.0,0.0,0.0,0.0,0.0,0.0,0.0,0.0,0.0,0.0,0.0,0.0,0.0,0.0,0.0,0.0,0.0,0.0,0.0,0.0,0.0,0.0,0.0,0.0,0.0,0.0,0.0,0.0,0.0,0.0,0.0,0.0,0.0,0.0,0.0,0.0,0.0,0.0,0.0,0.0,0.0,0.0,0.0,0.0,0.0,0.0,0.0,0.0,0.0,0.0,0.0,0.0,0.0,0.0,0.0,0.0,0.0,0.0,0.0,0.0,0.0,0.0,0.0,0.0,0.0,0.0,0.0,0.0,0.0,0.0,0.0,0.0,0.0,0.0,0.0,0.0,0.0,0.0,0.0,0.0,0.0,0.0,0.0,0.0,0.0,0.0,0.0,0.0,0.0,0.0,0.0,0.0,0.0,0.0,0.0,0.0,0.0,0.0,0.0,0.0,0.0,0.0,0.0,0.0,0.0,0.0,0.0,0.0,0.0,0.0,0.0,0.0,0.0,0.0,0.0,0.0,0.0,0.0,0.0,0.0,0.0,0.0,0.0,0.0,0.0,0.0,0.0,0.0,0.0,0.0,0.0,0.0,0.0,0.0,0.0,0.0,0.0,0.0,0.0,0.0,0.0,0.0,0.0,0.0,0.0,0.0,0.0,0.0,0.0,0.0,0.0,0.0,0.0,0.0,0.0,0.0,0.0,0.0,0.0,0.0,0.0,0.0,0.0,0.0,0.0,0.0,0.0,0.0,0.0,0.0,0.0,0.0,0.0,0.0,0.0,0.0,0.0,0.0,0.0,0.0,0.0,0.0,0.0,0.0,0.0,0.0,0.0,0.0,0.0,0.0,0.0,0.0,0.0,0.0,0.0,0.0,0.0,0.0,0.0,0.0,0.0,0.0,0.0,0.0,0.0,0.0,0.0,0.0,0.0,0.0,0.0,0.0,0.0,0.0,0.0,0.0,0.0,0.0,0.0,0.0,0.0,0.0,0.0,0.0,0.0,0.0,0.0,0.0,0.0,0.0,0.0,0.0,0.0,0.0,0.0,0.0,0.0,0.0,0.0,0.0,0.0,0.0,0.0,0.0,0.0,0.0,0.0,0.0,0.0,0.0,0.0,0.0,0.0,0.0,0.0,0.0,0.0,0.0,0.0,0.0,0.0,0.0,0.0,0.0,0.0,0.0,0.0,0.0,0.0,0.0,0.0,0.0,0.0,0.0,0.0,0.0,0.0,0.0,1.7409,1.665,0.0,0.0,0.0,0.0,0.0,0.0,0.0,0.0,0.0,0.0,0.0,0.0,0.0,0.0,0.0,0.0,0.0,0.0,0.0,0.0,0.0,0.0,0.0,0.0,0.0,0.0,0.0,0.0,0.0,0.0,0.0,0.0,0.0,0.0,0.0,0.0,0.0,0.0,1.8037,1.8378,1.8675,1.9473,2.0743,2.2368,0.0,0.0,0.0,0.0,0.0,0.0,0.0,0.0,0.0,0.0,0.0,0.0,0.0,0.0,0.0,0.0,0.0,0.0,0.0,0.0,0.0,0.0,0.0,0.0,0.0,0.0,0.0,0.0,0.0,0.0,0.0,0.0,0.0,0.0,0.0,0.0,0.0,0.0,0.0,0.0,0.0,0.0,0.0,0.0,0.0,0.0,0.0,0.0,0.0,0.0,0.0,0.0,0.0,0.0,0.0,0.0,0.0,0.0,0.0,0.0,0.0,0.0,0.0,0.0,0.0,0.0,0.0,0.0,0.0,0.0,1.8809,1.7488,0.0,0.0,0.0,0.0,0.0,0.0,0.0,0.0,0.0,0.0,0.0,0.0,0.0,0.0,0.0,0.0,0.0,0.0,0.0,0.0,0.0,0.0,0.0,0.0,1.4794,1.4727,1.4656,1.4581,0.0,0.0,0.0,0.0,0.0,0.0,0.0,0.0,0.0,1.7737,1.8284,1.8577,1.8575,1.9177,2.0341,2.189,2.1984,0.0,0.0,0.0,0.0,0.0,0.0,0.0,0.0,0.0,0.0,0.0,0.0,0.0,0.0,0.0,0.0,0.0,0.0,0.0,0.0,0.0,0.0,0.0,0.0,0.0,0.0,0.0,0.0,0.0,0.0,0.0,0.0,0.0,0.0,0.0,0.0,0.0,0.0,0.0,0.0,0.0,0.0,0.0,0.0,0.0,0.0,0.0,0.0,0.0,0.0,0.0,0.0,0.0,0.0,0.0,0.0,0.0,0.0,0.0,0.0,0.0,0.0,0.0,1.9968,2.0783,2.2344,2.1751,2.149,2.1464,2.0698,1.9285,1.7455,1.7205,0.0,0.0,0.0,0.0,0.0,0.0,0.0,0.0,0.0,0.0,0.0,0.0,0.0,0.0,0.0,0.0,0.0,0.0,0.0,0.0,0.0,1.4977,1.4856,1.4794,1.4666,1.4603,0.0,0.0,0.0,0.0,0.0,0.0,0.0,1.7521,1.7789,1.8288,1.809,1.8256,1.8771,1.8866,1.9681,2.1073,2.1481,2.2013,2.2605,0.0,0.0,0.0,0.0,0.0,0.0,0.0,0.0,0.0,0.0,0.0,0.0,0.0,0.0,0.0,0.0,0.0,0.0,0.0,0.0,0.0,0.0,0.0,0.0,0.0,0.0,0.0,0.0,0.0,0.0,0.0,0.0,0.0,0.0,0.0,0.0,0.0,0.0,0.0,0.0,0.0,1.685,1.7157,0.0,0.0,0.0,0.0,0.0,0.0,0.0,0.0,0.0,0.0,0.0,0.0,0.0,2.0784,2.1628,2.1293,2.1055,2.1028,2.2682,2.3322,2.2911,2.2765,2.2765,2.2754,2.2634,0.0,2.133,1.9964,0.0,0.0,0.0,0.0,0.0,0.0,0.0,0.0,0.0,0.0,0.0,0.0,0.0,0.0,0.0,0.0,0.0,0.0,0.0,0.0,0.0,1.5441,1.5581,1.5468,1.5811,1.5794,1.5305,1.5637,0.0,0.0,0.0,1.7041,1.7575,1.7823,1.8128,1.8455,1.8269,1.8493,1.9098,1.9124,1.9661,2.0615,2.0755,2.1312,2.213,2.1866,0.0,0.0,0.0,0.0,0.0,0.0,0.0,0.0,0.0,0.0,0.0,0.0,0.0,0.0,0.0,0.0,0.0,0.0,0.0,0.0,0.0,0.0,0.0,0.0,0.0,0.0,0.0,0.0,0.0,0.0,0.0,0.0,0.0,0.0,0.0,0.0,0.0,0.0,0.0,1.7578,1.7403,1.7709,1.7913,1.8122,0.0,0.0,0.0,0.0,0.0,0.0,0.0,0.0,0.0,2.183,2.1272,2.1533,2.2628,2.2374,2.2235,2.2257,2.37,2.4138,2.3826,2.3318,2.3074,2.3074,2.3573,2.3981,2.4107,2.2013,2.034,1.9058,0.0,0.0,0.0,0.0,1.8355,1.8681,0.0,0.0,0.0,0.0,0.0,0.0,0.0,0.0,0.0,0.0,0.0,0.0,1.5493,1.5926,1.6224,1.629,1.6773,1.6787,1.6109,1.6556,0.0,0.0,0.0,1.7699,1.7682,1.8087,1.8302,1.8306,1.8375,1.8724,1.9328,1.937,1.9771,2.0423,2.0493,2.0969,2.1678,2.1401,2.123,2.1038,0.0,0.0,0.0,0.0,0.0,0.0,0.0,0.0,0.0,0.0,0.0,0.0,0.0,0.0,0.0,0.0,0.0,0.0,0.0,0.0,0.0,0.0,0.0,0.0,0.0,0.0,0.0,0.0,0.0,0.0,0.0,0.0,0.0,0.0,0.0,0.0,0.0,1.8392,1.8548,1.897,1.923,1.9413,0.0,0.0,0.0,0.0,0.0,0.0,2.1781,2.1846,2.2156,2.2686,2.2511,2.2722,2.3414,2.3115,2.3037,2.3048,2.3784,2.41,2.411,2.3406,2.3135,2.3144,2.3841,2.47,2.5384,2.3467,2.2103,2.1163,2.0769,1.9309,1.7626,1.9836,2.0652,2.0966,0.0,0.0,0.0,0.0,0.0,0.0,0.0,0.0,0.0,0.0,0.0,1.5565,1.6266,1.6273,1.6432,1.7007,1.7009,1.6943,1.6757,1.6708,1.6992,1.7666,1.7591,1.7826,1.8434,1.835,1.8127,1.7749,1.8255,1.881,1.9389,1.9389,1.9779,2.053,2.1151,2.1397,2.1309,2.099,2.0745,2.0597,2.0392,0.0,0.0,0.0,0.0,0.0,0.0,0.0,0.0,0.0,0.0,0.0,0.0,0.0,0.0,0.0,0.0,0.0,0.0,0.0,0.0,0.0,0.0,0.0,0.0,0.0,0.0,0.0,0.0,0.0,0.0,0.0,0.0,0.0,0.0,0.0,0.0,0.0,0.0,2.1192,2.1317,0.0,0.0,0.0,0.0,2.1247,2.2843,2.358,2.3022,2.4291,2.4767,2.4112,2.5127,2.5239,2.4405,2.3527,2.3095,2.3095,2.3183,2.3135,2.3135,2.3135,2.3135,2.3135,2.3135,2.3657,2.4555,2.4234,2.4472,2.4852,2.3468,2.1606,1.9911,2.2146,2.2902,2.3288,0.0,0.0,0.0,0.0,0.0,0.0,0.0,0.0,1.5407,1.5399,1.5784,1.6141,1.6321,1.7557,1.8235,1.7842,1.8662,1.8502,1.6846,1.7641,1.783,1.701,1.7719,1.8243,1.843,1.8098,1.8162,1.8718,1.8873,1.924,1.9854,1.9953,2.0289,2.0896,2.1038,2.1253,2.148,2.1157,2.0936,2.0799,2.0122,1.9848,0.0,0.0,0.0,0.0,0.0,0.0,0.0,0.0,0.0,0.0,0.0,0.0,0.0,0.0,0.0,0.0,0.0,0.0,0.0,0.0,0.0,0.0,0.0,0.0,0.0,0.0,0.0,0.0,0.0,0.0,0.0,0.0,0.0,0.0,0.0,0.0,0.0,2.2247,2.2253,0.0,2.2749,2.1995,2.1561,2.1707,2.3651,2.5127,2.5725,2.5727,2.5327,2.4454,2.4787,2.4529,2.358,2.3309,2.3135,2.3135,2.3135,2.3135,2.3135,2.3135,2.3135,2.3135,2.3135,2.3309,2.3617,2.4147,2.5247,2.6399,2.5011,2.4316,2.418,2.4983,2.6189,2.7532,0.0,0.0,0.0,0.0,0.0,0.0,0.0,0.0,1.5063,1.5339,1.6009,1.6522,1.6658,1.8181,1.9029,1.8581,1.9159,1.8828,1.7124,1.7961,1.8001,1.6846,1.7729,1.8283,1.829,1.8067,1.8374,1.9239,1.9336,1.9691,2.0309,2.036,2.0652,2.1189,2.1216,2.152,2.1921,2.1588,2.1277,2.0976,2.033,2.0114,2.0108,0.0,0.0,0.0,0.0,0.0,0.0,0.0,0.0,0.0,0.0,0.0,0.0,0.0,0.0,0.0,0.0,0.0,0.0,0.0,0.0,0.0,0.0,0.0,0.0,0.0,0.0,0.0,0.0,0.0,0.0,0.0,0.0,0.0,0.0,2.1893,2.2518,2.3548,2.3426,2.3513,2.3898,2.3403,2.2982,2.2982,2.4864,2.617,2.6741,2.5895,2.4967,2.41,2.4013,2.3754,2.3144,2.3135,2.3135,2.3135,2.3135,2.3135,2.3135,2.3135,2.3135,2.3135,2.3135,2.3135,2.3135,2.3754,2.4946,2.6262,2.6023,2.6468,2.7137,2.6834,2.7675,2.8907,0.0,0.0,0.0,0.0,0.0,0.0,0.0,1.4061,1.4357,1.516,1.5898,1.6622,1.7331,1.8012,1.8623,1.9115,1.8403,1.7824,1.7555,1.7576,1.7542,1.7435,1.7696,1.7933,1.8123,1.8403,1.8734,1.9116,1.9597,2.0137,2.0669,2.057,2.0809,2.1351,2.1742,2.2191,2.2615,2.2273,2.1778,2.1189,2.1077,2.1021,2.0949,0.0,0.0,0.0,0.0,0.0,0.0,0.0,0.0,0.0,0.0,0.0,0.0,0.0,0.0,0.0,0.0,0.0,0.0,0.0,0.0,0.0,0.0,0.0,0.0,0.0,0.0,0.0,0.0,0.0,0.0,0.0,0.0,0.0,2.2591,2.3392,2.4309,2.5134,2.5064,2.4999,2.5194,2.5215,2.5218,2.5326,2.6488,2.6828,2.5994,2.4998,2.4013,2.3135,2.3135,2.3135,2.3135,2.3135,2.3135,2.3135,2.3135,2.3135,2.3135,2.3193,2.3223,2.3223,2.3223,2.3193,2.3135,2.3135,2.3657,2.4711,2.6467,2.7708,2.8351,2.7464,2.7149,2.7149,0.0,0.0,0.0,0.0,0.0,0.0,0.0,1.3182,1.345,1.4247,1.4968,1.5899,1.7245,1.8423,1.8919,1.8386,1.8576,1.7905,1.6056,1.6919,1.7647,1.7902,1.8166,1.8458,1.8736,1.8905,1.9267,1.9767,2.0219,2.049,2.0555,2.0912,2.1503,2.2235,2.2169,2.2479,2.3091,2.2903,2.2804,2.2777,2.1835,2.1541,2.1654,0.0,0.0,0.0,0.0,0.0,0.0,0.0,0.0,0.0,0.0,0.0,0.0,0.0,0.0,0.0,0.0,0.0,0.0,0.0,0.0,0.0,0.0,0.0,0.0,0.0,0.0,0.0,0.0,0.0,0.0,0.0,2.4763,2.5208,2.4013,2.4783,2.5683,2.6135,2.5735,2.5577,2.6063,2.6094,2.645,2.7178,2.7272,2.7151,2.6967,2.4713,2.3406,2.3144,2.3135,2.3135,2.3135,2.3135,2.3135,2.3135,2.3135,2.3135,2.3184,2.4453,2.5019,2.5019,2.5019,2.4307,2.3135,2.3135,2.3657,2.4625,2.5812,2.6396,2.655,2.6313,2.6229,2.6229,0.0,0.0,0.0,0.0,0.0,0.0,0.0,1.2309,1.268,1.3853,1.4607,1.551,1.6716,1.7783,1.8153,1.7552,1.7462,1.6833,1.5395,1.6319,1.7393,1.8456,1.8481,1.8755,1.942,1.9279,1.9596,2.0415,2.055,2.0837,2.1252,2.1664,2.2191,2.2753,2.2888,2.3245,2.3784,2.3763,2.3975,2.4262,2.3464,2.3085,2.2858,2.2065,2.1883,2.206,2.1338,2.1139,2.1168,2.119,0.0,0.0,0.0,0.0,0.0,0.0,0.0,0.0,0.0,0.0,0.0,0.0,0.0,0.0,0.0,0.0,0.0,0.0,0.0,0.0,0.0,0.0,0.0,0.0,2.7308,2.7257,2.5961,2.62,2.6634,2.6817,2.6193,2.5945,2.6413,2.6324,2.6628,2.758,2.7045,2.6592,2.6592,2.5056,2.3896,2.3164,2.2706,2.253,2.253,2.3224,2.3575,2.3575,2.3944,2.4228,2.4258,2.5273,2.5742,2.5742,2.5742,2.5166,2.417,2.3437,2.3406,2.4013,0.0,0.0,0.0,0.0,2.469,2.469,0.0,0.0,0.0,0.0,0.0,0.0,0.0,1.1496,1.2072,1.3661,1.4507,1.5259,1.6044,1.6567,1.6829,1.6694,1.5853,1.5347,1.5416,1.5867,1.7014,1.9036,1.875,1.9007,1.9984,1.9559,1.9856,2.0992,2.0729,2.1207,2.2392,2.2566,2.2852,2.3264,2.3797,2.4179,2.4516,2.4624,2.5034,2.5601,2.5486,2.5055,2.4313,2.3221,2.2963,2.3071,2.2082,2.1698,2.1664,2.1941,0.0,0.0,0.0,0.0,0.0,0.0,0.0,0.0,0.0,0.0,0.0,0.0,0.0,0.0,0.0,0.0,0.0,0.0,0.0,0.0,0.0,0.0,0.0,0.0,2.9246,2.8915,2.8046,2.7488,2.7205,2.7227,2.66,2.6256,2.6486,2.6095,2.6105,2.6989,2.6197,2.5742,2.5742,2.5742,0.0,0.0,0.0,2.1735,2.1644,2.3042,2.3845,2.4053,2.4941,2.544,2.5538,2.5538,2.5635,2.5742,2.5742,2.5742,2.5615,2.4072,2.332,2.3135,2.4013,2.4368,2.4282,2.3396,2.3135,2.3135,0.0,0.0,0.0,0.0,0.0,0.0,0.0,1.1131,1.1925,1.2907,1.367,1.467,1.612,1.6167,1.6079,1.6005,1.5676,1.5681,1.6168,1.6216,1.7165,1.9166,1.9345,1.9602,2.006,1.9978,2.0243,2.0828,2.1089,2.1777,2.2803,2.3012,2.3685,2.4655,2.4313,2.4537,2.5099,2.4976,2.5483,2.6261,2.6274,2.5855,2.5195,2.446,2.4307,2.4393,2.397,2.3689,2.3455,2.3445,2.2956,2.2322,2.2182,2.1594,0.0,0.0,0.0,0.0,0.0,0.0,0.0,0.0,0.0,0.0,0.0,0.0,0.0,0.0,0.0,0.0,0.0,0.0,0.0,2.9828,2.9928,2.9522,2.9363,2.8426,2.7661,2.7281,2.6755,2.635,2.623,2.5902,2.5836,2.6004,2.583,2.5742,2.5742,2.5742,2.5189,2.3985,2.2993,2.2008,2.1013,2.1391,2.203,2.2946,2.3147,0.0,2.4449,2.4449,2.4941,2.5742,2.5742,2.5742,2.5713,2.5371,2.4404,2.3135,2.3319,2.3406,2.3319,2.3135,2.3135,2.3135,0.0,0.0,0.0,0.0,0.0,0.0,0.0,1.1327,1.2045,1.3288,1.3742,1.4406,1.5568,1.5527,1.5367,1.5301,1.5122,1.5446,1.6489,1.6824,1.7895,1.9926,2.0204,2.0439,2.0726,2.0342,2.0518,2.1287,2.1536,2.2178,2.3224,2.3898,2.4434,2.4748,2.5169,2.5381,2.5639,2.6013,2.6433,2.6892,2.7168,2.7082,2.6718,2.6159,2.5843,2.5704,2.5376,2.4741,2.4113,2.4354,2.3956,2.3307,2.3302,2.281,2.2194,0.0,0.0,0.0,0.0,0.0,0.0,0.0,0.0,0.0,0.0,0.0,0.0,0.0,0.0,2.5893,2.6706,0.0,2.8488,3.0746,3.0387,2.9862,2.9897,2.8964,2.8063,2.7441,2.6764,2.6197,2.6004,2.583,2.5742,2.5742,2.5742,2.5742,2.5742,2.5742,2.5245,2.4251,2.2644,2.1224,2.0101,2.0101,2.0403,2.0917,2.153,2.2342,2.3447,2.3954,2.4745,2.5742,2.5742,2.5742,2.5742,2.5742,2.4707,2.3135,2.3135,2.3135,2.3135,2.3135,2.3135,2.3135,0.0,0.0,0.0,0.0,0.0,0.0,0.0,1.1738,1.2399,1.3898,1.4199,1.4492,1.5072,1.5018,1.4896,1.4804,1.4635,1.5166,1.6664,1.739,1.8682,2.071,2.099,2.1244,2.1488,2.0682,2.0778,2.1822,2.1909,2.2521,2.3706,2.4785,2.5073,2.4819,2.5868,2.6217,2.6051,2.6924,2.7344,2.7494,2.8047,2.8335,2.8373,2.7808,2.7251,2.6734,2.6378,2.5394,2.4392,2.4862,2.4571,2.4063,2.408,2.3836,2.337,2.2723,2.2269,0.0,0.0,0.0,0.0,0.0,0.0,0.0,0.0,2.8136,2.8041,2.7762,2.755,2.7607,2.8411,2.8961,2.9747,3.1253,3.0762,3.009,3.0112,2.9408,2.8547,2.7842,2.6798,2.61,2.5732,2.5742,2.5742,2.5742,2.5742,2.5742,2.5742,2.5742,2.5137,2.3954,2.1928,2.03,1.8959,1.8959,1.8959,1.8959,2.0094,2.1224,2.2342,2.3646,2.4646,2.544,2.5645,2.5742,2.5742,2.5742,2.4707,2.3047,2.2872,2.2696,2.2608,2.2784,2.2794,2.2794,0.0,0.0,0.0,0.0,0.0,0.0,0.0,0.0,1.3085,1.3977,1.4774,1.5251,1.529,1.5159,1.5005,1.483,1.4719,1.5325,1.6877,1.7642,1.8972,2.1046,2.1399,2.1636,2.184,2.1007,2.1011,2.1901,2.202,2.2859,2.4305,2.4966,2.5534,2.6012,2.6091,2.6235,2.6471,2.7017,2.7557,2.8059,2.8612,2.9139,2.9541,2.8963,2.8097,2.7188,2.6759,2.5794,2.4753,2.4722,2.4463,2.4163,2.3908,2.3746,2.349,2.3143,2.274,2.2504,2.2837,2.4139,2.5701,2.6646,2.7551,2.8427,0.0,2.8866,2.8662,2.9981,2.9424,2.9116,3.0446,3.051,3.0427,3.0908,3.0504,3.0193,3.0152,2.965,2.913,2.8535,2.737,2.638,2.5732,2.5742,2.5742,2.5742,2.5742,2.5742,2.5742,2.5742,2.4833,2.2846,2.153,1.9879,1.7793,1.7793,1.7793,1.7793,1.8952,1.999,2.1121,2.3247,2.4251,2.4449,2.5342,2.5742,2.5742,2.5742,2.4707,2.3057,2.2176,2.1374,2.0736,2.1553,2.182,2.182,0.0,0.0,0.0,0.0,0.0,0.0,0.0,0.0,0.0,1.4686,1.5174,1.5386,1.5353,1.5233,1.5105,1.499,1.538,1.6083,1.7168,1.8367,1.9785,2.1479,2.181,2.2035,2.2173,2.1395,2.1327,2.2141,2.2515,2.3281,2.4476,2.5369,2.5896,2.6087,2.6091,2.626,2.6584,2.7394,2.7896,2.816,2.8699,2.9076,2.9189,2.831,2.7352,2.6425,2.6266,2.5141,0.0,2.3723,2.3639,2.3631,2.3902,2.4025,2.3985,2.3616,2.3127,2.2909,2.374,2.5717,2.7696,2.8401,2.9645,3.0778,3.1047,3.0546,3.0227,3.1085,3.0355,2.9896,3.0835,3.0505,3.0044,3.0057,2.9948,2.9771,2.9547,2.8925,2.8724,2.9352,2.8033,2.6678,2.583,2.5742,2.5742,2.5742,2.5742,2.5742,2.5742,2.5742,2.5039,2.3546,2.2434,2.1113,1.9569,1.8945,1.8639,1.8639,1.968,2.0814,2.1937,2.3447,2.4548,2.5147,2.5538,2.5156,2.4228,2.4228,2.3799,2.3047,2.2087,2.0736,1.9463,1.9828,2.0011,2.0011,0.0,0.0,0.0,0.0,0.0,0.0,0.0,0.0,0.0,0.0,1.541,1.5391,1.5403,1.5296,1.5201,1.5159,1.5888,1.6678,1.7422,1.8941,2.0327,2.1529,2.2081,2.2345,2.2271,2.1707,2.1745,2.245,2.284,2.3463,2.4316,2.5437,2.586,2.5551,2.6013,2.6238,2.6289,2.7406,2.7871,2.7908,2.831,2.8473,2.8335,2.708,2.598,2.514,2.514,2.4042,2.258,2.2416,2.2517,2.28,2.3165,2.3585,2.3896,2.3606,2.3507,2.3785,2.5305,2.7288,2.9154,3.0272,3.1544,3.2617,3.2698,3.2145,3.1662,3.1942,3.109,3.041,3.0537,3.0198,2.9655,2.9242,2.9246,2.9247,2.9029,2.7955,2.7713,2.8655,2.7676,2.6592,2.5732,2.5742,2.5742,2.5742,2.5742,2.5742,2.5742,2.5742,2.5245,2.4251,2.3456,2.2544,2.1428,2.0609,2.0094,1.9791,2.0814,2.1835,2.2644,2.3746,2.4491,2.5019,2.5019,2.4307,2.3047,2.2784,2.2696,2.2608,2.1365,1.9911,1.8357,1.8079,1.8172,1.8365,0.0,0.0,0.0,0.0,0.0,0.0,0.0,0.0,0.0,0.0,0.0,0.0,0.0,1.5332,1.5303,1.5287,1.6036,1.683,1.7639,1.9203,2.0373,2.0998,2.2134,2.2531,2.2016,2.1915,2.2161,2.2769,2.2869,2.3197,2.3858,2.5099,2.5272,2.4527,2.579,2.61,2.5699,2.6829,2.7306,2.7306,2.7318,2.7331,2.7155,2.5523,2.4243,2.3381,2.3526,2.2816,2.1728,2.0921,2.1178,2.1758,2.1405,2.1972,2.2768,2.2806,2.3779,2.5379,2.7795,2.8853,2.9761,3.2026,3.2779,3.3233,3.4081,3.3406,3.2569,3.2754,3.1769,3.0711,2.98,2.9699,2.9536,2.8602,2.8568,2.868,2.8587,2.6991,2.5781,2.581,2.5762,2.5742,2.5742,2.5742,2.5742,2.5742,2.5742,2.5742,2.5742,2.5742,2.5245,2.4251,2.4152,2.3646,2.2544,2.2544,2.1937,2.0917,2.2038,2.2552,2.2644,2.3746,2.3861,2.3223,2.3223,2.3184,2.3047,2.2087,2.1741,2.1553,1.9646,1.8265,1.7232,1.6204,1.6487,1.7326,0.0,0.0,0.0,0.0,0.0,0.0,0.0,0.0,0.0,0.0,0.0,0.0,0.0,0.0,0.0,0.0,1.6639,1.7547,1.7799,1.9335,2.0526,2.1173,2.1371,2.1726,2.2249,2.1801,2.1915,2.2686,2.2613,2.2738,2.3096,2.3698,2.3744,2.3364,2.3884,2.4272,2.4582,2.5335,2.5649,2.5649,2.5649,2.5435,2.4921,2.3324,2.2388,2.1796,0.0,2.0466,2.0114,1.9943,2.0216,2.0695,2.0715,2.1649,2.2847,2.3656,2.5057,2.6663,2.8057,3.0113,3.1994,3.3004,3.3579,3.3953,3.454,3.3424,3.2253,3.2065,3.0721,2.9393,2.9052,2.7789,2.6731,2.6744,2.7071,2.7486,2.7696,2.659,2.5742,2.5742,2.4717,2.4014,2.4014,2.5059,2.5742,2.5742,2.5742,2.5742,2.5742,2.6816,2.671,2.5283,2.5245,2.5039,2.4646,2.4044,2.3447,2.3046,2.3447,2.4044,2.4637,2.5039,2.44,2.3057,2.2441,2.2176,2.2087,2.1195,2.0374,1.9646,1.835,1.7606,1.7138,1.6204,1.6015,1.6298,0.0,0.0,0.0,0.0,0.0,0.0,0.0,0.0,0.0,0.0,0.0,0.0,0.0,0.0,0.0,0.0,0.0,1.76,1.7916,1.9169,2.023,2.0919,2.0926,2.1146,2.1661,2.1331,2.1429,2.1999,2.1693,2.1631,2.1771,2.2236,2.2208,2.1826,2.2459,2.2903,2.3132,2.3631,2.3811,2.3725,2.3475,2.3185,2.2707,2.1344,2.0629,0.0,1.948,1.9144,1.9126,1.9287,1.9713,2.0255,2.0419,2.1743,2.351,2.4805,2.636,2.7965,2.9533,3.1455,3.3254,3.402,3.4332,3.4432,3.46,3.3327,3.2054,3.1402,3.0181,2.9009,2.812,2.6429,2.5145,2.4804,2.5603,2.6435,2.6945,2.64,2.5927,2.5742,2.4746,2.4072,2.4072,2.5078,2.5742,2.5742,2.5742,2.6006,2.6621,2.7695,2.7793,2.668,2.6055,2.5742,2.5742,2.5039,2.4745,2.4745,2.4745,2.5039,2.5742,2.5742,2.4785,2.3047,2.2087,2.1472,2.1105,1.9729,1.8812,1.8172,1.7145,1.6763,1.6676,1.6015,1.5832,1.5832,0.0,0.0,0.0,0.0,0.0,0.0,0.0,0.0,0.0,0.0,0.0,0.0,0.0,0.0,0.0,0.0,0.0,0.0,1.7946,1.8742,1.9535,2.0269,2.0785,2.0854,2.0428,2.058,2.0749,2.0894,2.0312,2.0035,2.0066,2.0804,2.0676,2.0003,2.1479,2.1837,2.1419,2.181,2.1882,2.1584,2.0955,2.0686,2.0625,1.9634,1.9154,1.9006,1.9,1.8913,1.8874,1.8979,1.9657,2.0484,2.0635,2.2344,2.4575,2.624,2.7655,2.9303,3.1985,3.2893,3.342,3.5141,3.5115,3.4572,3.4348,3.3243,3.1924,3.0525,3.0097,2.9267,2.6885,2.5771,2.4577,2.2945,2.4068,2.5495,2.6179,2.6446,2.6304,2.5732,2.5742,2.5771,2.5859,2.5869,2.5869,2.5869,2.5869,2.6582,2.8203,2.8291,2.8291,2.8291,2.6719,2.582,2.5742,2.5645,2.5635,2.5538,2.5538,2.5538,2.5635,2.5635,2.4691,2.296,2.1998,2.1015,2.0011,1.8064,1.7232,1.7138,1.6204,1.5832,1.5832,1.5832,1.5832,1.5825,0.0,0.0,0.0,0.0,0.0,0.0,0.0,0.0,0.0,0.0,0.0,0.0,0.0,0.0,0.0,0.0,0.0,0.0,1.7946,1.8749,1.9555,2.0335,2.0354,2.0499,2.0776,2.049,2.0481,2.083,2.033,1.994,1.9679,1.9909,1.9619,1.8964,1.953,1.967,1.9489,1.953,1.9588,1.9712,1.9473,1.9387,1.9335,1.8858,1.8785,1.8859,1.8897,1.9051,1.9265,1.9362,2.0226,2.153,2.2847,2.4101,2.5509,2.7485,2.9275,3.0923,3.2664,3.3842,3.4676,3.5143,3.4568,3.3732,3.3173,3.1407,2.9596,2.868,2.7394,2.6073,2.499,2.3538,2.2264,2.1312,2.2099,2.3093,2.387,2.511,2.583,2.5742,2.5742,2.624,2.7519,2.7646,2.7646,2.7646,2.7646,2.7832,2.8271,2.8291,2.8291,2.8291,2.7871,2.7021,2.5752,2.4951,2.4152,2.3347,2.3347,2.3845,2.4548,2.4548,2.3653,2.1998,2.0275,1.8996,1.7978,1.6669,1.6204,1.6204,1.592,1.5832,1.5832,1.5832,1.5832,1.5737,0.0,0.0,0.0,0.0,0.0,0.0,0.0,0.0,0.0,0.0,0.0,0.0,0.0,0.0,0.0,0.0,0.0,0.0,0.0,1.8175,1.9004,1.9836,2.0076,2.0282,2.0488,2.0163,2.0018,2.0156,1.9763,1.9398,1.907,1.9261,1.9056,1.8517,1.8826,1.8781,1.8469,1.8266,1.8124,0.0,0.0,1.8229,1.8271,1.8508,1.8752,1.899,1.9211,1.962,2.0169,2.0941,2.2073,2.3423,2.5048,2.649,2.7806,2.9232,3.092,3.2541,3.3727,3.4603,3.5127,3.4978,3.4132,3.3066,3.1999,3.0154,2.8551,2.8052,2.651,2.5201,2.5183,2.1992,1.9351,1.9456,2.0488,2.1738,2.2969,2.4639,2.6016,2.6768,2.6855,2.703,2.7454,2.7549,2.7549,2.7549,2.7979,2.8291,2.8291,2.8291,2.8291,2.8291,2.7559,2.6295,2.435,2.3238,2.2434,2.1835,2.1835,2.2131,2.2736,2.2736,2.227,2.1234,1.9082,1.78,1.7232,1.6204,1.5832,1.5832,1.5832,1.5832,1.5832,1.5832,1.554,1.4968,0.0,0.0,0.0,0.0,0.0,0.0,0.0,0.0,0.0,0.0,0.0,0.0,0.0,0.0,0.0,0.0,0.0,0.0,0.0,0.0,1.8164,1.9136,1.9791,2.0115,2.0031,1.9846,1.962,1.9393,1.9146,1.8898,1.8672,1.8928,1.8854,1.8478,1.8793,1.8594,1.801,1.77,1.7292,1.6896,1.7228,1.7446,1.7658,0.0,0.0,1.9391,1.9752,2.0379,2.1258,2.281,2.4128,2.5413,2.6963,2.8778,3.0358,3.0956,3.2402,3.3923,3.4663,3.4969,3.5058,3.4797,3.3724,3.2432,3.1225,2.9486,2.8108,2.7901,2.6116,2.4873,2.5784,2.0726,1.6736,1.7801,1.9639,2.1426,2.293,2.4639,2.6367,2.8086,2.8291,2.7862,2.6691,2.6482,2.6364,2.6364,2.7441,2.8184,2.8291,2.8291,2.8184,2.7959,2.6404,2.4538,2.2342,2.1224,2.0609,2.0506,2.0506,2.0506,2.0712,2.0712,2.0712,2.0538,1.8178,1.7138,1.7044,1.6204,1.5832,1.5832,1.5832,1.5737,1.5635,1.5635,1.4968,1.3913,0.0,0.0,0.0,0.0,0.0,0.0,0.0,0.0,0.0,0.0,1.5391,1.541,0.0,0.0,0.0,0.0,0.0,0.0,0.0,0.0,0.0,1.9052,1.9233,1.9606,2.0224,2.0109,1.9985,1.9869,1.9725,1.9586,1.949,1.937,1.9175,1.8879,1.8663,1.8281,1.7742,1.742,1.7252,1.7208,1.7182,1.7659,1.8441,1.8865,0.0,0.0,2.0292,2.0967,2.1853,2.2643,2.3908,2.5531,2.7651,2.9384,3.0784,3.1558,3.2914,3.417,3.4578,3.4916,3.5076,3.4625,3.3179,3.1788,3.1512,2.897,2.6612,2.6259,2.3465,2.1449,2.2696,1.9377,1.6736,1.7801,2.0644,2.2793,2.3096,2.4639,2.6367,2.8086,2.8291,2.7862,2.6691,2.5705,2.5154,2.5154,2.6245,2.7333,2.8291,2.8291,2.7646,2.623,2.5093,2.3447,2.1224,2.0101,1.9056,1.8206,1.8206,1.8632,1.9583,1.9583,1.9583,1.9406,1.712,1.6015,1.6015,1.5825,1.5832,1.5832,1.5832,1.5255,1.4586,1.4586,1.3913,1.2759,0.0,0.0,0.0,0.0,0.0,0.0,0.0,1.5391,1.5391,1.5391,1.5391,1.539,1.5406,1.5397,0.0,0.0,0.0,0.0,0.0,0.0,0.0,0.0,0.0,0.0,1.9043,1.9428,1.9609,1.9527,0.0,2.0042,2.0005,1.9888,1.9707,1.9514,1.9239,1.8843,1.8283,1.7938,1.7675,1.7525,1.7663,1.8015,0.0,0.0,0.0,0.0,0.0,2.1189,2.1668,2.2497,2.3595,2.497,2.7516,2.9497,3.0974,3.163,3.2784,3.3833,3.402,3.4491,3.4631,3.3932,3.2831,3.1657,3.0893,2.8258,2.5603,2.3899,2.2017,2.0541,2.0134,1.8695,1.7817,1.8461,2.0365,2.2109,2.3018,2.4248,2.5527,2.6807,2.7754,2.7862,2.6691,2.5485,2.4821,2.4821,2.5925,2.7126,2.8184,2.6921,2.5765,2.497,2.3338,2.1725,2.0101,1.8952,1.8115,1.7582,1.7582,1.7898,1.8429,1.8429,1.8115,1.741,1.5744,1.4682,1.4202,1.4202,1.4202,1.4202,1.4202,1.3619,1.2651,1.2063,1.0877,0.9201,0.0,0.0,0.0,0.0,0.0,0.0,0.0,1.5391,1.5391,1.5391,1.5391,1.539,1.5408,1.5401,1.5409,0.0,0.0,0.0,0.0,0.0,0.0,0.0,0.0,0.0,0.0,0.0,0.0,1.8847,1.9473,0.0,0.0,0.0,0.0,0.0,1.9488,1.9295,1.9075,1.8646,1.8266,0.0,0.0,1.8349,0.0,0.0,0.0,0.0,0.0,2.1341,2.1341,2.2142,2.2824,2.3756,2.6241,2.8631,3.0553,3.0978,3.1972,3.3067,3.3186,3.366,3.3823,3.3064,3.2245,3.1205,2.9985,2.7164,2.3949,2.1037,2.0349,1.9812,1.8557,1.8385,1.8642,1.9152,1.9778,2.0703,2.2344,2.3486,2.4541,2.5605,2.7246,2.7862,2.6691,2.5705,2.5154,2.5154,2.6245,2.7333,2.8291,2.5985,2.4418,2.3863,2.1725,2.0101,1.9279,1.822,1.7582,1.7582,1.7582,1.7477,1.7265,1.7265,1.6497,1.5192,1.4068,1.3238,1.2467,1.2175,1.2078,1.2078,1.1878,1.1086,1.0006,0.892,0.7329,0.5534,0.0,0.0,0.0,0.0,0.0,0.0,0.0,1.5391,1.5391,1.5391,1.5391,1.5391,1.5391,1.5406,1.5397,0.0,0.0,0.0,0.0,0.0,0.0,0.0,0.0,0.0,0.0,0.0,0.0,1.8008,1.808,0.0,0.0,0.0,0.0,0.0,0.0,1.8932,1.9775,1.9243,0.0,0.0,0.0,0.0,0.0,0.0,0.0,0.0,0.0,2.1585,2.1332,2.1152,2.1254,2.1666,2.2972,2.582,2.8727,2.9051,3.0214,3.1513,3.1991,3.2453,3.2499,3.1961,3.069,2.94,2.9328,2.5153,2.0494,1.7555,1.7251,1.7751,1.8718,1.8371,1.8278,1.9372,1.9085,1.9193,2.0634,2.2217,2.3877,2.5537,2.7246,2.7862,2.6691,2.6482,2.6473,2.6473,2.7549,2.8184,2.8291,2.7084,2.5261,2.2788,2.0609,1.9383,1.9279,1.822,1.7582,1.7582,1.7582,1.7054,1.6099,1.6099,1.4947,1.2986,1.1913,1.1389,1.1292,1.0314,0.9924,0.9821,0.8829,0.7832,0.6734,0.5634,0.4533,0.333,0.0,0.0,0.0,0.0,0.0,0.0,1.5391,1.5391,1.5391,1.5391,1.5391,1.5391,1.5391,1.541,1.5192,1.4654,0.0,0.0,0.0,0.0,0.0,0.0,0.0,0.0,0.0,0.0,1.7128,1.7113,1.7593,0.0,0.0,0.0,0.0,0.0,0.0,1.8865,2.0117,1.9649,0.0,0.0,0.0,0.0,0.0,0.0,0.0,0.0,0.0,0.0,2.0767,2.084,2.0694,2.0639,2.0993,2.2726,2.4912,2.6968,2.856,2.9808,3.0325,3.0844,3.102,3.0396,2.9061,2.779,2.7034,2.2936,1.8845,1.7339,1.7152,1.7468,1.8066,1.8096,1.825,1.8975,1.8908,1.9211,2.0357,2.1617,2.2832,2.4023,2.5703,2.6953,2.7561,2.7657,2.7657,2.7657,2.8077,2.7979,2.7333,2.6136,2.431,2.1869,1.9454,1.8325,1.8325,1.7793,1.7582,1.7582,1.6948,1.5998,1.4832,1.4169,1.3001,1.1494,1.0615,0.9517,0.8219,0.7126,0.6331,0.5732,0.5233,0.4431,0.3426,0.3025,0.222,0.1211,0.0,0.0,0.0,0.0,0.0,1.5391,1.5391,1.5391,1.5391,1.5391,1.5391,1.5391,1.5391,1.5391,1.5019,1.4058,1.3837,0.0,0.0,0.0,0.0,0.0,0.0,0.0,0.0,0.0,1.6203,1.6187,1.6748,1.7054,0.0,0.0,1.7715,1.768,0.0,0.0,0.0,0.0,0.0,0.0,0.0,0.0,0.0,0.0,0.0,0.0,0.0,0.0,0.0,0.0,0.0,1.9558,1.9669,2.0435,2.1751,2.4698,2.6528,2.7728,2.8253,2.8667,2.8838,2.8272,2.726,2.604,2.4779,2.1668,1.8746,1.7721,1.7297,1.7161,1.7154,1.752,1.7993,1.8449,1.8533,1.9008,2.0066,2.0878,2.1699,2.2764,2.4121,2.5644,2.7373,2.7998,2.8291,2.8291,2.8291,2.7755,2.6691,2.537,2.3678,2.1759,1.9398,1.7898,1.7582,1.7582,1.7582,1.7582,1.6418,1.5143,1.3645,1.2441,1.1236,1.0104,0.9116,0.763,0.5837,0.4734,0.353,0.2221,0.1917,0.1312,0.0707,0.101,0.0606,0.0,0.0,0.0,0.0,0.0,0.0,0.0,1.5391,1.5391,1.5391,1.5391,1.5391,1.5391,1.5391,1.5391,1.4941,1.3809,1.322,0.0,0.0,0.0,0.0,0.0,0.0,0.0,0.0,0.0,1.5279,1.5214,1.5214,1.5226,1.5229,1.524,1.5279,1.5332,0.0,0.0,0.0,0.0,0.0,0.0,0.0,0.0,0.0,0.0,0.0,0.0,0.0,0.0,0.0,0.0,0.0,0.0,0.0,1.9187,1.9793,2.2151,2.3911,2.5276,2.5903,2.6052,2.599,2.5667,2.5001,2.4007,2.2799,2.1753,2.037,1.8215,1.7119,1.6405,1.6169,1.6562,1.7094,1.7715,1.7711,1.8114,1.9441,1.9752,2.0518,2.2109,2.2812,2.3848,2.5596,2.7295,2.8291,2.8291,2.8291,2.7755,2.6691,2.506,2.3867,2.2974,2.0589,1.8743,1.7582,1.7582,1.7582,1.7582,1.6418,1.4702,1.2327,1.1236,1.0033,0.8793,0.7161,0.5834,0.4734,0.3632,0.1918,-0.0101,-0.1111,-0.1516,-0.1415,-0.0404,0.0,0.0,0.0,0.0,0.0,0.0,0.0,0.0,0.0,1.5391,1.5391,1.5391,1.5391,1.5391,1.5391,1.5391,1.5254,1.4883,1.3984,0.0,0.0,0.0,0.0,0.0,0.0,0.0,0.0,0.0,1.526,1.5204,1.5201,1.5207,1.5196,1.5241,1.5279,1.5298,1.5367,1.5351,0.0,0.0,0.0,0.0,0.0,0.0,0.0,0.0,0.0,0.0,0.0,0.0,0.0,0.0,0.0,0.0,0.0,0.0,0.0,1.9953,2.149,2.3072,2.331,2.4105,2.4647,2.3992,2.3856,2.3742,2.2933,2.1529,1.988,1.8179,1.7119,1.6479,1.6392,1.6428,1.6704,1.7279,1.749,1.7981,1.8994,1.9468,2.0264,2.1543,2.2549,2.3919,2.6078,2.6817,2.6791,2.6017,2.5641,2.5321,2.5024,2.5135,2.4063,2.1674,2.0113,1.8743,1.7582,1.7582,1.716,1.6418,1.5256,1.3527,1.1236,1.0033,0.8819,0.7683,0.6024,0.4734,0.3632,0.2524,0.0808,-0.1111,-0.1516,-0.1617,-0.1516,-0.0404,-0.0505,-0.1111,0.0,0.0,0.0,0.0,0.0,0.0,0.0,1.5391,1.5391,1.5391,1.5391,1.5391,1.5391,1.5391,1.5391,1.5391,1.4746,0.0,0.0,0.0,0.0,0.0,0.0,0.0,0.0,1.5339,1.5278,1.5204,1.5229,1.5229,1.5204,1.5284,1.5329,1.5336,1.5341,1.5349,0.0,0.0,0.0,0.0,0.0,0.0,2.0107,0.0,0.0,0.0,0.0,0.0,0.0,0.0,0.0,0.0,0.0,0.0,0.0,0.0,1.9718,2.0734,2.1343,2.2044,2.2402,2.1808,2.1834,2.1937,2.1833,2.1115,2.01,1.8549,1.7313,1.6522,1.6522,1.6308,1.6263,1.6758,1.6984,1.7419,1.8399,1.9144,1.9941,2.0967,2.2534,2.416,2.5784,2.5476,2.4674,2.3469,2.3074,2.3147,2.3546,2.4143,2.3637,2.1632,2.0506,1.9368,1.822,1.7793,1.7054,1.5891,1.4283,1.255,1.0692,0.904,0.7494,0.6226,0.483,0.3632,0.0,0.1414,0.0,-0.1617,-0.1617,-0.1617,-0.1516,-0.0808,-0.1313,-0.2222,0.0,0.0,0.0,0.0,0.0,0.0,0.0,1.5391,1.5391,1.5391,1.5391,1.5391,1.5391,1.5391,1.5391,1.5391,0.0,0.0,0.0,0.0,0.0,0.0,0.0,0.0,0.0,1.5349,1.5272,1.5207,1.5265,1.5265,1.5218,1.5334,1.539,1.54,1.5338,1.5439,0.0,0.0,0.0,0.0,0.0,0.0,0.0,0.0,0.0,0.0,0.0,0.0,0.0,0.0,0.0,0.0,0.0,0.0,0.0,0.0,0.0,0.0,0.0,1.9896,1.9533,1.935,1.8973,1.8856,1.9575,2.0284,0.0,1.9114,1.7564,1.6522,1.6522,1.6132,1.5879,1.6216,1.6351,1.6808,1.7762,1.876,1.9766,2.0643,2.2777,2.4186,2.4454,2.3255,2.1986,2.0599,2.0609,2.1113,2.2342,2.2443,2.2443,2.2342,2.1224,2.0197,1.9168,1.8003,1.6836,1.5672,1.3408,1.1673,1.0359,0.8109,0.6219,0.4634,0.3531,0.2524,0.1415,0.0404,-0.0606,-0.1516,-0.1516,-0.1516,-0.1617,-0.1718,-0.2424,-0.3531,0.0,0.0,0.0,0.0,0.0,0.0,0.0,0.0,0.0,0.0,1.5391,1.5391,1.5391,1.5391,1.5391,0.0,0.0,0.0,0.0,0.0,0.0,0.0,0.0,0.0,0.0,1.5377,1.5342,1.528,1.5288,1.5322,1.5342,1.5391,1.5409,1.5399,1.5326,1.6731,0.0,0.0,0.0,0.0,0.0,0.0,0.0,0.0,0.0,0.0,1.9922,1.9504,0.0,0.0,0.0,0.0,0.0,0.0,0.0,0.0,1.8085,1.8126,1.815,0.0,1.7306,1.7047,1.6733,1.657,0.0,1.7207,1.7493,1.7173,1.6785,1.6522,1.6522,1.6132,1.608,1.6924,1.746,1.7564,1.7101,1.8896,2.0742,2.2022,2.2815,2.2633,2.0816,1.8739,1.744,1.7067,1.7891,1.884,1.999,2.0814,2.0917,2.0094,1.8945,1.8213,1.8003,1.6842,1.5238,1.3197,1.1782,1.0025,0.7916,0.614,0.4712,0.3531,0.2424,0.1414,0.0404,0.0101,-0.0101,-0.0404,-0.0404,-0.0909,-0.1718,-0.2524,-0.4031,-0.5636,0.0,0.0,0.0,0.0,0.0,0.0,0.0,0.0,0.0,0.0,0.0,0.0,0.0,0.0,0.0,0.0,0.0,0.0,0.0,0.0,0.0,0.0,0.0,1.5409,1.5402,1.5394,1.5377,1.5349,1.5346,1.5353,1.539,1.5392,1.5377,1.5349,1.5245,1.7093,0.0,0.0,0.0,0.0,2.0312,0.0,0.0,0.0,0.0,0.0,2.0047,1.9617,0.0,1.855,1.8215,1.7864,0.0,0.0,0.0,0.0,1.807,1.8044,1.7906,1.7217,1.6538,1.6385,1.6245,1.6132,1.6132,1.6466,1.6808,1.6808,1.6808,1.6778,1.6522,1.6132,1.6115,1.7126,1.8027,1.8575,1.8518,1.9985,2.1249,2.1762,2.0605,1.9071,1.7204,1.5349,1.4493,1.5041,1.6205,1.7054,1.7687,1.7779,1.7345,1.6174,1.4995,1.49,1.5992,1.4917,1.3403,1.1568,1.0472,0.8563,0.6073,0.472,0.3531,0.2424,0.1313,0.0505,0.0,0.0,-0.0303,-0.0707,-0.0707,-0.1716,-0.3228,-0.4232,-0.5737,-0.7138,0.0,0.0,0.0,0.0,0.0,0.0,0.0,0.0,0.0,0.0,0.0,0.0,0.0,0.0,0.0,0.0,0.0,0.0,0.0,0.0,0.0,0.0,0.0,1.541,1.5405,1.5404,1.5398,1.5401,1.5401,1.5663,1.6191,1.6178,1.6115,1.6022,1.5913,1.7516,0.0,0.0,0.0,0.0,2.0312,0.0,0.0,0.0,0.0,0.0,0.0,0.0,0.0,1.8716,1.8205,1.7612,1.6659,0.0,0.0,0.0,0.0,0.0,1.8345,1.7625,1.6723,1.6607,1.6522,1.6522,1.6607,0.0,0.0,0.0,0.0,1.7157,1.6595,1.6313,1.6382,1.717,1.8428,1.9697,2.0791,2.1502,2.1576,2.0977,1.8047,1.564,1.4315,1.3098,1.2876,1.4083,1.5005,1.5328,1.5007,1.4029,1.2856,1.1379,1.0301,1.0733,1.2447,1.1809,1.0949,0.9764,0.8791,0.6937,0.4533,0.343,0.2323,0.1314,0.0404,0.0,0.0,0.0,-0.0606,-0.1617,-0.1819,-0.3127,-0.5135,-0.6034,-0.7039,-0.8038,0.0,0.0,0.0,0.0,0.0,0.0,0.0,0.0,0.0,0.0,0.0,0.0,0.0,0.0,0.0,0.0,0.0,0.0,0.0,0.0,0.0,1.5391,1.5391,1.5391,1.539,1.539,1.539,1.5409,1.5409,1.688,1.9717,1.9658,1.9542,1.936,1.9343,1.9692,2.0312,0.0,0.0,0.0,2.0312,0.0,0.0,0.0,0.0,0.0,0.0,0.0,0.0,1.8505,1.7966,1.7502,1.6789,0.0,0.0,0.0,0.0,0.0,1.8852,1.8475,1.7774,1.7002,1.665,1.6595,1.6989,1.7461,1.7788,0.0,0.0,1.7543,1.665,1.7195,1.7676,1.7335,1.9044,2.0928,2.25,2.2553,2.2087,2.0995,1.8782,1.6433,1.438,1.3098,1.2876,1.4083,1.3642,1.2475,1.0684,1.0281,0.9057,0.6749,0.6032,0.5422,0.491,0.6537,0.6743,0.5729,0.5528,0.4687,0.343,0.2323,0.1212,0.0202,0.0101,0.0,0.0,0.0,-0.0606,-0.1718,-0.2625,-0.4232,-0.6137,-0.6337,-0.7039,-0.8038,0.0,0.0,0.0,0.0,0.0,0.0,0.0,0.0,0.0,0.0,0.0,0.0,0.0,0.0,0.0,0.0,0.0,0.0,0.0,0.0,0.0,1.5391,1.5391,1.5391,1.5391,1.5391,1.539,1.5408,1.7249,1.8932,2.0444,2.0184,2.0069,2.0048,2.0089,2.0162,2.0312,2.0312,2.0312,2.0312,0.0,0.0,0.0,0.0,0.0,0.0,0.0,0.0,0.0,0.0,1.7777,1.6968,1.6448,0.0,0.0,0.0,0.0,0.0,1.8404,1.8503,1.8319,1.7447,1.6863,1.6595,1.7073,1.7543,1.7963,0.0,0.0,1.7887,1.7842,1.7769,1.8002,1.8905,2.0695,2.2236,2.3027,2.2822,2.2139,2.1027,1.8945,1.7059,1.6124,1.4911,1.469,1.5771,1.4472,1.2948,1.1389,1.048,0.8884,0.6539,0.4834,0.3127,0.1514,0.1912,0.2716,0.3932,0.3328,0.2825,0.2323,0.1212,0.0505,0.0,0.0,0.0,0.0,-0.0606,-0.1515,-0.2625,-0.4332,-0.5934,-0.7238,-0.7238,-0.7537,-0.7994,0.0,0.0,0.0,0.0,0.0,0.0,0.0,0.0,0.0,0.0,0.0,0.0,0.0,0.0,0.0,0.0,0.0,0.0,0.0,0.0,1.5391,1.5391,1.5391,1.5391,1.5391,1.6191,1.6619,1.6612,1.9217,2.0395,2.0203,1.99,1.9807,1.9915,2.0038,2.0135,2.026,2.0277,2.0312,2.0312,0.0,0.0,0.0,0.0,0.0,0.0,0.0,0.0,0.0,0.0,0.0,0.0,0.0,0.0,0.0,1.6728,1.7262,1.777,1.7894,1.8382,1.8669,1.7801,1.7018,1.6789,1.7804,1.8355,1.8958,1.982,1.9683,1.9449,1.9702,1.9134,1.9178,2.0899,2.2441,2.3516,2.3721,2.3258,2.2544,2.1428,1.9825,1.8648,1.8376,1.7559,1.7286,1.7984,1.6183,1.4478,1.3323,1.177,0.9903,0.763,0.5033,0.2622,0.0303,-0.1211,-0.0605,0.2017,0.1211,0.0808,0.0808,0.0,-0.0505,-0.0707,-0.0707,-0.0707,-0.0808,-0.1616,-0.2625,-0.3732,-0.5634,-0.7039,-0.8038,-0.8038,-0.795,-0.7763,0.0,0.0,0.0,0.0,0.0,0.0,0.0,0.0,0.0,0.0,0.0,0.0,0.0,0.0,0.0,0.0,0.0,0.0,0.0,0.0,1.5391,1.5391,1.5391,1.5391,1.5391,1.8569,2.0223,2.0222,2.0402,2.0204,1.9665,1.9625,1.9629,1.9638,1.9892,2.0048,2.0126,2.0252,2.0312,2.0312,2.0312,0.0,0.0,0.0,0.0,0.0,0.0,0.0,0.0,0.0,0.0,0.0,0.0,0.0,1.7289,1.7197,1.7623,1.8081,1.7796,1.837,1.8874,1.8069,1.7199,1.7182,1.9869,2.0793,2.1803,2.4082,0.0,2.3309,2.2177,2.236,2.2742,2.291,2.373,2.4609,2.543,2.4669,2.3655,2.2644,2.2581,2.2056,2.0771,2.056,2.0428,2.0129,1.8249,1.6358,1.4607,1.329,1.1356,0.8806,0.6426,0.3924,0.1009,-0.1714,-0.2422,-0.121,-0.131,-0.1413,-0.1415,-0.1415,-0.202,-0.2928,-0.2928,-0.2928,-0.2928,-0.3029,-0.3732,-0.4834,-0.5937,-0.7039,-0.8038,-0.8038,-0.7685,-0.7197,0.0,0.0,0.0,0.0,0.0,0.0,0.0,0.0,0.0,0.0,0.0,0.0,0.0,0.0,0.0,0.0,0.0,0.0,0.0,1.5407,1.5409,1.5391,1.5409,1.6399,1.8535,1.9908,2.0582,2.0542,2.0137,1.9713,1.9282,1.9282,1.9344,1.9431,1.9738,1.9963,2.0117,2.0233,2.0312,2.0312,2.0312,2.0312,0.0,0.0,0.0,0.0,0.0,0.0,0.0,0.0,1.7417,1.7109,1.6612,1.683,1.7242,1.7061,1.7717,1.8421,1.7988,1.8475,1.895,1.8425,1.7611,0.0,0.0,2.1917,2.3728,2.6056,2.6038,2.4698,2.1724,2.2241,2.3135,2.3135,2.3408,2.4121,2.5537,2.4843,2.4053,2.3646,2.3152,2.2545,2.1995,2.2535,2.2496,2.122,1.8788,1.664,1.5114,1.3102,1.0863,0.8403,0.581,0.3211,0.0403,-0.2015,-0.3325,-0.3626,-0.3626,-0.3226,-0.2625,-0.3328,-0.383,-0.4234,-0.4234,-0.4234,-0.4234,-0.4234,-0.4834,-0.5834,-0.6237,-0.6637,-0.7036,-0.7036,-0.6709,-0.6263,0.0,0.0,0.0,0.0,0.0,0.0,0.0,0.0,0.0,0.0,0.0,0.0,0.0,0.0,0.0,0.0,0.0,0.0,1.5366,1.5392,1.5401,1.5409,1.5402,1.7002,2.0422,2.0449,2.041,2.0366,1.9676,1.9202,1.8896,1.8984,1.9086,1.9246,1.9592,1.9837,2.0019,2.0145,2.0209,2.0209,2.0209,2.0209,0.0,0.0,0.0,0.0,0.0,0.0,0.0,0.0,1.7606,1.7455,1.6882,1.6835,1.6991,1.7197,1.8097,1.8952,1.8628,1.8797,1.8988,1.8581,0.0,0.0,2.1517,2.3524,2.5472,2.7739,2.6929,2.4897,2.1927,2.2274,2.2965,2.3093,2.3349,2.389,2.4766,2.4478,2.4347,2.4618,2.3746,2.3147,2.3147,2.3001,2.2452,2.1365,1.9063,1.6814,1.4715,1.2292,0.9755,0.7298,0.48,0.2205,-0.0402,-0.2214,-0.3728,-0.4636,-0.4836,-0.4535,-0.3732,-0.4433,-0.5133,-0.5834,-0.5834,-0.5563,-0.5054,-0.4762,-0.4929,-0.5436,-0.5436,-0.5436,-0.5434,-0.5737,-0.5658,-0.5196,0.0,0.0,0.0,0.0,0.0,0.0,0.0,0.0,0.0,0.0,0.0,0.0,0.0,0.0,0.0,0.0,0.0,0.0,1.5306,1.5357,1.5401,1.5401,1.5405,1.6989,2.0371,2.0208,2.0088,2.0088,1.9222,1.8695,1.8505,1.8714,1.8896,1.9104,1.9453,1.9665,1.9807,1.9938,2.0012,2.0012,2.0012,2.0012,2.0004,0.0,0.0,0.0,0.0,0.0,0.0,0.0,1.8057,1.7984,1.7401,1.6847,1.6623,1.7669,1.8808,1.969,1.969,1.9398,1.904,1.8662,1.9995,2.2061,2.4489,2.5814,2.7163,2.9327,2.6827,2.4003,2.3349,2.288,2.2786,2.3116,2.3931,2.4167,2.3193,2.3867,2.4727,2.5605,2.4726,2.4134,2.4134,2.1825,2.0292,2.0292,1.9279,1.7073,1.3301,1.0771,0.8329,0.5686,0.3497,0.1202,-0.1207,-0.2517,-0.3627,-0.4338,-0.5041,-0.524,-0.4834,-0.4834,-0.5934,-0.7939,-0.7935,-0.7124,-0.5644,-0.4656,-0.3856,-0.323,-0.323,-0.323,-0.333,-0.4329,-0.4604,-0.4121,0.0,0.0,0.0,0.0,0.0,0.0,0.0,0.0,0.0,0.0,0.0,0.0,0.0,0.0,0.0,0.0,0.0,0.0,1.5302,1.5322,1.5354,1.5401,1.5357,1.5802,1.6821,1.8745,1.955,1.9191,1.8642,1.836,1.8298,1.8638,1.8896,1.9104,1.9453,1.9611,1.9665,1.9807,1.9856,1.9856,1.9856,1.9856,1.9868,0.0,0.0,0.0,0.0,0.0,0.0,0.0,0.0,0.0,1.7264,1.7454,1.7896,1.799,1.8808,1.969,1.969,1.9603,1.9878,2.1267,2.1787,2.3034,2.7304,2.7675,0.0,2.8611,2.7534,2.6098,2.525,2.4973,2.4481,2.298,2.3713,2.4145,2.3242,2.3359,2.3345,2.2978,2.2077,2.1147,2.0481,1.905,1.7878,1.7225,1.5514,1.3397,1.0769,0.9955,0.8361,0.5695,0.3103,0.0803,-0.1411,-0.3022,-0.4232,-0.5236,-0.6237,-0.6037,-0.4834,-0.5534,-0.6237,-0.6816,-0.6558,-0.5769,-0.4567,-0.2956,-0.2165,-0.2121,-0.2121,-0.2121,-0.2107,-0.2373,-0.238,-0.2241,0.0,0.0,0.0,0.0,0.0,0.0,0.0,0.0,0.0,0.0,0.0,0.0,0.0,0.0,0.0,0.0,0.0,0.0,0.0,1.5307,1.5323,1.5409,1.5345,1.5896,1.718,1.8831,1.9435,1.8914,1.844,1.8211,1.8211,1.8522,1.8843,1.9104,1.9298,1.942,1.9493,1.956,1.9601,1.9601,1.9601,1.9601,1.9614,0.0,0.0,0.0,0.0,0.0,0.0,0.0,0.0,0.0,1.7321,1.8123,1.9134,1.8791,1.9146,1.969,1.969,1.969,2.0244,2.2584,2.3594,2.528,3.0003,2.993,2.8787,2.8548,2.8111,2.7545,2.6809,2.6561,2.5865,2.4209,2.4409,2.4509,2.3744,2.3667,2.2862,2.0826,1.9355,1.7963,1.6553,1.5507,1.4453,1.3403,1.1053,0.8696,0.6523,0.5191,0.4185,0.34,0.1003,-0.1006,-0.252,-0.3477,-0.4371,-0.5336,-0.5937,-0.5647,-0.4626,-0.6251,-0.6726,-0.6045,-0.4574,-0.3673,-0.3045,-0.1525,-0.0925,-0.0969,-0.0999,-0.0992,-0.096,-0.0914,-0.0808,-0.0808,0.0,0.0,0.0,0.0,0.0,0.0,0.0,0.0,0.0,0.0,0.0,0.0,0.0,0.0,0.0,0.0,0.0,0.0,0.0,0.0,1.5345,1.5392,1.5345,1.6816,2.0021,1.99,1.9587,1.917,1.8524,1.8253,1.8274,1.8443,1.8715,1.907,1.907,1.9152,1.9274,1.9289,1.9305,1.9305,1.9305,1.9305,1.932,1.9508,0.0,0.0,0.0,0.0,0.0,0.0,0.0,0.0,1.7848,1.8962,2.0235,1.9833,1.969,1.969,1.969,1.9854,2.0662,2.331,2.5589,2.8237,3.2379,3.2155,3.0672,2.9052,2.8749,2.859,2.8122,2.7626,2.7044,2.6113,2.5611,2.5031,2.4368,2.4003,2.2473,1.8804,1.6567,1.458,1.2662,1.1482,1.0275,0.9037,0.6064,0.3391,0.13,-0.1698,-0.2493,-0.0596,-0.2289,-0.3491,-0.3892,-0.3764,-0.3859,-0.4386,-0.4487,-0.4327,-0.4129,-0.6556,-0.6804,-0.5196,-0.2419,-0.1256,-0.1166,-0.0359,0.0,0.0,0.0,0.0,0.0,-0.009,-0.009,-0.018,0.0,0.0,0.0,0.0,0.0,0.0,0.0,0.0,0.0,0.0,0.0,0.0,0.0,0.0,0.0,0.0,0.0,0.0,0.0,0.0,1.5375,1.5397,1.534,1.6816,2.0021,2.0007,1.9868,1.9647,1.8843,1.8522,1.8676,1.8714,1.8788,1.8861,1.8861,1.8967,1.9135,1.9261,1.9305,1.9305,1.9305,1.9305,1.9305,1.9353,1.9368,0.0,0.0,0.0,0.0,0.0,0.0,0.0,2.058,2.0416,2.0235,1.9833,1.969,1.969,1.969,2.1186,2.3385,2.6048,2.8287,3.0387,3.276,3.2602,3.1656,3.0672,3.0444,3.0139,2.9052,2.8645,2.8063,2.6599,2.629,2.5359,2.2696,2.0331,1.7933,1.552,1.3414,1.1678,1.0408,0.852,0.6566,0.4526,0.1562,-0.0644,-0.1844,-0.3957,-0.4965,-0.4499,-0.4227,-0.3774,-0.3134,-0.2375,-0.1644,-0.1014,-0.175,-0.2097,-0.2063,-0.4193,-0.4097,-0.224,-0.0898,-0.0269,-0.0269,-0.009,0.0,0.0,0.0,0.0,-0.009,-0.0808,-0.1077,-0.1256,0.0,0.0,0.0,0.0,0.0,0.0,0.0,0.0,0.0,0.0,0.0,0.0,0.0,0.0,0.0,0.0,0.0,0.0,0.0,0.0,1.5403,1.5402,1.6934,1.8551,2.0208,2.0173,2.0078,1.9945,1.9458,1.9113,1.8932,1.8843,1.8751,1.8657,1.8657,1.8824,1.9104,1.9246,1.9305,1.9305,1.9305,1.9305,1.9455,2.1051,2.1639,2.1841,2.3279,0.0,0.0,0.0,0.0,0.0,0.0,0.0,2.046,2.008,1.9869,1.9762,1.994,2.1918,2.482,2.8539,3.0041,3.0733,3.1378,3.2125,3.242,3.1235,3.0948,3.0672,2.9574,2.8858,2.7879,2.64,2.447,2.2475,2.0628,1.777,1.514,1.3033,1.0988,0.9019,0.7428,0.5744,0.3657,0.1079,-0.1433,-0.3226,-0.4214,-0.5198,-0.5463,-0.5015,-0.4123,-0.299,-0.1519,-0.0591,0.0169,0.0591,0.0084,-0.0337,-0.0759,-0.2191,-0.2275,-0.1266,-0.0422,0.0,0.0,-0.0422,-0.0606,-0.0718,-0.1168,-0.1347,-0.1437,-0.1974,-0.2422,-0.2867,0.0,0.0,0.0,0.0,0.0,0.0,0.0,0.0,0.0,0.0,0.0,0.0,0.0,0.0,0.0,0.0,0.0,0.0,0.0,0.0,0.0,1.6256,1.899,2.0463,2.0399,2.033,2.0252,2.0135,2.0648,2.0615,0.0,1.9795,1.9552,1.9374,1.9374,1.9571,1.9919,2.0087,2.0134,2.0134,2.0134,2.0134,2.0427,2.3162,2.419,2.417,2.3896,2.3664,2.3424,2.2927,0.0,0.0,0.0,0.0,2.0794,2.0407,2.001,1.9797,2.02,2.2255,2.5372,2.9748,3.0719,3.0447,2.9913,3.1256,3.2318,3.0992,3.093,3.0823,2.9947,2.867,2.7232,2.5727,2.2167,1.9224,1.8295,1.5494,1.2737,1.0596,0.8623,0.6702,0.465,0.3361,0.1436,-0.1436,-0.3271,-0.4644,-0.5521,-0.5434,-0.4908,-0.4031,-0.2985,-0.1527,0.0393,0.1335,0.1728,0.1728,0.1414,0.0943,0.0157,-0.0707,-0.11,-0.1021,-0.0314,-0.0079,-0.0314,-0.1178,-0.1643,-0.1933,-0.2765,-0.3142,-0.3141,-0.3321,-0.4123,-0.5097,0.0,0.0,0.0,0.0,0.0,0.0,0.0,0.0,0.0,0.0,0.0,0.0,0.0,0.0,0.0,0.0,0.0,0.0,1.5293,0.0,0.0,1.9687,2.0266,2.0463,2.0399,2.033,2.0285,2.0269,2.311,0.0,0.0,0.0,0.0,2.283,2.283,2.2966,2.3182,2.3453,2.3547,2.3547,2.3547,2.3547,2.3584,2.4025,2.419,2.417,2.3896,2.3664,2.3453,2.3144,2.2868,0.0,0.0,0.0,2.1119,2.046,2.001,1.9797,2.02,2.2255,2.4912,2.75,2.9378,3.0582,3.0507,3.0292,3.0149,3.0209,3.0983,3.136,3.019,2.8574,2.6799,2.4772,2.193,1.8912,1.5978,1.2464,0.9414,0.7329,0.5934,0.4712,0.3308,0.2168,0.0448,-0.2513,-0.3428,-0.4234,-0.5034,-0.4393,-0.3675,-0.2798,-0.1199,0.0397,0.2118,0.3059,0.345,0.345,0.1962,0.1257,0.11,0.0236,-0.0157,-0.0157,-0.0079,-0.0393,-0.1178,-0.2041,-0.2765,-0.3544,-0.3917,-0.4121,-0.421,-0.5018,-0.6438,-0.812,0.0,0.0,0.0,0.0,0.0,0.0,0.0,0.0,0.0,0.0,0.0,0.0,0.0,0.0,0.0,1.7881,1.8061,1.8108,1.8208,1.8244,1.8932,2.0422,2.0495,2.0463,2.0399,2.033,2.1207,2.3092,0.0,0.0,0.0,2.4356,2.3998,0.0,0.0,0.0,2.3816,2.4094,2.419,2.419,2.419,2.419,2.419,0.0,0.0,0.0,0.0,0.0,2.362,2.3407,2.3144,2.285,2.2453,0.0,0.0,0.0,2.0323,2.008,2.0235,2.2255,2.4426,2.483,2.6755,2.8637,2.916,2.928,2.9259,2.8955,2.9111,2.9019,2.8375,2.6801,2.4711,2.1997,1.9187,1.6382,1.3572,1.1395,0.8704,0.5033,0.3629,0.2742,0.2081,0.1167,-0.0088,-0.1844,-0.2651,-0.345,-0.4311,-0.3528,-0.2668,-0.1884,-0.0157,0.1569,0.3214,0.4077,0.4467,0.447,0.3294,0.2433,0.1962,0.1099,0.0471,0.0,0.0,-0.0471,-0.1414,-0.2668,-0.3684,-0.4589,-0.5534,-0.6251,-0.6786,-0.7753,-0.8632,-0.9418,0.0,0.0,0.0,0.0,0.0,0.0,0.0,0.0,0.0,0.0,0.0,0.0,0.0,0.0,0.0,0.0,2.0312,2.0345,2.0463,2.05,2.0503,2.0503,2.0478,2.0441,2.0379,2.1163,2.2803,2.5303,0.0,0.0,2.4692,2.4566,2.4247,0.0,2.3876,2.3896,0.0,0.0,0.0,0.0,2.419,2.419,0.0,0.0,0.0,0.0,0.0,0.0,0.0,0.0,2.3407,2.3126,2.2816,2.2287,0.0,0.0,0.0,2.0407,2.0304,2.1747,2.3031,2.1903,2.3464,2.5568,2.6736,2.7331,2.7593,2.7157,2.6405,2.5632,2.4846,2.3667,2.1919,1.8963,1.6051,1.3261,1.0877,0.9598,0.7543,0.3827,0.2085,0.1152,0.1083,0.0449,-0.0347,-0.1266,-0.1884,-0.251,-0.3137,-0.2529,-0.1663,-0.0757,0.0757,0.2269,0.3929,0.4876,0.5329,0.5326,0.4467,0.3684,0.2824,0.1962,0.1178,0.0314,-0.0157,-0.0785,-0.1727,-0.345,-0.4698,-0.5752,-0.6826,-0.7769,-0.8713,-0.9639,-1.0043,-1.0218,0.0,0.0,0.0,0.0,0.0,0.0,0.0,0.0,0.0,0.0,0.0,0.0,2.0042,2.0042,2.0119,2.0292,2.0312,2.0323,2.0399,2.0463,2.0493,2.0493,2.0441,0.0,2.0319,2.3428,2.513,0.0,0.0,0.0,2.4692,2.4566,2.4247,2.3816,2.4074,2.417,2.417,0.0,0.0,0.0,0.0,0.0,0.0,0.0,0.0,0.0,0.0,0.0,0.0,0.0,0.0,0.0,0.0,2.2287,2.1738,0.0,0.0,0.0,2.0407,2.0412,2.0137,1.8553,1.9592,2.1517,2.3326,2.3787,2.3927,2.4379,2.3242,2.1439,1.8976,1.9099,1.8749,1.611,1.312,1.0182,0.7887,0.615,0.4789,0.4021,0.1704,0.009,0.009,0.0,-0.0347,-0.1266,-0.1335,-0.1414,-0.1414,-0.1291,-0.0542,0.0949,0.1764,0.2849,0.4271,0.5606,0.6261,0.6261,0.5326,0.4545,0.3684,0.2823,0.1962,0.1178,-0.055,-0.1727,-0.2588,-0.4233,-0.5867,-0.7407,-0.7447,-0.7996,-0.877,-0.9611,-1.0413,-1.1186,0.0,0.0,0.0,0.0,0.0,0.0,0.0,0.0,0.0,0.0,0.0,0.0,0.0,2.0312,2.0312,2.0312,2.0312,2.0323,2.0399,2.0457,2.0507,2.0507,2.0435,2.0366,2.0292,2.3572,0.0,0.0,0.0,2.5038,2.4692,2.4566,2.4247,2.3795,2.3896,2.3873,2.3765,2.3894,0.0,0.0,0.0,0.0,0.0,0.0,0.0,0.0,0.0,0.0,0.0,0.0,0.0,0.0,0.0,0.0,0.0,0.0,2.123,2.0695,2.0235,1.9833,1.9273,1.8189,1.7955,1.8567,2.0643,2.0779,2.0925,2.2603,2.0475,1.7774,1.584,1.5914,1.5319,1.25,0.9937,0.757,0.5657,0.447,0.3539,0.2777,0.1109,0.0269,0.0808,0.0898,0.0953,0.1106,0.1176,0.1069,0.093,0.0962,0.1277,0.1817,0.2488,0.356,0.4964,0.5507,0.595,0.6261,0.5951,0.5404,0.4548,0.3684,0.2589,0.1178,-0.1098,-0.2589,-0.345,-0.5168,-0.6791,-0.8318,-0.8856,-0.9533,-1.0282,-1.0588,-1.1186,-1.1929,0.0,0.0,0.0,0.0,0.0,0.0,0.0,0.0,0.0,0.0,0.0,0.0,0.0,0.0,2.0312,2.0312,2.0315,2.0352,2.0399,2.0457,2.0507,2.0507,2.0435,2.0906,2.1966,2.4149,0.0,0.0,0.0,0.0,0.0,2.4582,2.4247,2.3795,2.3728,2.3594,0.0,0.0,0.0,2.3816,0.0,0.0,2.419,0.0,0.0,0.0,0.0,0.0,0.0,0.0,0.0,0.0,0.0,0.0,0.0,0.0,0.0,0.0,2.0166,0.0,1.8822,1.7975,1.734,1.723,1.8512,1.8289,1.8134,1.936,1.7129,1.4454,1.2731,1.2204,1.1268,0.9154,0.7308,0.5565,0.4102,0.3332,0.2745,0.2267,0.1431,0.1236,0.2108,0.2423,0.2679,0.2915,0.2902,0.2856,0.2572,0.2557,0.2624,0.2891,0.356,0.4428,0.5362,0.5428,0.5631,0.6033,0.6033,0.5764,0.5407,0.4311,0.2901,0.1178,-0.1412,-0.3137,-0.4387,-0.6325,-0.7863,-0.916,-0.9986,-1.0812,-1.1484,-1.1484,-1.2003,-1.2673,0.0,0.0,0.0,0.0,0.0,0.0,0.0,0.0,0.0,2.0427,0.0,0.0,0.0,0.0,0.0,2.0446,2.0513,2.0553,2.0553,2.0612,2.0643,2.0643,2.059,2.2045,2.5236,0.0,0.0,0.0,0.0,0.0,0.0,0.0,2.4266,2.3795,2.3611,2.336,2.3144,0.0,2.3616,2.3816,0.0,2.419,2.419,0.0,0.0,0.0,2.419,2.4169,0.0,2.4189,0.0,0.0,0.0,0.0,0.0,0.0,0.0,0.0,0.0,0.0,0.0,1.7787,1.7579,1.7396,1.6844,1.6303,1.5632,1.4578,1.3129,1.1509,0.9519,0.792,0.6785,0.6204,0.5165,0.4095,0.3099,0.2602,0.2449,0.2741,0.2658,0.2984,0.3869,0.4586,0.4691,0.391,0.3839,0.368,0.3311,0.3293,0.3563,0.43,0.5014,0.5401,0.5401,0.5418,0.5428,0.5428,0.5428,0.5667,0.6157,0.4523,0.289,0.1095,-0.1406,-0.3519,-0.5249,-0.7706,-0.9236,-0.9992,-1.0812,-1.1632,-1.2305,-1.2305,-1.2826,-1.3492,0.0,0.0,0.0,0.0,0.0,0.0,0.0,0.0,0.0,0.0,0.0,0.0,0.0,2.3918,2.3918,2.3918,2.4025,2.4099,2.4099,2.4148,2.4183,2.4183,2.4115,2.4458,2.5293,2.5303,2.5303,2.5303,2.5283,2.5228,2.5132,2.4798,0.0,0.0,2.3813,2.3576,2.3383,2.3471,0.0,2.3634,2.4034,2.419,0.0,0.0,0.0,0.0,0.0,2.4189,2.4189,0.0,2.4112,2.381,0.0,0.0,0.0,0.0,0.0,0.0,2.053,0.0,0.0,0.0,0.0,0.0,1.5493,1.4328,1.3046,1.1848,1.0551,0.8926,0.6582,0.5691,0.5061,0.4333,0.3818,0.3366,0.2951,0.3002,0.322,0.3537,0.3762,0.3979,0.446,0.5039,0.5399,0.5276,0.5445,0.5399,0.4791,0.4761,0.4894,0.5096,0.4877,0.4769,0.4769,0.5205,0.5428,0.5428,0.5428,0.518,0.4848,0.3795,0.2251,0.0211,-0.2039,-0.4465,-0.6942,-0.8775,-1.0067,-1.0887,-1.1632,-1.2077,-1.2305,-1.2305,-1.2826,-1.3492,0.0,0.0,0.0,0.0,0.0,0.0,0.0,2.1477,2.3092,0.0,0.0,0.0,2.5303,2.5303,2.5303,2.5303,2.5415,2.5511,2.5511,2.5564,2.5589,2.5557,2.5515,2.5451,2.5313,2.5303,2.5303,2.5303,2.5303,2.5271,2.5191,2.4945,2.4647,0.0,0.0,0.0,0.0,0.0,0.0,0.0,2.3915,0.0,0.0,2.3933,2.3891,0.0,0.0,0.0,2.4054,2.417,2.3894,0.0,0.0,0.0,0.0,0.0,0.0,0.0,0.0,0.0,0.0,0.0,0.0,0.0,1.4196,1.2786,1.1281,1.0097,0.8902,0.756,0.5834,0.5243,0.4777,0.4091,0.3801,0.3611,0.3124,0.3442,0.3746,0.411,0.4399,0.4608,0.4768,0.5222,0.5566,0.5656,0.5805,0.5745,0.5386,0.5188,0.5047,0.5047,0.4704,0.4519,0.4519,0.4872,0.4988,0.4964,0.4964,0.4564,0.383,0.2755,0.1142,-0.101,-0.2891,-0.4933,-0.7207,-0.9085,-1.0594,-1.1632,-1.215,-1.2305,-1.2305,-1.2305,-1.2966,-1.3928,0.0,0.0,0.0,0.0,0.0,0.0,0.0,0.0,0.0,0.0,2.5303,2.5303,2.5303,2.5303,2.5303,2.5303,2.5406,2.5476,2.5476,2.5524,2.5531,2.5476,2.5476,2.5415,2.5313,2.5303,2.5303,2.5303,2.5303,2.5262,2.5203,2.507,2.4832,2.4517,0.0,0.0,0.0,0.0,0.0,2.3753,2.3753,2.3753,0.0,0.0,2.3471,2.3471,2.3471,2.3571,2.3753,2.3955,2.333,0.0,0.0,0.0,0.0,0.0,2.1324,0.0,0.0,0.0,0.0,0.0,1.599,0.0,1.3052,1.1598,1.0236,0.9153,0.8102,0.7162,0.6502,0.5938,0.5389,0.4906,0.4686,0.4344,0.3696,0.389,0.4242,0.461,0.483,0.4973,0.4973,0.5259,0.5499,0.5419,0.5265,0.5151,0.5078,0.4575,0.4294,0.4294,0.4294,0.4294,0.4294,0.4294,0.4262,0.409,0.4074,0.3696,0.2889,0.1613,-0.0202,-0.2288,-0.3696,-0.5096,-0.6597,-0.8764,-1.0633,-1.215,-1.2305,-1.2305,-1.2305,-1.2305,-1.3251,-1.4569,0.0,0.0,0.0,0.0,2.2673,0.0,0.0,0.0,0.0,2.5303,2.5303,2.5303,0.0,0.0,2.5303,2.5303,2.5322,2.5341,2.5341,2.5351,2.536,2.5341,2.5341,2.5332,2.5303,2.5303,2.5303,2.5303,2.5303,2.5293,2.5273,2.5203,2.4985,2.4645,0.0,0.0,0.0,0.0,0.0,2.3567,2.3567,2.3435,2.3247,2.3175,2.3193,2.3193,2.3193,2.3199,2.3206,2.3035,2.2694,2.2338,0.0,0.0,0.0,2.1768,0.0,0.0,0.0,0.0,0.0,0.0,1.5327,0.0,1.2337,1.1107,1.0028,0.9155,0.8318,0.7589,0.7044,0.6442,0.5939,0.566,0.5327,0.5012,0.4522,0.4593,0.4785,0.5094,0.5245,0.5315,0.5315,0.5379,0.5339,0.5045,0.4446,0.3836,0.327,0.3124,0.3023,0.3023,0.3023,0.3023,0.3023,0.3023,0.3065,0.3031,0.2768,0.222,0.1479,0.0606,-0.0673,-0.2288,-0.3696,-0.5096,-0.6494,-0.7502,-0.9287,-1.1409,-1.2077,-1.2305,-1.2305,-1.2305,-1.3251,-1.4569,0.0,0.0,0.0,0.0,2.437,0.0,0.0,0.0,0.0,0.0,0.0,0.0,0.0,0.0,0.0,0.0,2.5303,2.5303,2.5303,2.5303,2.5303,2.5303,2.5303,2.5303,2.5303,2.5303,2.5303,2.5303,2.5303,2.5303,2.5303,2.5217,2.5063,2.4832,0.0,0.0,0.0,0.0,2.3685,2.3494,2.336,0.0,2.2893,2.2764,2.2712,2.2712,2.2712,2.2712,2.2685,2.2542,2.2405,0.0,2.2237,2.2061,2.184,0.0,2.1135,2.0499,0.0,0.0,0.0,1.6016,0.0,0.0,0.0,1.0762,0.9961,0.9399,0.8817,0.8349,0.7931,0.7391,0.6961,0.6799,0.6459,0.6093,0.5701,0.5225,0.4988,0.5188,0.5202,0.5142,0.5142,0.5142,0.4981,0.4472,0.3784,0.3082,0.2378,0.1985,0.1794,0.1794,0.1794,0.1962,0.2244,0.2244,0.2076,0.1797,0.1719,0.1278,0.0539,-0.0202,-0.1144,-0.2288,-0.3696,-0.5096,-0.6482,-0.7199,-0.8575,-1.0451,-1.1788,-1.2305,-1.2305,-1.2305,-1.2643,-1.3132,2.0513,0.0,0.0,0.0,2.5515,2.5515,2.5515,0.0,0.0,0.0,0.0,0.0,0.0,0.0,0.0,0.0,0.0,2.5303,2.5303,2.5303,2.5303,2.5303,2.5303,2.5303,2.5303,2.5303,2.5303,2.5303,2.5303,2.5303,2.5303,2.5239,2.5156,2.5018,0.0,0.0,0.0,0.0,0.0,2.3471,0.0,2.2868,2.2605,2.2394,2.231,2.231,2.231,2.231,2.231,2.231,2.2282,2.2237,2.2135,2.1945,0.0,0.0,0.0,0.0,0.0,0.0,0.0,0.0,0.0,1.2425,0.0,0.0,0.0,0.9873,0.9503,0.9138,0.8883,0.8402,0.8037,0.7883,0.7456,0.7069,0.6694,0.5848,0.5236,0.5121,0.4949,0.4833,0.483,0.477,0.4471,0.3928,0.3212,0.2532,0.1947,0.1257,0.0842,0.0842,0.0785,0.0954,0.1459,0.1459,0.1234,0.073,0.0809,0.0593,0.0,-0.074,-0.148,-0.2288,-0.3696,-0.516,-0.6679,-0.7396,-0.8501,-0.9885,-1.1394,-1.1971,-1.1971,-1.1971,-1.1838,-1.1722,2.0488,2.3205,0.0,0.0,2.5589,2.5589,2.5589,2.5429,0.0,0.0,0.0,0.0,0.0,0.0,0.0,0.0,0.0,0.0,2.5303,0.0,0.0,2.5303,2.5303,2.5303,2.5303,2.5303,2.5303,2.5303,2.5303,2.5303,2.5303,2.5293,2.525,2.5156,2.4827,0.0,0.0,0.0,2.3685,0.0,2.2944,2.2579,0.0,2.231,2.231,2.231,2.231,2.231,2.231,0.0,2.2237,2.2118,0.0,2.189,2.1617,2.1103,0.0,0.0,0.0,0.0,0.0,0.0,1.2676,1.1715,1.0838,0.0,1.0667,1.0718,0.0,0.9984,0.971,0.0,0.0,0.8368,0.7836,0.7281,0.6753,0.6352,0.5839,0.5183,0.4853,0.4685,0.457,0.4179,0.3786,0.3508,0.2653,0.1974,0.164,0.1012,0.0617,0.0617,0.028,0.0112,0.0224,0.0224,0.0168,0.0112,0.0114,0.0061,0.0,-0.074,-0.148,-0.2288,-0.3696,-0.5488,-0.7456,-0.8117,-0.9215,-1.0511,-1.0708,-1.0762,-1.0762,-1.0762,-1.1114,-1.1848,2.3385,2.452,0.0,0.0,2.5536,2.5536,2.5536,2.5395,0.0,0.0,0.0,0.0,0.0,0.0,0.0,0.0,0.0,2.5303,0.0,0.0,0.0,2.5239,2.5239,2.5239,2.5239,2.5273,2.5303,2.5303,2.5303,2.5303,2.5303,2.5303,2.5252,2.518,2.4972,0.0,2.4482,0.0,2.3685,0.0,0.0,2.2426,0.0,2.2225,2.231,2.2282,2.2077,2.2061,2.2118,2.2123,2.2049,0.0,0.0,0.0,0.0,2.0648,0.0,0.0,0.0,0.0,0.0,0.0,0.0,0.0,1.1108,1.1175,1.1326,1.1368,0.0,0.0,0.0,0.0,0.0,0.0,0.828,0.7665,0.7251,0.6788,0.6201,0.5386,0.5066,0.4853,0.4632,0.4187,0.3744,0.3244,0.2404,0.168,0.1234,0.0673,0.0336,0.028,0.0112,-0.0056,-0.0168,-0.0168,-0.028,-0.0505,-0.0505,-0.0346,0.0,-0.0668,-0.1519,-0.2624,-0.4625,-0.6478,-0.8182,-0.928,-1.0548,-1.1747,-1.1747,-1.1498,-1.1122,-1.0744,-1.0751,-1.1298,2.5423,0.0,0.0,0.0,0.0,2.5484,2.5459,0.0,0.0,0.0,0.0,0.0,2.5303,2.5303,0.0,0.0,2.5303,2.5293,0.0,0.0,2.5239,0.0,0.0,0.0,2.5151,2.5228,2.5262,2.5262,2.5293,2.5303,2.5303,2.5283,2.525,2.518,0.0,2.4757,2.4482,0.0,2.3642,2.3336,2.2893,2.2271,2.1708,2.1932,2.2036,2.1991,2.1738,2.1781,2.194,2.1991,2.1974,2.1882,2.1768,2.1308,2.0731,0.0,0.0,0.0,1.649,0.0,0.0,0.0,1.1963,1.1706,1.1733,1.199,1.2197,1.2058,1.161,0.0,0.0,0.0,0.0,0.0,0.0,0.8076,0.7702,0.728,0.6623,0.5608,0.5222,0.495,0.4783,0.4239,0.3707,0.3241,0.2238,0.1456,0.0954,0.0393,0.0112,0.0,-0.0056,-0.0168,-0.0336,-0.0393,-0.0673,-0.1064,-0.1177,-0.0953,-0.0505,-0.1121,-0.1962,-0.3095,-0.5996,-0.803,-0.9352,-1.0601,-1.1809,-1.2858,-1.305,-1.2797,-1.2297,-1.1435,-1.1122,-1.1425,2.5313,2.5313,0.0,0.0,0.0,0.0,0.0,0.0,0.0,0.0,0.0,0.0,0.0,0.0,0.0,0.0,0.0,2.5262,2.5203,0.0,2.5144,0.0,0.0,2.501,0.0,2.5151,2.5191,2.5191,2.5282,2.5303,2.5303,2.5228,2.5191,2.5199,2.4856,2.4629,2.4482,2.3999,2.3535,2.3095,2.2816,2.213,2.1309,2.1325,2.134,2.134,2.1309,2.1526,2.1827,2.1969,2.1998,2.1969,2.184,2.115,2.0246,1.9295,0.0,0.0,1.5568,1.4242,1.311,1.2248,1.2297,1.2619,1.2802,1.3148,1.3358,1.3006,1.2218,1.1375,1.0812,0.0,0.0,0.0,0.0,0.0,0.0,0.7912,0.7298,0.5844,0.5215,0.4943,0.4964,0.419,0.361,0.3405,0.2128,0.1178,0.0898,0.0336,0.0,0.0,-0.0112,-0.028,-0.0393,-0.0729,-0.1064,-0.151,-0.1902,-0.1962,-0.1741,-0.2355,-0.297,-0.3802,-0.7765,-1.0141,-1.1302,-1.2172,-1.292,-1.3511,-1.4198,-1.4446,-1.4267,-1.2989,-1.2567,-1.2704,0.0,0.0,0.0,0.0,0.0,0.0,0.0,2.5303,0.0,0.0,2.5303,0.0,0.0,2.5303,2.5283,0.0,0.0,2.5191,2.507,2.4945,0.0,0.0,0.0,2.4802,0.0,2.4977,2.5076,2.5076,2.5191,2.5228,2.5228,2.512,2.5004,2.4856,2.4663,2.4532,0.0,0.0,0.0,0.0,0.0,2.1448,2.0958,2.0958,2.0958,2.0958,2.0958,2.1055,2.1198,2.1617,2.1738,2.1708,2.1526,2.1007,2.0326,1.9645,1.8299,1.6705,1.554,1.4367,1.3453,1.3195,1.3465,1.3992,1.4381,1.4506,1.4391,1.382,1.2773,1.1774,1.1065,0.0,0.0,0.0,0.0,0.0,0.0,0.7707,0.7019,0.6299,0.5898,0.5575,0.5315,0.455,0.3924,0.3461,0.2294,0.14,0.0954,0.0393,0.0056,-0.0112,-0.028,-0.0505,-0.0842,-0.1345,-0.1902,-0.2458,-0.2954,-0.3014,-0.2687,-0.3074,-0.4871,-0.7676,-0.9791,-1.1135,-1.1902,-1.2793,-1.354,-1.4198,-1.4834,-1.5069,-1.4951,-1.3692,-1.3216,-1.3487,2.5187,0.0,0.0,0.0,0.0,0.0,0.0,0.0,0.0,0.0,2.636,0.0,2.711,0.0,2.6998,0.0,2.6825,2.6247,2.4911,2.4711,0.0,2.4394,2.4549,2.4631,0.0,2.4757,2.485,2.4889,2.5057,2.512,2.5139,2.4977,2.4802,2.4613,0.0,2.4339,2.421,2.3508,2.3119,0.0,0.0,2.1087,2.0761,2.0512,2.041,2.041,2.041,2.0494,2.0662,2.1023,2.1135,2.1135,2.099,2.0512,1.9889,1.9273,1.8027,1.6685,1.5708,1.4892,1.4275,1.4369,1.4901,1.554,1.6034,1.5917,1.5492,1.4699,1.3423,1.2258,1.151,0.0,0.0,0.0,0.0,0.0,0.0,0.7727,0.7205,0.6837,0.635,0.5964,0.5664,0.4923,0.4184,0.3671,0.2516,0.1624,0.101,0.0505,0.0056,-0.0168,-0.0449,-0.0841,-0.1345,-0.2015,-0.2738,-0.3456,-0.4113,-0.4226,-0.3901,-0.434,-0.6597,-1.0249,-1.1187,-1.1848,-1.2396,-1.3058,-1.3615,-1.4209,-1.5061,-1.541,-1.5294,-1.446,-1.4163,-1.4448,2.4996,0.0,0.0,0.0,2.5303,0.0,0.0,0.0,2.536,0.0,2.8379,3.0398,3.0398,3.0266,3.0128,2.9924,2.9755,2.8278,2.4946,2.4724,0.0,0.0,2.4376,2.4482,2.4482,2.4482,2.4549,2.4692,2.4894,2.4996,2.4964,2.4768,2.4631,2.4482,2.4284,0.0,2.3732,2.2985,2.2659,2.2561,2.1661,2.1087,2.0695,1.996,1.969,1.969,1.969,1.994,2.027,2.0304,2.0304,2.0304,2.0304,1.9726,1.8912,1.8109,1.7529,1.6934,1.6051,1.572,1.5572,1.5676,1.6405,1.7152,1.7572,1.7274,1.6625,1.5525,1.4103,1.2783,1.199,1.1108,0.0,0.0,0.0,0.0,0.0,0.7943,0.7749,0.7354,0.6568,0.6097,0.6138,0.5247,0.4492,0.4042,0.279,0.1792,0.1122,0.0561,0.0112,-0.0224,-0.0673,-0.1177,-0.179,-0.2683,-0.3569,-0.4443,-0.521,-0.5492,-0.5441,-0.6041,-0.8159,-1.131,-1.1918,-1.2379,-1.2716,-1.311,-1.3367,-1.3634,-1.4926,-1.541,-1.5478,-1.5478,-1.5527,-1.5831,2.4787,2.4972,2.5156,0.0,2.5282,2.5303,0.0,0.0,0.0,0.0,2.986,3.0398,3.0398,3.0266,3.0083,2.9792,2.9588,0.0,0.0,0.0,0.0,2.43,2.4247,2.4266,2.4266,2.4266,2.4376,2.4549,2.4692,2.4787,2.4768,2.4631,2.4446,2.4266,0.0,2.3852,2.323,2.2392,2.2015,2.1986,2.1495,2.0958,2.0373,1.9904,1.969,1.969,1.969,1.9762,1.9904,2.02,2.0304,2.0304,2.0304,1.953,1.8542,1.8043,1.7073,1.6175,1.6293,1.6256,1.6361,1.6873,1.7504,1.8027,1.8277,1.776,1.6902,1.5823,1.447,1.317,1.2314,1.1719,1.1167,0.0,0.0,0.0,0.0,0.0,0.7475,0.7131,0.7006,0.6829,0.6438,0.5772,0.5032,0.422,0.3236,0.2238,0.1178,0.0785,0.028,-0.0336,-0.0785,-0.1401,-0.2071,-0.3234,-0.4229,-0.5054,-0.6046,-0.6701,-0.6972,-0.7563,-0.9079,-1.1361,-1.2297,-1.2749,-1.2914,-1.3653,-1.4203,-1.461,-1.5216,-1.571,-1.6134,-1.6134,-1.7342,-1.8892,2.4599,2.4889,0.0,2.518,0.0,0.0,2.5303,2.6572,0.0,3.0148,3.0398,0.0,3.0324,3.0171,2.9924,2.9588,2.9347,0.0,2.9017,0.0,0.0,2.6202,2.4678,2.3891,2.3891,2.3994,0.0,2.4192,2.4479,2.4615,2.4615,2.4551,2.4394,2.4263,0.0,2.5028,2.285,2.194,2.1691,2.184,2.1293,2.0761,0.0,1.9869,1.969,1.969,1.969,1.969,1.9726,1.994,2.0045,2.0045,2.0045,1.9325,1.8439,1.8003,1.773,1.7525,1.7465,1.7452,1.7544,1.7987,1.8247,1.8422,1.8461,1.7827,1.6928,1.5891,1.463,1.3457,1.2745,1.2166,1.1414,0.0,0.0,0.0,0.0,0.0,0.7508,0.7074,0.738,0.7396,0.6804,0.6278,0.5558,0.4494,0.3566,0.2516,0.1234,0.0898,0.0336,-0.0393,-0.0842,-0.1514,-0.2296,-0.3514,-0.4615,-0.5601,-0.6539,-0.7306,-0.7943,-0.8725,-0.9969,-1.153,-1.2627,-1.3057,-1.304,-1.4033,-1.4753,-1.5196,-1.5352,-1.5941,-1.6828,-1.7043,-1.8599,-2.0529,2.5074,2.5461,0.0,0.0,0.0,0.0,0.0,2.8483,0.0,3.0374,0.0,3.095,3.0839,3.0254,2.9754,2.9427,2.9152,2.8994,2.8947,2.8687,2.8536,2.8466,2.5249,2.3448,2.3448,2.3642,2.3774,0.0,0.0,2.5078,2.5078,2.4669,2.458,0.0,0.0,0.0,0.0,2.1781,2.1615,2.1911,2.115,2.0595,2.02,1.9833,1.969,1.969,1.969,1.969,1.969,1.969,1.969,1.969,1.9654,1.9026,1.8297,1.8166,1.8916,1.9623,1.8865,1.8662,1.8709,1.8737,1.8616,1.8422,1.8226,1.7572,1.6676,1.574,1.4584,1.3589,1.2967,1.2255,1.1233,0.0,0.0,0.0,0.0,0.0,0.0,0.0,0.7661,0.0,0.717,0.6778,0.6063,0.4827,0.3898,0.2736,0.1346,0.0954,0.0393,-0.0336,-0.0842,-0.1514,-0.241,-0.3569,-0.4721,-0.5869,-0.6696,-0.7515,-0.8368,-0.9451,-1.0533,-1.1681,-1.2777,-1.32,-1.3131,-1.4274,-1.502,-1.541,-1.5303,-1.6056,-1.7255,-1.8047,-1.9595,-2.1221,2.8341,0.0,0.0,0.0,0.0,2.9514,2.9514,2.9909,3.0245,3.0245,3.2499,3.409,3.4091,3.1486,2.9645,2.9427,2.9152,0.0,0.0,0.0,0.0,2.7876,2.4856,2.3168,2.3168,2.343,2.3638,0.0,0.0,2.8217,2.8143,2.5498,2.5662,0.0,0.0,0.0,2.2685,2.2237,2.1953,2.1781,2.1402,2.0646,1.9797,1.9726,1.969,1.969,1.969,1.969,1.969,1.969,1.969,1.9654,1.9325,1.8383,1.7692,1.9079,1.9649,1.9686,1.9088,1.8734,1.8548,1.8551,1.8221,1.7908,1.768,1.6912,1.6015,1.505,1.4154,1.3218,1.2412,1.136,1.042,0.9678,0.9166,0.8616,0.8056,0.0,0.0,0.0,0.7811,0.7778,0.7327,0.7089,0.6387,0.4948,0.4125,0.3016,0.1402,0.101,0.0505,-0.0224,-0.0785,-0.1401,-0.2071,-0.34,-0.4446,-0.521,-0.6317,-0.7252,-0.8008,-0.9145,-1.0182,-1.1073,-1.2172,-1.2677,-1.2782,-1.3857,-1.4715,-1.5352,-1.4852,-1.5439,-1.6848,-1.8935,-2.0355,-2.1285,2.9417,0.0,0.0,0.0,0.0,3.2886,3.2886,3.2654,3.2519,3.2604,3.3866,3.4691,3.4545,3.1534,2.945,2.9218,2.8952,2.8687,2.8406,2.8109,2.7084,2.5192,2.3542,2.2685,2.2685,2.2944,2.3271,2.3638,2.7108,2.8858,2.8957,2.742,2.7423,2.8688,0.0,2.4313,0.0,2.2056,2.1823,2.1526,2.1183,2.0512,1.969,1.969,1.969,1.969,1.969,1.969,1.969,1.9632,1.9617,1.9654,1.925,1.8054,1.7211,1.9208,1.9496,1.9171,1.9334,1.8846,1.8338,1.8474,1.7925,1.7227,1.6921,1.6157,1.5297,1.4411,1.3494,1.2589,1.1719,1.0795,1.0023,0.9559,0.8962,0.8461,0.8065,0.7905,0.7743,0.0,0.0,0.0,0.7455,0.7366,0.6642,0.5113,0.4343,0.3236,0.1624,0.1233,0.0673,0.0056,-0.0505,-0.1064,-0.179,-0.301,-0.4116,-0.505,-0.6209,-0.7139,-0.7955,-0.9093,-0.9932,-1.0502,-1.1357,-1.188,-1.2041,-1.3152,-1.37,-1.3932,-1.3941,-1.5299,-1.7446,-1.9015,-1.9998,-2.0722,3.0695,3.0987,0.0,0.0,3.3448,3.5124,3.5072,3.4752,3.4583,3.4732,3.4564,3.434,3.4148,3.1232,2.9218,2.9017,2.8761,2.8458,2.8126,2.719,2.5436,2.2735,2.2405,2.231,2.231,2.2552,2.2927,2.3424,2.6909,2.8737,2.8994,2.8994,2.8785,2.8244,2.4339,2.226,2.1661,2.154,2.1293,2.0942,2.0679,2.0204,1.969,1.969,1.969,1.969,1.969,1.969,1.969,1.9523,1.9487,1.9457,1.8988,1.7814,1.6986,1.8781,1.8784,1.8326,1.9133,1.8585,1.7897,1.8096,1.7397,1.6522,1.6057,1.5332,1.4527,1.3663,1.2667,1.171,1.1015,1.0285,0.9688,0.9307,0.8767,0.8333,0.8052,0.8004,0.7911,0.0,0.0,0.0,0.759,0.7448,0.6858,0.5437,0.4556,0.3453,0.1958,0.1456,0.0953,0.0393,0.0,-0.0616,-0.1399,-0.2567,-0.3729,-0.4948,-0.5991,-0.6977,-0.7788,-0.883,-0.9582,-1.0068,-1.0647,-1.1089,-1.1519,-1.2502,-1.2683,-1.2436,-1.3094,-1.5014,-1.7588,-1.8192,-1.8721,-1.9264,0.0,0.0,0.0,3.4471,3.4737,3.487,3.4689,3.4409,3.4245,3.4269,3.4049,3.3868,3.3842,3.0968,2.904,2.9017,2.8761,2.8362,2.7789,2.4868,2.2924,2.2366,2.231,2.231,2.231,2.2552,2.2825,2.3144,2.6817,2.8737,2.8994,2.8994,2.8576,2.7619,2.3973,2.1961,2.1309,2.0695,2.022,1.9854,1.9833,1.9747,1.969,1.969,1.969,1.969,1.969,1.969,1.9654,1.9398,1.9176,1.886,1.8228,1.7529,1.7085,1.7655,1.748,1.7257,1.7762,1.7421,1.691,1.6956,1.6414,1.58,1.5322,1.4628,1.3815,1.2754,1.1384,1.0344,1.0123,0.9562,0.9054,0.8876,0.86,0.8376,0.8351,0.8271,0.8171,0.8146,0.0,0.0,0.7688,0.7337,0.6864,0.6154,0.4995,0.3727,0.2238,0.1903,0.1456,0.0842,0.0505,-0.0056,-0.0785,-0.1956,-0.3125,-0.4301,-0.5449,-0.6376,-0.7192,-0.8019,-0.9058,-1.0094,-1.0234,-1.0799,-1.1658,-1.2343,-1.2243,-1.1747,-1.2428,-1.4072,-1.6008,-1.6079,-1.614,-1.6211,3.4293,3.4413,3.5162,3.7344,3.7549,3.7386,3.7312,3.7071,3.6196,3.4205,3.3868,3.3807,3.3807,3.0944,2.8947,2.8761,2.851,2.8109,2.7496,2.4333,2.2405,2.231,2.231,2.231,2.231,2.2422,2.2579,2.2868,2.4651,2.6634,2.8761,2.8905,2.8525,2.7531,2.3726,2.1738,2.1246,2.0595,2.008,1.969,1.969,1.969,1.969,1.969,1.969,1.969,1.969,1.969,1.9654,1.9413,1.9101,1.8745,1.7962,1.7227,1.6746,1.6978,1.675,1.6551,1.6977,1.6584,1.6044,1.6127,1.5603,1.4903,1.4536,1.3768,1.2899,1.2012,1.0771,0.9821,0.9666,0.9211,0.8857,0.8811,0.8487,0.8268,0.8268,0.8115,0.8008,0.8008,0.0,0.7723,0.7723,0.7348,0.6869,0.6376,0.5218,0.4116,0.3072,0.2517,0.2015,0.1568,0.1064,0.0448,-0.0392,-0.1621,-0.2794,-0.3965,-0.4956,-0.5837,-0.6603,-0.7289,-0.8621,-1.0363,-1.0212,-1.0703,-1.156,-1.1435,-1.1247,-1.0996,-1.131,-1.2343,-1.3688,-1.3688,-1.3688,-1.3608,3.551,3.5518,3.6337,3.8891,3.9147,3.8979,3.8979,3.8822,3.7863,3.555,3.4394,3.3807,3.3807,3.0944,2.8881,2.8612,2.8273,2.7824,2.7313,2.4147,2.231,2.231,2.231,2.231,2.231,2.231,2.2432,2.2712,2.3168,2.4665,2.7114,2.8252,2.7859,2.6103,2.3144,2.1617,2.1246,2.0595,2.008,1.969,1.969,2.0154,2.0842,2.0842,2.0363,1.969,1.969,1.9654,1.9581,1.9325,1.9026,1.8669,1.7868,1.7089,1.648,1.6402,1.6068,1.5692,1.5927,1.5478,1.5019,1.4997,1.4555,1.3967,1.3579,1.2851,1.2012,1.1116,1.0115,0.9413,0.9309,0.8956,0.8699,0.8699,0.8381,0.8115,0.8115,0.7949,0.7842,0.7794,0.7563,0.7343,0.7343,0.6918,0.649,0.6105,0.5171,0.4346,0.3738,0.3132,0.2575,0.2071,0.1454,0.0726,-0.0168,-0.1342,-0.2571,-0.3741,-0.457,-0.5348,-0.6069,-0.701,-0.8498,-1.0281,-1.0235,-1.0653,-1.1247,-1.0364,-0.9983,-0.9983,-0.9983,-1.0517,-1.1174,-1.095,-1.072,-1.0415,3.8634,3.8652,3.8652,3.8689,3.8707,3.8707,3.8707,3.8707,3.8689,3.8652,3.5807,3.3807,3.3807,3.0944,2.8881,2.8612,2.8045,2.76,2.733,2.4147,2.231,2.231,2.231,2.231,2.231,2.231,2.2432,2.2712,2.297,2.3259,2.3642,2.6764,2.6268,2.2737,2.2106,2.1617,2.1246,2.0595,2.008,1.969,1.969,2.1246,2.355,2.355,2.1934,1.969,1.969,1.9581,1.9376,1.9176,1.8822,1.8422,1.7868,1.7144,1.638,1.578,1.5165,1.4534,1.4291,1.401,1.3773,1.3478,1.3218,1.2861,1.2365,1.1814,1.1116,1.0064,0.9361,0.9008,0.9008,0.8692,0.8421,0.8421,0.8109,0.7901,0.7901,0.7783,0.767,0.7521,0.6972,0.6583,0.6416,0.5941,0.5508,0.5336,0.4791,0.4353,0.4024,0.3635,0.3021,0.224,0.1621,0.0838,-0.0168,-0.1285,-0.2402,-0.3627,-0.4353,-0.5018,-0.5686,-0.7512,-0.8786,-0.9548,-1.0301,-1.0618,-1.0498,-0.9092,-0.8517,-0.8517,-0.8517,-0.8602,-0.8623,-0.7863,-0.7026,-0.6338,3.8707,3.8707,3.8707,3.8707,3.8707,3.8707,3.8707,3.8707,3.8707,3.8707,3.5844,3.3807,3.3807,3.2889,3.1206,2.8551,2.7933,2.7461,2.694,2.5893,2.4408,2.2395,2.231,2.231,2.231,2.231,2.2338,2.2432,2.2685,2.2952,2.3234,2.4247,2.3894,2.2405,2.1738,2.1277,2.0925,2.0509,2.008,1.9839,2.1635,2.2862,2.3595,2.3595,2.2532,2.0932,2.0019,1.9632,1.9501,1.9101,1.8655,1.808,1.7216,1.657,1.5988,1.5153,1.4523,1.3952,1.36,1.3324,1.3035,1.2667,1.2433,1.2049,1.1425,1.0618,0.9865,0.9361,0.9061,0.8857,0.8857,0.8685,0.8521,0.8521,0.8321,0.8062,0.7901,0.7622,0.7289,0.6912,0.6253,0.5701,0.5257,0.4604,0.411,0.3828,0.3448,0.3511,0.3965,0.3408,0.274,0.2071,0.1285,0.0391,-0.067,-0.173,-0.2736,-0.3627,-0.4353,-0.5077,-0.5795,-0.6965,-0.7988,-0.8835,-0.856,-0.849,-0.8431,-0.7977,-0.7787,-0.7787,-0.7269,-0.6483,-0.5547,-0.4498,-0.3912,-0.368,3.8707,3.8707,3.8707,3.8707,3.8707,3.8707,3.8707,3.8707,3.8267,3.7019,3.5073,3.3807,3.3807,3.3698,3.2183,2.8522,2.7795,2.7324,2.6725,2.6691,2.5879,2.4036,2.3951,2.3951,2.3951,2.3951,2.3951,2.3951,2.3551,2.3209,2.2944,2.2842,2.248,2.1953,2.2459,2.2464,2.2108,2.1688,2.1386,2.1306,2.2936,2.3595,2.3595,2.3595,2.2503,2.0827,1.9989,1.9596,1.9376,1.9026,1.8447,1.772,1.6841,1.6083,1.5355,1.4651,1.4093,1.3573,1.3132,1.2803,1.2412,1.199,1.1601,1.1158,1.0423,0.9762,0.9211,0.9061,0.891,0.8804,0.8804,0.8692,0.8626,0.8626,0.8368,0.8109,0.7842,0.7348,0.6799,0.6258,0.5374,0.4491,0.3825,0.3051,0.2443,0.2109,0.1944,0.2058,0.2621,0.251,0.2122,0.1398,0.0559,-0.0335,-0.1229,-0.2233,-0.307,-0.3683,-0.4463,-0.5128,-0.5736,-0.644,-0.6961,-0.7267,-0.6874,-0.6736,-0.6736,-0.6736,-0.6736,-0.6609,-0.5885,-0.4758,-0.3322,-0.2031,-0.1411,-0.1113,3.8707,3.8707,3.8707,3.8707,3.8707,3.8707,3.8707,3.8707,3.7533,3.4229,3.3807,3.3788,3.378,3.352,3.2054,2.8742,2.7727,2.7137,2.6725,2.6691,2.6691,2.6691,2.6691,2.6691,2.6691,2.6691,2.6691,2.6691,2.5255,2.3977,2.2887,2.2655,2.2172,2.1666,2.3962,2.4726,2.4261,2.3867,2.3681,2.3638,2.3638,2.3638,2.3595,2.3595,2.2024,1.9809,1.972,1.9435,1.9101,1.8936,1.8293,1.7404,1.6748,1.5715,1.4706,1.4291,1.38,1.3276,1.2822,1.2382,1.1977,1.1418,1.0812,1.0138,0.9517,0.9159,0.9008,0.9008,0.891,0.8804,0.8804,0.8692,0.8626,0.8626,0.8368,0.8055,0.7723,0.702,0.6258,0.5542,0.4271,0.3111,0.2223,0.1335,0.0668,0.0334,0.0278,0.0279,0.0279,0.0948,0.1059,0.0335,-0.0559,-0.1285,-0.1902,-0.274,-0.3408,-0.3852,-0.468,-0.5234,-0.5563,-0.6009,-0.585,-0.5282,-0.5357,-0.5362,-0.5296,-0.5296,-0.5296,-0.516,-0.4431,-0.3295,-0.1952,-0.0404,0.0606,0.1143,3.8707,3.8707,3.8707,3.8707,3.8707,3.8707,3.8707,3.8707,3.7533,3.4229,3.3807,3.3726,3.3538,3.3196,3.2453,3.1046,2.8708,2.7137,2.6725,2.6691,2.6691,2.6691,2.6691,2.6691,2.6691,2.6691,2.6691,2.6691,2.6236,2.5612,2.4903,2.4865,2.458,2.4115,2.4349,2.4385,2.4317,2.4549,2.4467,2.4135,2.4135,2.3909,2.3595,2.3595,2.2607,2.1081,1.9879,1.9376,1.9176,1.8745,1.8316,1.78,1.6921,1.628,1.5586,1.4296,1.3536,1.3065,1.2676,1.2332,1.1927,1.1175,1.0249,0.942,0.9166,0.8962,0.8857,0.8857,0.8804,0.8804,0.8804,0.8752,0.8745,0.8626,0.8368,0.8002,0.745,0.6583,0.5664,0.4842,0.345,0.2173,0.1283,0.0279,-0.0504,-0.0896,-0.0896,-0.0952,-0.1121,-0.0952,-0.0783,-0.0614,-0.1454,-0.2181,-0.2794,-0.3463,-0.4021,-0.4467,-0.4791,-0.5066,-0.5234,-0.5681,-0.5686,-0.5282,-0.5357,-0.5096,-0.4564,-0.4564,-0.4231,-0.3627,-0.2958,-0.2151,-0.1143,0.0942,0.1817,0.1884,3.8707,3.8707,3.8707,3.8707,3.8707,3.8707,3.8707,3.8707,3.7533,3.4229,3.3807,3.3698,3.3422,3.2948,3.2422,3.1873,2.887,2.6925,2.6725,2.6691,2.6691,2.6691,2.6691,2.6691,2.6691,2.6691,2.6691,2.6691,2.6521,2.6191,2.579,2.5647,2.5278,2.4686,2.4426,2.4426,2.4645,2.5084,2.5005,2.4589,2.44,2.4036,2.3475,2.2263,2.1341,2.0584,2.0068,1.9715,1.944,1.9274,1.8803,1.8177,1.7446,1.6701,1.5936,1.4836,1.4047,1.3313,1.2675,1.2274,1.1769,1.0651,0.9777,0.9159,0.8956,0.891,0.891,0.891,0.8962,0.8956,0.891,0.8857,0.8752,0.8527,0.8209,0.7783,0.7192,0.6209,0.5226,0.4294,0.2901,0.162,0.0671,-0.0224,-0.0897,-0.1176,-0.1232,-0.1177,-0.1178,-0.1234,-0.1345,-0.151,-0.2181,-0.2796,-0.3302,-0.3858,-0.4301,-0.4691,-0.4794,-0.4904,-0.5014,-0.5124,-0.5183,-0.5093,-0.4753,-0.4284,-0.3763,-0.3496,-0.3092,-0.269,-0.1951,-0.1008,0.0134,0.195,0.269,0.2555,3.8707,3.8707,3.8707,3.8707,3.8707,3.8707,3.8707,3.8255,3.6905,3.4119,3.3698,3.3559,3.3274,3.2674,3.2143,3.1763,2.9055,2.7182,2.6725,2.6691,2.6691,2.6691,2.6691,2.6691,2.6691,2.6691,2.6691,2.6691,2.6435,2.6195,2.5994,2.5746,2.5185,2.4385,2.4385,2.467,2.5123,2.5464,2.5371,2.4966,2.4467,2.4036,2.3355,2.1126,1.9923,1.9516,2.0084,2.0114,1.9905,2.0045,1.9458,1.855,1.8028,1.7199,1.6298,1.5769,1.4904,1.3922,1.2888,1.2172,1.1418,1.0123,0.951,0.9113,0.8857,0.891,0.9008,0.9008,0.9106,0.9113,0.9008,0.8857,0.8646,0.8315,0.7883,0.7402,0.682,0.5882,0.4838,0.3907,0.2627,0.1455,0.0448,-0.028,-0.0784,-0.0894,-0.0894,-0.0783,-0.056,-0.0672,-0.112,-0.1902,-0.2516,-0.3132,-0.3697,-0.4082,-0.4411,-0.4743,-0.4743,-0.4794,-0.4846,-0.4515,-0.4515,-0.4736,-0.3858,-0.328,-0.295,-0.2296,-0.1968,-0.1836,-0.118,-0.0132,0.1277,0.2554,0.3027,0.2958,3.8707,3.8707,3.8707,3.8707,3.8707,3.8707,3.8707,3.6152,3.4043,3.3524,3.3226,3.2916,3.2592,3.2161,3.1726,3.1346,3.0806,2.9414,2.686,2.6691,2.6691,2.6691,2.6691,2.6691,2.6691,2.6691,2.6691,2.6691,2.6469,2.6279,2.609,2.5754,2.5333,2.4886,2.4886,2.5123,2.5502,2.5578,2.5371,2.4966,2.4467,2.4036,2.355,2.3146,2.162,1.9632,1.9397,1.9924,2.0636,2.0216,1.9767,1.9198,1.8462,1.8104,1.7741,1.6727,1.5914,1.5096,1.3562,1.2121,1.0863,1.002,0.951,0.9113,0.8857,0.891,0.9008,0.9008,0.9008,0.9008,0.8857,0.8639,0.8315,0.7883,0.7456,0.6923,0.6218,0.5391,0.4508,0.3735,0.2627,0.1734,0.1174,0.0559,0.0168,0.0,0.0,0.0,0.0056,0.0056,-0.0168,-0.067,-0.1902,-0.3077,-0.4082,-0.4356,-0.4574,-0.4846,-0.4846,-0.4736,-0.4574,-0.4184,-0.4021,-0.4076,-0.319,-0.2552,-0.1969,-0.133,-0.0809,-0.0347,-0.0231,0.037,0.121,0.2018,0.2356,0.2221,3.8707,3.8707,3.8707,3.8707,3.8707,3.8645,3.8455,3.5408,3.3091,3.2902,3.274,3.2507,3.2126,3.191,3.1651,3.123,3.119,3.0598,2.9211,2.7588,2.6691,2.6691,2.6691,2.6691,2.6691,2.6691,2.6691,2.6691,2.6607,2.642,2.6132,2.5779,2.5371,2.5005,2.5005,2.5084,2.5294,2.5294,2.5005,2.4589,2.412,2.3782,2.361,2.348,2.1997,2.0067,2.0338,2.0599,2.0751,2.0577,2.0312,1.9861,1.9142,1.8677,1.8286,1.7409,1.604,1.4439,1.3133,1.1904,1.0737,0.9918,0.9413,0.9061,0.8857,0.8956,0.9113,0.9113,0.9113,0.9061,0.8844,0.8362,0.7883,0.7456,0.6864,0.6327,0.5841,0.5175,0.446,0.3793,0.3072,0.2404,0.1846,0.151,0.1342,0.1285,0.1396,0.1451,0.1563,0.1397,0.1062,0.0559,-0.1507,-0.3074,-0.3965,-0.4408,-0.4739,-0.5011,-0.5011,-0.4849,-0.4577,-0.4132,-0.3741,-0.3294,-0.2856,-0.2186,-0.129,-0.0673,-0.0224,0.0,0.0,0.0407,0.1049,0.1447,0.1614,0.1412,3.8707,3.8707,3.8707,3.8707,3.8645,3.8488,3.8106,3.5052,3.2674,3.2319,3.2179,3.1982,3.1671,3.1651,3.1538,3.123,3.119,3.119,3.119,2.8366,2.6691,2.6691,2.6691,2.6691,2.6691,2.6624,2.6572,2.6572,2.6487,2.6386,2.632,2.5819,2.5333,2.4846,2.4846,2.4846,2.4846,2.4846,2.4549,2.4135,2.3739,2.3595,2.3551,2.3172,2.2177,2.0953,2.1411,2.1184,2.0702,2.0686,2.0498,2.0144,1.9577,1.8987,1.8506,1.7865,1.5991,1.3891,1.278,1.173,1.0739,0.9895,0.9313,0.8956,0.8857,0.8956,0.9159,0.9106,0.9106,0.8942,0.862,0.7984,0.7348,0.6923,0.6268,0.5727,0.5454,0.4963,0.4463,0.3907,0.3519,0.3074,0.2575,0.2519,0.2519,0.2519,0.2683,0.2792,0.285,0.2573,0.2014,0.1118,-0.1228,-0.2858,-0.3784,-0.4402,-0.4927,-0.5358,-0.5358,-0.5133,-0.4798,-0.4307,-0.3543,-0.2683,-0.2575,-0.1793,-0.0673,-0.0168,0.0,0.0,0.0,0.0286,0.0713,0.0782,0.0875,0.0605,3.8707,3.8707,3.8707,3.8707,3.8437,3.8106,3.7685,3.4694,3.2284,3.191,3.1538,3.1269,3.123,3.123,3.123,3.119,3.119,3.119,3.119,2.8366,2.6691,2.6691,2.6691,2.6691,2.6691,2.6399,2.6239,2.6239,2.586,2.601,2.6641,2.5937,2.5162,2.4343,2.4343,2.4343,2.4343,2.4343,2.4078,2.3638,2.3595,2.3595,2.3508,2.2632,2.2452,2.2563,2.1744,2.1099,2.062,2.0042,1.985,1.9747,1.9344,1.8922,1.8506,1.7865,1.6317,1.4559,1.3416,1.2014,1.0632,1.002,0.9428,0.8956,0.8857,0.8903,0.8956,0.8857,0.8745,0.8468,0.7883,0.7343,0.675,0.6164,0.5668,0.5281,0.5007,0.468,0.4408,0.4021,0.3852,0.3688,0.3527,0.3471,0.3471,0.3471,0.3527,0.3471,0.3357,0.3132,0.2235,0.0503,-0.095,-0.2382,-0.3798,-0.4432,-0.5199,-0.6015,-0.6015,-0.5719,-0.5115,-0.4552,-0.368,-0.2689,-0.2127,-0.1175,-0.0056,0.0,0.0,0.0,0.0,0.0,0.0067,0.0067,0.0067,-0.0135,3.8707,3.8707,3.8627,3.8423,3.8072,3.7703,3.7279,3.5854,3.4673,3.4226,3.2422,3.119,3.119,3.119,3.119,3.119,3.119,3.119,3.119,3.0125,2.8653,2.6776,2.6691,2.6607,2.6382,2.6007,2.5712,2.547,2.5278,2.5224,2.5198,2.4934,2.4549,2.4109,2.4109,2.4135,2.4177,2.4193,2.4067,2.3839,2.3523,2.3127,2.2709,2.2402,2.2184,2.1949,2.1746,2.1215,2.0573,2.0003,1.9604,1.9324,1.9492,1.9168,1.8452,1.7201,1.5645,1.4109,1.3032,1.1988,1.0895,0.9875,0.9371,0.9079,0.8851,0.891,0.8956,0.8804,0.854,0.8209,0.7658,0.6912,0.6213,0.5837,0.5289,0.4904,0.4794,0.4629,0.4408,0.4135,0.4079,0.3968,0.3858,0.3916,0.3971,0.3971,0.3971,0.3916,0.3802,0.2907,0.1732,0.0335,-0.0838,-0.2023,-0.3359,-0.4292,-0.5006,-0.5479,-0.5767,-0.5638,-0.515,-0.473,-0.396,-0.2848,-0.2279,-0.1456,-0.0505,-0.0168,0.0,0.0,0.0,0.0,0.0,0.0,-0.0269,-0.0807,3.8707,3.8707,3.8596,3.8259,3.7775,3.7279,3.6851,3.6385,3.5958,3.5667,3.3846,3.2577,3.2577,3.1749,3.119,3.119,3.119,3.119,3.119,3.119,2.9837,2.6826,2.6691,2.6538,2.622,2.5803,2.5333,2.4766,2.463,2.4385,2.4078,2.4078,2.4009,2.3882,2.3982,2.4009,2.3994,2.4067,2.3982,2.3839,2.3451,2.2859,2.2184,2.2231,2.1793,2.1166,2.141,2.1006,2.0308,1.9901,1.9448,1.9066,1.9371,1.8931,1.7923,1.6447,1.5004,1.3674,1.2597,1.1821,1.1099,0.9978,0.9559,0.9305,0.9011,0.8991,0.8965,0.8665,0.8321,0.7836,0.7224,0.6426,0.5749,0.5421,0.4986,0.4724,0.4773,0.4622,0.4535,0.4369,0.433,0.4265,0.4251,0.4313,0.4332,0.4321,0.4226,0.3958,0.3469,0.2235,0.1062,-0.0112,-0.1117,-0.2124,-0.3074,-0.4095,-0.4735,-0.5124,-0.5483,-0.5377,-0.4922,-0.4631,-0.3928,-0.2925,-0.2484,-0.1791,-0.0986,-0.0296,0.0,0.0,-0.0261,-0.0337,-0.0404,-0.0606,-0.101,-0.1547,3.8707,3.8707,3.8614,3.8259,3.754,3.6851,3.6385,3.5915,3.5622,3.5622,3.5622,3.5622,3.5622,3.3,3.1224,3.1224,3.1207,3.119,3.119,3.119,2.9854,2.686,2.6708,2.6538,2.622,2.5803,2.5162,2.4302,2.3824,2.3595,2.3595,2.3595,2.3595,2.3595,2.3882,2.3925,2.3797,2.394,2.3839,2.3551,2.3392,2.2859,2.2184,2.1996,2.1348,2.061,2.0835,2.0435,1.9798,1.9798,1.9448,1.9,1.8965,1.8075,1.6767,1.5619,1.4538,1.339,1.2174,1.1553,1.1169,1.056,1.0078,0.9613,0.9256,0.919,0.8993,0.8337,0.7949,0.7402,0.6376,0.5891,0.5469,0.4962,0.481,0.4745,0.4897,0.4789,0.4694,0.4694,0.4558,0.458,0.4677,0.4694,0.4693,0.4594,0.4361,0.3593,0.2244,0.123,0.0223,-0.0894,-0.1953,-0.2681,-0.3074,-0.392,-0.4594,-0.5195,-0.5195,-0.4951,-0.4556,-0.4105,-0.354,-0.2893,-0.2563,-0.2039,-0.1304,-0.0395,0.0,-0.0067,-0.0807,-0.1143,-0.121,-0.1951,-0.2221,-0.2288,3.8707,3.8707,3.8501,3.7881,3.7354,3.6731,3.5915,3.5711,3.5622,3.5622,3.5622,3.5622,3.5622,3.4827,3.4303,3.4303,3.2391,3.119,3.119,3.119,3.0801,2.9888,2.7824,2.6538,2.622,2.5524,2.4886,2.4302,2.3824,2.3595,2.3595,2.3595,2.3595,2.3595,2.3696,2.3696,2.3653,2.3696,2.361,2.3451,2.3216,2.2678,2.1996,2.1746,2.1307,2.0703,2.0573,2.0333,1.9991,1.9423,1.8881,1.8377,1.8321,1.7771,1.6874,1.5679,1.4141,1.2715,1.2086,1.1411,1.0676,1.0194,0.9933,0.9735,0.9279,0.9208,0.9068,0.8636,0.8098,0.7459,0.676,0.6065,0.5502,0.5076,0.4906,0.4867,0.4911,0.488,0.485,0.485,0.4809,0.4802,0.4847,0.4727,0.4559,0.4479,0.3469,0.2392,0.1217,0.0231,-0.0744,-0.1792,-0.2516,-0.3128,-0.3574,-0.3923,-0.413,-0.417,-0.4385,-0.4367,-0.4023,-0.3723,-0.3447,-0.3117,-0.3027,-0.2558,-0.1841,-0.0536,-0.0337,-0.0875,-0.1615,-0.2151,-0.2621,-0.2824,-0.3228,-0.3696,3.8676,3.8614,3.8307,3.7703,3.7108,3.6468,3.5711,3.5622,3.5622,3.5622,3.5622,3.5622,3.5622,3.5622,3.5622,3.5622,3.3981,3.2459,3.1275,3.119,3.119,3.119,2.9448,2.7748,2.6236,2.5562,2.5005,2.4589,2.412,2.3867,2.3867,2.3696,2.3595,2.3595,2.3595,2.3595,2.3595,2.3595,2.3523,2.3407,2.3143,2.2606,2.1996,2.1616,2.1126,2.067,2.0592,2.0436,2.0112,1.9377,1.8879,1.8392,1.7948,1.7451,1.6855,1.5605,1.4112,1.2693,1.2102,1.1366,1.0633,0.9964,0.9819,0.9729,0.9396,0.9207,0.9051,0.8522,0.7968,0.7369,0.6653,0.5992,0.5472,0.5171,0.5061,0.5026,0.5084,0.504,0.5003,0.5003,0.4952,0.4942,0.4996,0.4817,0.4439,0.381,0.2561,0.1295,0.012,-0.0897,-0.1827,-0.2628,-0.3194,-0.3626,-0.3855,-0.3877,-0.3773,-0.3569,-0.3506,-0.3356,-0.3157,-0.2887,-0.2686,-0.2622,-0.2757,-0.2555,-0.2087,-0.0942,-0.0875,-0.1614,-0.2287,-0.3025,-0.3694,-0.3961,-0.4361,-0.4764,3.8627,3.8437,3.8072,3.7667,3.6895,3.6216,3.5739,3.5622,3.5622,3.5622,3.5622,3.5622,3.5622,3.5622,3.5622,3.5622,3.5622,3.4472,3.1765,3.1343,3.119,3.119,3.119,2.977,2.6723,2.5971,2.541,2.5045,2.4605,2.4343,2.4302,2.3824,2.3595,2.361,2.3729,2.3759,2.3714,2.3699,2.3627,2.3525,2.3069,2.2579,2.2091,2.1477,2.0914,2.0489,2.083,2.0697,2.0297,1.9655,1.9242,1.8808,1.7872,1.7166,1.6582,1.5463,1.4217,1.3005,1.2072,1.1443,1.0816,0.9914,0.9718,0.9576,0.9377,0.9174,0.8851,0.8138,0.7724,0.7185,0.6289,0.5864,0.5486,0.5191,0.5152,0.5199,0.5342,0.524,0.5152,0.5152,0.5036,0.5009,0.5075,0.49,0.419,0.2768,0.1545,0.0318,-0.099,-0.2099,-0.2924,-0.3367,-0.3951,-0.4186,-0.4061,-0.3781,-0.355,-0.3388,-0.2651,-0.2291,-0.2154,-0.1748,-0.1614,-0.1749,-0.1952,-0.2087,-0.2085,-0.148,-0.1681,-0.2488,-0.3226,-0.3961,-0.4697,-0.5359,-0.5561,-0.569,3.8627,3.8437,3.8072,3.7667,3.7203,3.669,3.6216,3.5827,3.5622,3.5622,3.5622,3.5622,3.5622,3.5622,3.5622,3.5622,3.5622,3.5351,3.4709,3.2476,3.119,3.119,3.119,3.0847,3.0128,2.7175,2.5578,2.5448,2.5045,2.4686,2.4302,2.3824,2.3595,2.3655,2.4702,2.4986,2.4702,2.4492,2.4282,2.4072,2.3138,2.2374,2.1848,2.169,2.1329,2.097,2.1087,2.1165,2.1016,2.0195,1.9189,1.8212,1.794,1.7028,1.5807,1.4735,1.3585,1.2509,1.1556,1.0829,1.0154,0.9876,0.9226,0.865,0.8683,0.8692,0.8484,0.8106,0.758,0.7067,0.6432,0.5906,0.5528,0.537,0.5311,0.5321,0.5422,0.5332,0.5311,0.5311,0.5284,0.5212,0.5104,0.418,0.3053,0.1725,0.0531,-0.0721,-0.2105,-0.2927,-0.3641,-0.42,-0.4442,-0.461,-0.47,-0.4099,-0.3583,-0.314,-0.2402,-0.1908,-0.1681,-0.121,-0.1076,-0.121,-0.101,-0.1077,-0.1345,-0.1817,-0.269,-0.3964,-0.5223,-0.6145,-0.6802,-0.6999,-0.7064,-0.7129,3.8715,3.9524,3.9842,3.7917,3.7279,3.6851,3.6385,3.5915,3.5622,3.5622,3.5622,3.5622,3.5622,3.5622,3.5532,3.5304,3.5008,3.4897,3.4897,3.3442,3.1967,3.0634,3.0773,3.0855,3.0855,2.9154,2.7503,2.5877,2.5278,2.4766,2.4302,2.3824,2.3595,2.3625,2.4328,2.4881,2.5285,2.5359,2.5072,2.441,2.3775,2.315,2.2605,2.2207,2.1764,2.1395,2.1468,2.1595,2.167,2.088,1.9462,1.8008,1.8008,1.6881,1.5338,1.4474,1.3513,1.2445,1.1301,1.0513,0.9768,0.9119,0.8586,0.8229,0.8356,0.8225,0.8041,0.774,0.7419,0.7005,0.6462,0.6051,0.5754,0.5549,0.5471,0.5443,0.5439,0.5428,0.5428,0.5428,0.5292,0.5049,0.4507,0.3417,0.213,0.0766,-0.0696,-0.1927,-0.3086,-0.388,-0.4395,-0.4653,-0.483,-0.4924,-0.4918,-0.4305,-0.3843,-0.3393,-0.2265,-0.1612,-0.1344,-0.0807,-0.0539,-0.0606,-0.0539,-0.0943,-0.1681,-0.2757,-0.4028,-0.5425,-0.6876,-0.7857,-0.8436,-0.8436,-0.8689,-0.9069,3.9514,4.1161,4.2049,3.9012,3.8191,3.7544,3.6454,3.5915,3.5622,3.5622,3.5622,3.5622,3.5622,3.5441,3.5148,3.4691,3.4201,3.3949,3.3949,3.3949,3.2692,2.9899,3.0189,3.0443,3.0526,3.0935,2.9799,2.6949,2.5635,2.4766,2.4302,2.3824,2.3834,2.4268,2.4268,2.4896,2.5974,2.6333,2.6031,2.5153,2.4699,2.4176,2.3585,2.2808,2.2227,2.185,2.1897,2.1983,2.1937,2.1423,1.9781,1.8008,1.8008,1.6751,1.5133,1.4186,1.3317,1.2372,1.0962,1.0218,0.9492,0.8412,0.8056,0.8075,0.8082,0.7864,0.7601,0.7345,0.7233,0.6944,0.6373,0.6165,0.5983,0.5647,0.5627,0.5583,0.5454,0.5437,0.543,0.5403,0.5173,0.4672,0.3765,0.2586,0.1271,-0.0217,-0.1814,-0.3094,-0.4019,-0.4688,-0.5058,-0.5032,-0.5122,-0.5114,-0.4996,-0.4559,-0.4173,-0.395,-0.2528,-0.1642,-0.121,-0.0673,-0.0337,-0.0135,-0.0472,-0.1279,-0.249,-0.4028,-0.5491,-0.6876,-0.8187,-0.9157,-0.9862,-1.011,-1.0548,-1.1178,4.2339,4.2886,4.3158,4.2321,4.1827,4.0394,3.6824,3.5915,3.5622,3.5622,3.5622,3.5622,3.5622,3.4802,3.4101,3.3555,3.345,3.3398,3.3398,3.3398,3.2146,2.934,2.971,3.0146,3.0468,3.0935,3.079,2.993,2.6623,2.4766,2.4302,2.3824,2.4822,2.7085,2.7085,2.7141,2.7305,2.7415,2.732,2.7101,2.5583,2.4581,2.3876,2.3289,2.2794,2.2375,2.2346,2.1916,2.1296,2.1221,1.9781,1.8008,1.8008,1.6968,1.5284,1.3171,1.2137,1.1397,1.0143,0.9549,0.9165,0.8295,0.793,0.7768,0.7462,0.7453,0.742,0.7015,0.6809,0.6599,0.6169,0.5946,0.5796,0.5776,0.5772,0.5766,0.5745,0.5742,0.5694,0.5576,0.5033,0.4268,0.3344,0.1954,0.0424,-0.1015,-0.2543,-0.3846,-0.4778,-0.5093,-0.5359,-0.5532,-0.5399,-0.5321,-0.5301,-0.4907,-0.465,-0.4466,-0.3666,-0.2741,-0.1749,-0.1211,-0.0808,-0.0472,-0.0875,-0.1816,-0.3226,-0.5289,-0.6942,-0.8317,-0.9098,-1.0174,-1.1428,-1.2528,-1.3017,-1.3139,4.2882,4.3032,4.305,4.2631,4.2187,4.1217,3.9195,3.844,3.8108,3.8108,3.6654,3.5487,3.5258,3.4284,3.3435,3.285,3.2468,3.2302,3.2302,3.2302,3.1726,3.0464,2.98,2.9665,3.0146,3.0855,3.0855,3.0146,2.8238,2.6878,2.6152,2.5918,2.6486,2.7625,2.7625,2.7625,2.7625,2.7625,2.7625,2.7509,2.6657,2.5771,2.4955,2.4066,2.3476,2.3048,2.2457,2.18,2.1031,1.9846,1.8798,1.8008,1.8008,1.6978,1.5363,1.3251,1.207,1.1242,1.0067,0.9549,0.917,0.8403,0.8183,0.8067,0.7778,0.7744,0.7624,0.6876,0.6652,0.6506,0.6286,0.6207,0.6176,0.6086,0.6148,0.619,0.6172,0.6022,0.5854,0.5432,0.4947,0.4257,0.3207,0.1606,0.0,-0.1512,-0.303,-0.4293,-0.5202,-0.5428,-0.5542,-0.5596,-0.5525,-0.5514,-0.5488,-0.5355,-0.5286,-0.5348,-0.5011,-0.4082,-0.2618,-0.2348,-0.2147,-0.1812,-0.1747,-0.2487,-0.3961,-0.6145,-0.7596,-0.8582,-0.967,-1.117,-1.2842,-1.4519,-1.5118,-1.5118]},{"header":{"parameterUnit":"m.s-1","parameterCategory":1,"la1":30.6,"la2":28.766,"lo1":-90.7593,"lo2":-88.6598,"dy":0.0162,"dx":0.0183,"nx":116,"ny":114,"refTime":"2023-09-26T00:00:00:Z","depth":0,"parameterNumber":3,"parameterNumberName":"V-component_of_WINDS"},"data":[0.0,0.0,0.0,0.0,0.0,0.0,0.0,0.0,0.0,0.0,0.0,0.0,0.0,0.0,0.0,0.0,0.0,0.0,0.0,0.0,0.0,0.0,0.0,0.0,0.0,0.0,0.0,0.0,0.0,0.0,0.0,0.0,0.0,0.0,0.0,0.0,0.0,0.0,0.0,0.0,0.0,0.0,0.0,0.0,0.0,0.0,0.0,0.0,0.0,0.0,0.0,0.0,0.0,0.0,0.0,0.0,0.0,0.0,0.0,0.0,0.0,0.0,0.0,0.0,0.0,0.0,0.0,0.0,0.0,0.0,0.0,0.0,0.0,0.0,0.0,0.0,0.0,0.0,0.0,0.0,0.0,0.0,0.0,0.0,0.0,0.0,0.0,0.0,0.0,0.0,0.0,0.0,0.0,0.0,0.0,0.0,0.0,0.0,0.0,0.0,0.0,0.0,0.0,0.0,0.0,0.0,0.0,0.0,0.0,0.0,0.0,0.0,0.0,0.0,0.0,0.0,0.0,0.0,0.0,0.0,0.0,0.0,0.0,0.0,0.0,0.0,0.0,0.0,0.0,0.0,0.0,0.0,0.0,0.0,0.0,0.0,0.0,0.0,0.0,0.0,0.0,0.0,0.0,0.0,0.0,0.0,0.0,0.0,0.0,0.0,0.0,0.0,0.0,0.0,0.0,0.0,0.0,0.0,0.0,0.0,0.0,0.0,0.0,0.0,0.0,0.0,0.0,0.0,0.0,0.0,0.0,0.0,0.0,0.0,0.0,0.0,0.0,0.0,0.0,0.0,0.0,0.0,0.0,0.0,0.0,0.0,0.0,0.0,0.0,0.0,0.0,0.0,0.0,0.0,0.0,0.0,0.0,0.0,0.0,0.0,0.0,0.0,0.0,0.0,0.0,0.0,0.0,0.0,0.0,0.0,0.0,0.0,0.0,0.0,0.0,0.0,0.0,0.0,0.0,0.0,0.0,0.0,0.0,0.0,0.0,0.0,0.0,0.0,0.0,0.0,0.0,0.0,0.0,0.0,0.0,0.0,0.0,0.0,0.0,0.0,0.0,0.0,0.0,0.0,0.0,0.0,0.0,0.0,0.0,0.0,0.0,0.0,0.0,0.0,0.0,0.0,0.0,0.0,0.0,0.0,0.0,0.0,0.0,0.0,0.0,0.0,0.0,0.0,0.0,0.0,0.0,0.0,0.0,0.0,0.0,0.0,0.0,0.0,0.0,0.0,0.0,0.0,0.0,0.0,0.0,0.0,0.0,0.0,0.0,0.0,0.0,0.0,0.0,0.0,0.0,0.0,0.0,0.0,0.0,0.0,0.0,0.0,0.0,0.0,0.0,0.0,0.0,0.0,0.0,0.0,0.0,0.0,0.0,0.0,0.0,0.0,0.0,0.0,0.0,0.0,0.0,0.0,0.0,0.0,0.0,0.0,0.0,0.0,0.0,0.0,0.0,0.0,0.0,0.0,0.0,0.0,0.0,0.0,0.0,0.0,0.0,0.0,0.0,0.0,0.0,0.0,0.0,0.0,0.0,0.0,0.0,0.0,0.0,0.0,0.0,0.0,0.0,0.0,0.0,0.0,0.0,0.0,0.0,0.0,0.0,0.0,0.0,0.0,0.0,0.0,0.0,0.0,0.0,0.0,0.0,0.0,0.0,0.0,0.0,0.0,0.0,0.0,0.0,0.0,0.0,0.0,0.0,0.0,0.0,0.0,0.0,0.0,0.0,0.0,0.0,0.0,0.0,0.0,0.0,0.0,0.0,0.0,0.0,0.0,0.0,0.0,0.0,0.0,0.0,0.0,0.0,0.0,0.0,0.0,0.0,0.0,0.0,0.0,0.0,0.0,0.0,0.0,0.0,0.0,0.0,0.0,0.0,0.0,0.0,0.0,0.0,0.0,0.0,0.0,0.0,0.0,0.0,0.0,0.0,0.0,0.0,0.0,0.0,0.0,0.0,0.0,0.0,0.0,0.0,0.0,0.0,0.0,0.0,0.0,0.0,0.0,0.0,0.0,0.0,0.0,0.0,0.0,0.0,0.0,0.0,0.0,0.0,0.0,0.0,0.0,0.0,0.0,0.0,0.0,0.0,0.0,0.0,0.0,0.0,0.0,0.0,0.0,0.0,0.0,0.0,0.0,0.0,0.0,0.0,0.0,0.0,0.0,0.0,0.0,0.0,0.0,0.0,0.0,0.0,0.0,0.0,0.0,0.0,0.0,0.0,0.0,0.0,0.0,0.0,0.0,0.0,0.0,0.0,0.0,0.0,0.0,0.0,0.0,0.0,0.0,0.0,0.0,0.0,0.0,0.0,0.0,0.0,0.0,0.0,0.0,0.0,0.0,0.0,0.0,0.0,0.0,0.0,0.0,0.0,0.0,0.0,0.0,0.0,0.0,0.0,0.0,0.0,0.0,0.0,0.0,0.0,0.0,0.0,0.0,0.0,0.0,0.0,0.0,0.0,0.0,0.0,0.0,0.0,0.0,0.0,0.0,0.0,0.0,0.0,0.0,0.0,0.0,0.0,0.0,0.0,0.0,0.0,0.0,0.0,0.0,0.0,0.0,0.0,0.0,0.0,0.0,0.0,0.0,0.0,0.0,0.0,0.0,0.0,0.0,0.0,0.0,0.0,0.0,0.0,0.0,0.0,0.0,0.0,0.0,0.0,0.0,0.0,0.0,0.0,0.0,0.0,0.0,0.0,0.0,0.0,0.0,0.0,0.0,0.0,0.0,0.0,0.0,0.0,0.0,0.0,0.0,0.0,0.0,0.0,0.0,0.0,0.0,0.0,0.0,0.0,0.0,0.0,0.0,0.0,0.0,0.0,0.0,0.0,0.0,0.0,0.0,0.0,0.0,0.0,0.0,0.0,0.0,0.0,0.0,0.0,0.0,0.0,0.0,0.0,0.0,0.0,0.0,0.0,0.0,0.0,0.0,0.0,0.0,0.0,0.0,0.0,0.0,0.0,0.0,0.0,0.0,0.0,0.0,0.0,0.0,0.0,0.0,0.0,0.0,0.0,0.0,0.0,0.0,0.0,0.0,0.0,0.0,0.0,0.0,0.0,0.0,0.0,0.0,0.0,0.0,0.0,0.0,0.0,0.0,0.0,0.0,0.0,0.0,0.0,0.0,0.0,0.0,0.0,0.0,0.0,0.0,0.0,0.0,0.0,0.0,0.0,0.0,0.0,0.0,0.0,0.0,0.0,0.0,0.0,0.0,0.0,0.0,0.0,0.0,0.0,0.0,0.0,0.0,0.0,0.0,0.0,0.0,0.0,0.0,0.0,0.0,0.0,0.0,0.0,0.0,0.0,0.0,0.0,0.0,0.0,0.0,0.0,0.0,0.0,0.0,0.0,0.0,0.0,0.0,0.0,0.0,0.0,0.0,0.0,0.0,0.0,0.0,0.0,0.0,0.0,0.0,0.0,0.0,0.0,0.0,0.0,0.0,0.0,0.0,0.0,0.0,0.0,0.0,0.0,0.0,0.0,0.0,0.0,0.0,0.0,0.0,0.0,0.0,0.0,0.0,0.0,0.0,0.0,0.0,0.0,0.0,0.0,0.0,0.0,0.0,0.0,0.0,0.0,0.0,0.0,0.0,0.0,0.0,0.0,0.0,0.0,0.0,0.0,0.0,0.0,0.0,0.0,0.0,0.0,0.0,0.0,0.0,0.0,0.0,0.0,0.0,0.0,0.0,0.0,0.0,0.0,0.0,0.0,0.0,0.0,0.0,0.0,0.0,0.0,0.0,0.0,0.0,0.0,0.0,0.0,0.0,0.0,0.0,0.0,0.0,0.0,0.0,0.0,0.0,0.0,0.0,0.0,0.0,0.0,0.0,0.0,0.0,0.0,0.0,0.0,0.0,0.0,0.0,0.0,0.0,0.0,0.0,0.0,0.0,0.0,0.0,0.0,0.0,0.0,0.0,0.0,0.0,0.0,0.0,0.0,0.0,0.0,0.0,0.0,0.0,0.0,0.0,0.0,0.0,0.0,0.0,0.0,0.0,0.0,0.0,0.0,0.0,0.0,0.0,0.0,0.0,0.0,0.0,0.0,0.0,0.0,0.0,0.0,0.0,0.0,0.0,0.0,0.0,0.0,0.0,0.0,0.0,0.0,0.0,0.0,0.0,0.0,0.0,0.0,0.0,0.0,0.0,0.0,0.0,0.0,0.0,0.0,0.0,0.0,0.0,0.0,0.0,0.0,0.0,0.0,0.0,0.0,0.0,0.0,0.0,0.0,0.0,0.0,0.0,0.0,0.0,0.0,0.0,0.0,0.0,0.0,0.0,0.0,0.0,0.0,0.0,0.0,0.0,0.0,0.0,0.0,0.0,0.0,0.0,0.0,0.0,0.0,0.0,0.0,0.0,0.0,0.0,0.0,0.0,0.0,0.0,0.0,0.0,0.0,0.0,0.0,0.0,0.0,0.0,0.0,0.0,0.0,0.0,0.0,0.0,0.0,0.0,0.0,0.0,0.0,0.0,0.0,0.0,0.0,0.0,0.0,0.0,0.0,0.0,0.0,0.0,0.0,0.0,0.0,0.0,0.0,0.0,0.0,0.0,0.0,0.0,0.0,0.0,0.0,0.0,0.0,0.0,0.0,0.0,0.0,0.0,0.0,0.0,0.0,0.0,0.0,0.0,0.0,0.0,0.0,0.0,0.0,0.0,0.0,0.0,0.0,0.0,0.0,0.0,0.0,0.0,0.0,0.0,0.0,0.0,0.0,0.0,0.0,0.0,0.0,0.0,0.0,0.0,0.0,0.0,0.0,0.0,0.0,0.0,0.0,0.0,0.0,0.0,0.0,0.0,0.0,0.0,0.0,0.0,0.0,0.0,0.0,0.0,0.0,0.0,0.0,0.0,0.0,0.0,0.0,0.0,0.0,0.0,0.0,0.0,0.0,0.0,0.0,0.0,0.0,0.0,0.0,0.0,0.0,0.0,0.0,0.0,0.0,0.0,0.0,0.0,0.0,0.0,0.0,0.0,0.0,0.0,0.0,0.0,0.0,0.0,0.0,0.0,0.0,0.0,0.0,0.0,0.0,0.0,0.0,0.0,0.0,0.0,0.0,0.0,0.0,0.0,0.0,0.0,0.0,0.0,0.0,0.0,0.0,0.0,0.0,0.0,0.0,0.0,0.0,0.0,0.0,0.0,0.0,0.0,0.0,0.0,0.0,0.0,0.0,0.0,0.0,0.0,0.0,0.0,0.0,0.0,0.0,0.0,0.0,0.0,0.0,0.0,0.0,0.0,0.0,0.0,0.0,0.0,0.0,0.0,0.0,0.0,0.0,0.0,0.0,0.0,0.0,0.0,0.0,0.0,0.0,0.0,0.0,0.0,0.0,0.0,0.0,0.0,0.0,0.0,0.0,0.0,0.0,0.0,0.0,0.0,0.0,0.0,0.0,0.0,0.0,0.0,0.0,0.0,0.0,0.0,0.0,0.0,0.0,0.0,0.0,0.0,0.0,0.0,0.0,0.0,0.0,0.0,0.0,0.0,0.0,0.0,0.0,0.0,0.0,0.0,0.0,0.0,0.0,0.0,0.0,0.0,0.0,0.0,0.0,0.0,0.0,0.0,0.0,0.0,0.0,0.0,0.0,0.0,0.0,0.0,0.0,0.0,0.0,0.0,0.0,0.0,0.0,0.0,0.0,0.0,0.0,0.0,0.0,0.0,0.0,0.0,0.0,0.0,0.0,0.0,0.0,0.0,0.0,0.0,0.0,0.0,0.0,0.0,0.0,0.0,0.0,0.0,0.0,0.0,0.0,0.0,0.0,0.0,0.0,0.0,0.0,0.0,0.0,0.0,0.0,0.0,0.0,0.0,0.0,0.0,0.0,0.0,0.0,0.0,0.0,0.0,0.0,0.0,0.0,0.0,0.0,0.0,0.0,0.0,0.0,0.0,0.0,0.0,0.0,0.0,0.0,0.0,0.0,0.0,0.0,0.0,0.0,0.0,0.0,0.0,0.0,0.0,0.0,0.0,0.0,0.0,0.0,0.0,0.0,0.0,0.0,0.0,0.0,0.0,0.0,0.0,0.0,0.0,0.0,0.0,0.0,0.0,0.0,0.0,0.0,0.0,0.0,0.0,2.0474,1.9581,0.0,0.0,0.0,0.0,0.0,0.0,0.0,0.0,0.0,0.0,0.0,0.0,0.0,0.0,0.0,0.0,0.0,0.0,0.0,0.0,0.0,0.0,0.0,0.0,0.0,0.0,0.0,0.0,0.0,0.0,0.0,0.0,0.0,0.0,0.0,0.0,0.0,0.0,0.789,0.8182,0.8708,0.9029,0.9399,0.9784,0.0,0.0,0.0,0.0,0.0,0.0,0.0,0.0,0.0,0.0,0.0,0.0,0.0,0.0,0.0,0.0,0.0,0.0,0.0,0.0,0.0,0.0,0.0,0.0,0.0,0.0,0.0,0.0,0.0,0.0,0.0,0.0,0.0,0.0,0.0,0.0,0.0,0.0,0.0,0.0,0.0,0.0,0.0,0.0,0.0,0.0,0.0,0.0,0.0,0.0,0.0,0.0,0.0,0.0,0.0,0.0,0.0,0.0,0.0,0.0,0.0,0.0,0.0,0.0,0.0,0.0,0.0,0.0,0.0,0.0,2.2918,2.0842,0.0,0.0,0.0,0.0,0.0,0.0,0.0,0.0,0.0,0.0,0.0,0.0,0.0,0.0,0.0,0.0,0.0,0.0,0.0,0.0,0.0,0.0,0.0,0.0,0.4172,0.4538,0.4762,0.4985,0.0,0.0,0.0,0.0,0.0,0.0,0.0,0.0,0.0,0.813,0.8575,0.896,0.9362,0.9771,1.0197,1.0677,1.0663,0.0,0.0,0.0,0.0,0.0,0.0,0.0,0.0,0.0,0.0,0.0,0.0,0.0,0.0,0.0,0.0,0.0,0.0,0.0,0.0,0.0,0.0,0.0,0.0,0.0,0.0,0.0,0.0,0.0,0.0,0.0,0.0,0.0,0.0,0.0,0.0,0.0,0.0,0.0,0.0,0.0,0.0,0.0,0.0,0.0,0.0,0.0,0.0,0.0,0.0,0.0,0.0,0.0,0.0,0.0,0.0,0.0,0.0,0.0,0.0,0.0,0.0,0.0,2.5444,2.7086,2.9384,2.9801,2.999,2.9816,2.6732,2.3815,2.1174,2.0595,0.0,0.0,0.0,0.0,0.0,0.0,0.0,0.0,0.0,0.0,0.0,0.0,0.0,0.0,0.0,0.0,0.0,0.0,0.0,0.0,0.0,0.3458,0.3946,0.4382,0.473,0.4922,0.0,0.0,0.0,0.0,0.0,0.0,0.0,0.7755,0.8343,0.9019,0.9619,1.0172,1.0729,1.0838,1.142,1.2289,1.1603,1.1643,1.2274,0.0,0.0,0.0,0.0,0.0,0.0,0.0,0.0,0.0,0.0,0.0,0.0,0.0,0.0,0.0,0.0,0.0,0.0,0.0,0.0,0.0,0.0,0.0,0.0,0.0,0.0,0.0,0.0,0.0,0.0,0.0,0.0,0.0,0.0,0.0,0.0,0.0,0.0,0.0,0.0,0.0,1.9384,1.9139,0.0,0.0,0.0,0.0,0.0,0.0,0.0,0.0,0.0,0.0,0.0,0.0,0.0,2.3805,2.7069,2.7876,2.8325,2.8418,3.0935,3.2546,3.3335,3.3435,3.3435,3.3419,3.2933,0.0,2.7057,2.4219,0.0,0.0,0.0,0.0,0.0,0.0,0.0,0.0,0.0,0.0,0.0,0.0,0.0,0.0,0.0,0.0,0.0,0.0,0.0,0.0,0.0,0.3353,0.403,0.4582,0.5061,0.5361,0.5345,0.5691,0.0,0.0,0.0,0.719,0.7825,0.8454,0.9336,1.0495,1.0815,1.1277,1.1934,1.1892,1.2285,1.3007,1.2781,1.2806,1.3035,1.3399,0.0,0.0,0.0,0.0,0.0,0.0,0.0,0.0,0.0,0.0,0.0,0.0,0.0,0.0,0.0,0.0,0.0,0.0,0.0,0.0,0.0,0.0,0.0,0.0,0.0,0.0,0.0,0.0,0.0,0.0,0.0,0.0,0.0,0.0,0.0,0.0,0.0,0.0,0.0,2.0044,2.0376,2.0552,2.0426,2.0215,0.0,0.0,0.0,0.0,0.0,0.0,0.0,0.0,0.0,2.556,2.6152,2.8062,3.1577,3.1805,3.1903,3.1935,3.5137,3.6816,3.7042,3.7317,3.7469,3.7469,3.718,3.589,3.3641,2.8431,2.4895,2.2712,0.0,0.0,0.0,0.0,2.1874,2.2263,0.0,0.0,0.0,0.0,0.0,0.0,0.0,0.0,0.0,0.0,0.0,0.0,0.2558,0.3421,0.4196,0.4903,0.545,0.578,0.5823,0.619,0.0,0.0,0.0,0.7834,0.8387,0.9415,1.0566,1.1831,1.2047,1.2511,1.3222,1.3126,1.3335,1.3905,1.4216,1.4144,1.381,1.4165,1.4455,1.48,0.0,0.0,0.0,0.0,0.0,0.0,0.0,0.0,0.0,0.0,0.0,0.0,0.0,0.0,0.0,0.0,0.0,0.0,0.0,0.0,0.0,0.0,0.0,0.0,0.0,0.0,0.0,0.0,0.0,0.0,0.0,0.0,0.0,0.0,0.0,0.0,0.0,2.1252,2.1813,2.2607,2.2515,2.2332,0.0,0.0,0.0,0.0,0.0,0.0,2.3459,2.4692,2.6639,2.9565,3.0842,3.2753,3.5375,3.5594,3.5645,3.5661,3.8247,3.952,3.9537,3.9935,4.007,4.0087,3.9677,3.9148,3.817,3.2151,2.8163,2.5787,2.4972,2.3011,2.1006,2.364,2.4612,2.4986,0.0,0.0,0.0,0.0,0.0,0.0,0.0,0.0,0.0,0.0,0.0,0.2222,0.2905,0.357,0.4403,0.5362,0.5732,0.6042,0.6432,0.6666,0.6952,0.7317,0.774,0.8265,0.8941,1.0755,1.1998,1.2719,1.3385,1.3982,1.461,1.461,1.4904,1.54,1.5939,1.5475,1.4373,1.4834,1.5142,1.5311,1.5647,0.0,0.0,0.0,0.0,0.0,0.0,0.0,0.0,0.0,0.0,0.0,0.0,0.0,0.0,0.0,0.0,0.0,0.0,0.0,0.0,0.0,0.0,0.0,0.0,0.0,0.0,0.0,0.0,0.0,0.0,0.0,0.0,0.0,0.0,0.0,0.0,0.0,0.0,2.5255,2.5405,0.0,0.0,0.0,0.0,2.2002,2.4712,2.6652,2.7315,3.0266,3.2276,3.3035,3.622,3.8313,3.9056,3.9546,3.98,3.98,3.9952,4.007,4.007,4.007,4.007,4.007,4.007,3.9764,3.8917,3.4771,3.2623,3.1666,2.8595,2.5749,2.3729,2.6393,2.7415,2.7754,0.0,0.0,0.0,0.0,0.0,0.0,0.0,0.0,0.0841,0.1246,0.1903,0.2593,0.3246,0.45,0.5488,0.6013,0.6746,0.701,0.6636,0.7172,0.7431,0.7264,0.8075,0.9195,1.0695,1.1865,1.3015,1.4169,1.4482,1.4965,1.5512,1.5449,1.578,1.6399,1.666,1.683,1.6857,1.6382,1.6284,1.6396,1.6367,1.6362,0.0,0.0,0.0,0.0,0.0,0.0,0.0,0.0,0.0,0.0,0.0,0.0,0.0,0.0,0.0,0.0,0.0,0.0,0.0,0.0,0.0,0.0,0.0,0.0,0.0,0.0,0.0,0.0,0.0,0.0,0.0,0.0,0.0,0.0,0.0,0.0,0.0,2.6868,2.7116,0.0,2.772,2.5753,2.437,2.4214,2.8062,3.1448,3.383,3.541,3.6509,3.7122,3.8351,3.9255,3.9833,3.9969,4.007,4.007,4.007,4.007,4.007,4.007,4.007,4.007,4.007,3.9969,3.9697,3.7903,3.6564,3.5352,3.2013,2.9894,2.8816,2.9774,3.121,3.2811,0.0,0.0,0.0,0.0,0.0,0.0,0.0,0.0,0.102,0.1477,0.2143,0.2913,0.3731,0.5042,0.6091,0.6625,0.7259,0.7464,0.7093,0.7624,0.7827,0.7589,0.8695,1.0082,1.1821,1.271,1.3783,1.5031,1.538,1.5874,1.6446,1.6414,1.6798,1.7467,1.7802,1.838,1.914,1.8601,1.8092,1.7601,1.7517,1.7408,1.7326,0.0,0.0,0.0,0.0,0.0,0.0,0.0,0.0,0.0,0.0,0.0,0.0,0.0,0.0,0.0,0.0,0.0,0.0,0.0,0.0,0.0,0.0,0.0,0.0,0.0,0.0,0.0,0.0,0.0,0.0,0.0,0.0,0.0,0.0,2.6324,2.7807,2.921,2.9582,2.9961,3.0726,2.89,2.7755,2.7755,3.1682,3.5206,3.7663,3.8391,3.9002,3.952,3.9573,3.9729,4.0087,4.007,4.007,4.007,4.007,4.007,4.007,4.007,4.007,4.007,4.007,4.007,4.007,3.9729,3.8969,3.7857,3.5169,3.3725,3.3214,3.3434,3.4637,3.6178,0.0,0.0,0.0,0.0,0.0,0.0,0.0,0.0768,0.1035,0.1694,0.2376,0.3231,0.4281,0.5207,0.6141,0.7099,0.7157,0.7292,0.7725,0.7918,0.8087,0.8316,0.9608,1.0882,1.211,1.3248,1.431,1.5342,1.6083,1.6748,1.742,1.7568,1.8009,1.8724,1.9491,2.0246,2.0997,2.1415,2.0576,1.8995,1.9061,1.9094,1.9028,0.0,0.0,0.0,0.0,0.0,0.0,0.0,0.0,0.0,0.0,0.0,0.0,0.0,0.0,0.0,0.0,0.0,0.0,0.0,0.0,0.0,0.0,0.0,0.0,0.0,0.0,0.0,0.0,0.0,0.0,0.0,0.0,0.0,2.6451,2.8758,3.0975,3.2461,3.2811,3.3326,3.4203,3.331,3.2717,3.2709,3.5797,3.7961,3.8537,3.9051,3.9573,4.007,4.007,4.007,4.007,4.007,4.007,4.007,4.007,4.007,4.007,4.0172,4.0223,4.0223,4.0223,4.0172,4.007,4.007,3.9764,3.9164,3.7976,3.7105,3.6616,3.7285,3.7539,3.7539,0.0,0.0,0.0,0.0,0.0,0.0,0.0,0.0749,0.1118,0.1592,0.2505,0.3452,0.438,0.5676,0.6607,0.6874,0.7411,0.7554,0.7107,0.7666,0.837,0.922,1.0488,1.1703,1.2877,1.4117,1.5121,1.5936,1.6741,1.7269,1.7555,1.8099,1.9024,2.0285,2.0673,2.1708,2.3091,2.3306,2.3511,2.3483,2.1835,2.1076,2.082,0.0,0.0,0.0,0.0,0.0,0.0,0.0,0.0,0.0,0.0,0.0,0.0,0.0,0.0,0.0,0.0,0.0,0.0,0.0,0.0,0.0,0.0,0.0,0.0,0.0,0.0,0.0,0.0,0.0,0.0,0.0,2.9907,3.1409,2.926,3.172,3.4082,3.5159,3.6246,3.7214,3.7923,3.7093,3.6911,3.7927,4.0432,4.2009,4.2127,4.0725,3.9935,4.0087,4.007,4.007,4.007,4.007,4.007,4.007,4.007,4.007,4.0155,4.2354,4.3335,4.3335,4.3335,4.21,4.007,4.007,3.9764,3.9218,3.8448,3.8049,3.7918,3.8107,3.8164,3.8164,0.0,0.0,0.0,0.0,0.0,0.0,0.0,0.0618,0.0942,0.1425,0.2412,0.3403,0.4323,0.5564,0.6428,0.665,0.7144,0.7232,0.6814,0.7567,0.8625,0.9969,1.0995,1.218,1.3535,1.4594,1.5587,1.6532,1.7167,1.7796,1.8392,1.9167,2.0246,2.1592,2.2492,2.3654,2.4954,2.5483,2.6165,2.6828,2.5494,2.4433,2.3568,2.265,2.2172,2.1774,2.0696,1.9973,1.9397,1.8583,0.0,0.0,0.0,0.0,0.0,0.0,0.0,0.0,0.0,0.0,0.0,0.0,0.0,0.0,0.0,0.0,0.0,0.0,0.0,0.0,0.0,0.0,0.0,0.0,3.4331,3.5363,3.3229,3.5086,3.6996,3.7945,3.9015,3.9951,4.0672,3.996,4.004,4.1471,4.3072,4.4039,4.4039,4.2749,4.139,4.0121,4.0337,4.0436,4.0436,4.1682,4.2313,4.2313,4.2106,4.1965,4.2016,4.3775,4.4587,4.4587,4.4587,4.3589,4.1863,4.0595,3.9935,3.9573,0.0,0.0,0.0,0.0,3.9131,3.9131,0.0,0.0,0.0,0.0,0.0,0.0,0.0,0.0427,0.0659,0.1165,0.2168,0.3174,0.4112,0.5065,0.5836,0.6325,0.6486,0.6633,0.6864,0.7611,0.881,1.0497,1.1266,1.2402,1.4058,1.4806,1.5794,1.6999,1.7471,1.8354,1.9551,2.0588,2.1686,2.2862,2.4535,2.5816,2.6755,2.771,2.8546,2.9192,2.9319,2.832,2.665,2.5452,2.4841,2.4418,2.3068,2.1888,2.0921,2.046,0.0,0.0,0.0,0.0,0.0,0.0,0.0,0.0,0.0,0.0,0.0,0.0,0.0,0.0,0.0,0.0,0.0,0.0,0.0,0.0,0.0,0.0,0.0,0.0,3.7602,3.8372,3.773,3.8715,3.9769,4.0556,4.1156,4.1815,4.2593,4.2169,4.2392,4.3614,4.4253,4.4587,4.4587,4.4587,0.0,0.0,0.0,4.1531,4.1579,4.4264,4.5563,4.5476,4.4995,4.4737,4.4682,4.4682,4.4626,4.4587,4.4587,4.4587,4.4367,4.1694,4.0392,4.007,3.9573,3.9379,3.9432,3.9918,4.007,4.007,0.0,0.0,0.0,0.0,0.0,0.0,0.0,0.0219,0.0442,0.0761,0.1648,0.262,0.3537,0.4484,0.5186,0.5589,0.5978,0.6495,0.7241,0.7605,0.8558,1.0298,1.1452,1.2669,1.3916,1.5191,1.6247,1.7169,1.8012,1.9098,2.0442,2.1459,2.3073,2.5199,2.5959,2.7132,2.862,2.8986,2.9837,3.1021,3.1036,3.0007,2.8353,2.7647,2.7234,2.6973,2.5931,2.4963,2.4077,2.304,2.169,2.0276,1.9198,1.7959,0.0,0.0,0.0,0.0,0.0,0.0,0.0,0.0,0.0,0.0,0.0,0.0,0.0,0.0,0.0,0.0,0.0,0.0,0.0,3.7667,4.0078,4.1198,4.0976,4.1749,4.219,4.1808,4.2816,4.3638,4.387,4.3973,4.408,4.4367,4.4514,4.4587,4.4587,4.4587,4.4521,4.4405,4.4883,4.5374,4.5843,4.64,4.6447,4.6023,4.5922,0.0,4.5264,4.5264,4.4995,4.4587,4.4587,4.4587,4.4536,4.3944,4.2269,4.007,3.9986,3.9935,3.9986,4.007,4.007,4.007,0.0,0.0,0.0,0.0,0.0,0.0,0.0,0.0173,0.0368,0.058,0.1353,0.2185,0.2921,0.3764,0.4443,0.4861,0.5392,0.6084,0.7042,0.7447,0.844,1.0153,1.1489,1.2772,1.398,1.526,1.6467,1.7626,1.8721,1.9969,2.1374,2.3078,2.4648,2.6193,2.7588,2.8814,2.9755,3.0592,3.1362,3.2048,3.2377,3.199,3.1145,3.0493,2.9992,2.944,2.8557,2.7238,2.5745,2.4892,2.3439,2.183,2.0616,1.9396,1.8214,0.0,0.0,0.0,0.0,0.0,0.0,0.0,0.0,0.0,0.0,0.0,0.0,0.0,0.0,2.8381,3.0587,0.0,3.6137,4.1174,4.2404,4.2847,4.3298,4.3553,4.3629,4.3492,4.3889,4.4253,4.4367,4.4514,4.4587,4.4587,4.4587,4.4587,4.4587,4.4587,4.4848,4.5371,4.6172,4.6842,4.7356,4.7356,4.7205,4.698,4.6702,4.6319,4.577,4.5528,4.5103,4.4587,4.4587,4.4587,4.4587,4.4587,4.2794,4.007,4.007,4.007,4.007,4.007,4.007,4.007,0.0,0.0,0.0,0.0,0.0,0.0,0.0,0.0128,0.0298,0.0485,0.1055,0.1683,0.2219,0.2987,0.3714,0.428,0.4826,0.5558,0.6564,0.7114,0.8171,0.9933,1.1278,1.2576,1.3888,1.5096,1.6454,1.7989,1.9214,2.0637,2.2203,2.4463,2.5964,2.6849,2.8983,3.0159,3.0636,3.1945,3.2587,3.2766,3.3425,3.3769,3.3814,3.314,3.2333,3.144,3.0613,2.8829,2.6736,2.6085,2.4678,2.2935,2.1681,2.0629,1.961,1.7994,1.6857,0.0,0.0,0.0,0.0,0.0,0.0,0.0,0.0,2.5669,2.7919,2.8498,3.0464,3.2901,3.5399,3.7403,4.0018,4.4018,4.3933,4.3782,4.4853,4.4641,4.4595,4.4992,4.4599,4.431,4.457,4.4587,4.4587,4.4587,4.4587,4.4587,4.4587,4.4587,4.4886,4.5528,4.6495,4.7249,4.7824,4.7824,4.7824,4.7824,4.7338,4.6842,4.6319,4.5667,4.5157,4.4737,4.4643,4.4587,4.4587,4.4587,4.2794,4.0121,4.0221,4.032,4.037,4.0271,4.0288,4.0288,0.0,0.0,0.0,0.0,0.0,0.0,0.0,0.0,0.0143,0.0458,0.058,0.0833,0.1371,0.2164,0.3053,0.4043,0.443,0.4979,0.5935,0.6465,0.7473,0.9151,1.0437,1.1808,1.3253,1.4573,1.6123,1.7894,1.9057,2.0673,2.2764,2.4641,2.6441,2.8139,2.949,3.0582,3.1407,3.2198,3.2841,3.344,3.4098,3.4726,3.5205,3.4517,3.3484,3.2258,3.147,2.9672,2.749,2.6512,2.4785,2.283,2.1812,2.0733,1.971,1.8657,1.7687,1.6804,1.6214,1.6359,1.7011,1.8744,2.0294,2.2209,0.0,2.7633,3.0072,3.3006,3.5379,3.7604,3.9858,4.1421,4.2855,4.4141,4.3971,4.4137,4.5554,4.544,4.5288,4.5665,4.4664,4.4121,4.457,4.4587,4.4587,4.4587,4.4587,4.4587,4.4587,4.4587,4.5032,4.6073,4.6702,4.7407,4.8229,4.8229,4.8229,4.8229,4.7806,4.7381,4.6888,4.5871,4.5371,4.5264,4.4793,4.4587,4.4587,4.4587,4.2794,4.0138,4.0631,4.1059,4.1363,4.0965,4.0823,4.0823,0.0,0.0,0.0,0.0,0.0,0.0,0.0,0.0,0.0,0.0192,0.0199,0.0369,0.0737,0.1736,0.2629,0.322,0.3622,0.4197,0.4963,0.5659,0.6668,0.8138,0.9597,1.1046,1.2609,1.3961,1.5637,1.7533,1.923,2.0963,2.2724,2.5039,2.6933,2.8469,2.962,3.0611,3.1541,3.2647,3.3245,3.3559,3.4203,3.4651,3.4786,3.3739,3.2452,3.1215,3.0889,2.9049,0.0,2.544,2.3951,2.2425,2.1616,2.0977,2.0305,1.9467,1.8645,1.7979,1.7728,1.8599,2.003,2.1892,2.4221,2.6755,2.9592,3.2188,3.4773,3.7376,3.9559,4.1338,4.2635,4.3565,4.4333,4.4772,4.5033,4.5408,4.6157,4.6066,4.6192,4.6974,4.5081,4.3964,4.4514,4.4587,4.4587,4.4587,4.4587,4.4587,4.4587,4.4587,4.494,4.5718,4.6253,4.687,4.7536,4.7788,4.7929,4.7929,4.7511,4.7025,4.6512,4.577,4.5211,4.4903,4.4682,4.3572,4.1965,4.1965,4.1221,4.0121,4.068,4.1363,4.1977,4.1805,4.1719,4.1719,0.0,0.0,0.0,0.0,0.0,0.0,0.0,0.0,0.0,0.0,-0.0134,0.0034,0.0471,0.1305,0.2001,0.2299,0.2801,0.3355,0.3982,0.4766,0.5781,0.6995,0.8587,1.0124,1.1655,1.3172,1.5015,1.7071,1.8996,2.0759,2.2379,2.4997,2.6778,2.8006,2.9402,3.045,3.133,3.2662,3.3215,3.326,3.3739,3.3933,3.3769,3.2273,3.0824,2.9565,2.9565,2.7779,2.5188,2.3828,2.2616,2.1542,2.0858,2.0502,2.0229,1.9633,1.9292,1.9261,1.986,2.1224,2.3086,2.5514,2.8278,3.1087,3.3859,3.6494,3.8925,4.0701,4.2401,4.3632,4.4019,4.456,4.5016,4.5029,4.5469,4.5909,4.6231,4.6068,4.6123,4.6991,4.5163,4.4039,4.457,4.4587,4.4587,4.4587,4.4587,4.4587,4.4587,4.4587,4.4848,4.5371,4.5787,4.6221,4.6749,4.7116,4.7338,4.7486,4.7025,4.656,4.6172,4.5615,4.4641,4.3335,4.3335,4.21,4.0121,4.0271,4.032,4.037,4.1041,4.1744,4.2472,4.2591,4.2552,4.249,0.0,0.0,0.0,0.0,0.0,0.0,0.0,0.0,0.0,0.0,0.0,0.0,0.0,0.077,0.0936,0.1405,0.1933,0.2478,0.2991,0.3776,0.4657,0.5626,0.7406,0.8989,1.0325,1.2273,1.4323,1.6543,1.8029,1.9725,2.1577,2.4027,2.5605,2.6533,2.8895,3.0157,3.0627,3.1973,3.2542,3.2542,3.2557,3.2572,3.2362,3.0417,2.8764,2.7497,2.7424,2.5789,2.3402,2.1854,2.0721,1.9851,1.9105,1.8933,1.9021,1.8884,1.9515,2.0736,2.3117,2.4318,2.5871,2.9605,3.2212,3.4564,3.7356,3.9636,4.15,4.2494,4.3526,4.4064,4.3767,4.4448,4.4837,4.4467,4.4628,4.5019,4.5748,4.5144,4.4654,4.4705,4.4621,4.4587,4.4587,4.4587,4.4587,4.4587,4.4587,4.4587,4.4587,4.4587,4.4848,4.5371,4.5423,4.5667,4.6221,4.6221,4.6512,4.698,4.6464,4.6239,4.6172,4.5615,4.3494,4.0223,4.0223,4.0155,4.0121,4.068,4.0888,4.0965,4.1892,4.2512,4.292,4.3339,4.3232,4.2882,0.0,0.0,0.0,0.0,0.0,0.0,0.0,0.0,0.0,0.0,0.0,0.0,0.0,0.0,0.0,0.0,0.1164,0.1574,0.1989,0.276,0.3712,0.4839,0.6178,0.7747,0.9616,1.1289,1.3168,1.523,1.6886,1.8412,1.9813,2.2098,2.3848,2.5055,2.6643,2.8045,2.9295,3.0193,3.0567,3.0567,3.0567,3.0313,2.9699,2.7673,2.6213,2.5073,0.0,2.2334,2.1382,1.9943,1.9101,1.8552,1.8087,1.8409,1.9171,1.9938,2.1306,2.2974,2.4822,2.7473,3.0495,3.3149,3.5852,3.8546,4.08,4.2019,4.2802,4.3333,4.3269,4.317,4.3071,4.2386,4.2162,4.3007,4.3747,4.4202,4.4324,4.4473,4.4587,4.4587,4.2811,4.1593,4.1593,4.3403,4.4587,4.4587,4.4587,4.4587,4.4587,4.6447,4.6733,4.4916,4.4848,4.494,4.5157,4.5459,4.577,4.5972,4.577,4.5459,4.514,4.494,4.3127,4.0138,4.0485,4.0631,4.068,4.1152,4.1542,4.1892,4.2454,4.2768,4.2957,4.3339,4.341,4.3304,0.0,0.0,0.0,0.0,0.0,0.0,0.0,0.0,0.0,0.0,0.0,0.0,0.0,0.0,0.0,0.0,0.0,0.0768,0.1096,0.1846,0.2708,0.3736,0.512,0.6718,0.8533,1.0174,1.194,1.3813,1.5261,1.6598,1.7867,1.9934,2.1539,2.28,2.4296,2.566,2.6965,2.7669,2.8003,2.8025,2.7853,2.7509,2.6942,2.5101,2.3836,0.0,2.0798,1.9824,1.9378,1.8463,1.8064,1.7841,1.7594,1.857,2.008,2.1658,2.3527,2.5625,2.7782,3.0911,3.4136,3.6642,3.9148,4.14,4.2728,4.3236,4.3122,4.2438,4.2312,4.2012,4.1107,4.0312,4.0045,4.0875,4.2401,4.3564,4.3756,4.4155,4.4457,4.4587,4.2861,4.1694,4.1694,4.3436,4.4587,4.4587,4.4587,4.5043,4.6109,4.797,4.8139,4.621,4.5128,4.4587,4.4587,4.494,4.5103,4.5103,4.5103,4.494,4.4587,4.4587,4.2929,4.0121,4.068,4.1029,4.1198,4.1831,4.2251,4.2552,4.2975,4.3105,4.316,4.341,4.3497,4.3497,0.0,0.0,0.0,0.0,0.0,0.0,0.0,0.0,0.0,0.0,0.0,0.0,0.0,0.0,0.0,0.0,0.0,0.0,0.0313,0.1023,0.1709,0.2399,0.4229,0.5783,0.7084,0.8948,1.0687,1.2246,1.319,1.4357,1.5748,1.7534,1.8864,1.9743,2.1857,2.3112,2.3685,2.4436,2.4842,2.505,2.4535,2.4328,2.4149,2.2786,2.1649,2.0651,1.9419,1.8344,1.7447,1.7391,1.7544,1.7728,1.7702,1.9338,2.1742,2.3835,2.6129,2.8671,3.1985,3.4511,3.6954,3.9894,4.1848,4.3076,4.3181,4.3128,4.2365,4.0142,4.0488,4.0467,3.8041,3.8028,3.8393,3.8187,4.0656,4.2853,4.3786,4.4013,4.4212,4.457,4.4587,4.4637,4.479,4.4807,4.4807,4.4807,4.4807,4.6041,4.8849,4.9001,4.9001,4.9001,4.6278,4.4722,4.4587,4.4643,4.4626,4.4682,4.4682,4.4682,4.4626,4.4626,4.2983,4.0171,4.0728,4.1244,4.1719,4.2555,4.292,4.2957,4.3339,4.3497,4.3497,4.3497,4.3497,4.3479,0.0,0.0,0.0,0.0,0.0,0.0,0.0,0.0,0.0,0.0,0.0,0.0,0.0,0.0,0.0,0.0,0.0,0.0,-0.0352,0.0164,0.0768,0.1511,0.2951,0.4451,0.6056,0.7661,0.9172,1.0442,1.1385,1.2279,1.3087,1.4598,1.5746,1.6558,1.7975,1.9246,2.0359,2.067,2.1284,2.1989,2.1914,2.1913,2.1854,2.0761,2.0057,1.9529,1.8248,1.7457,1.7044,1.6905,1.7428,1.8308,1.9773,2.1511,2.3477,2.6082,2.8894,3.1744,3.4271,3.7257,4.0066,4.1697,4.2879,4.3565,4.3231,4.1679,3.9814,3.806,3.7021,3.6052,3.4714,3.4089,3.4284,3.6001,3.7894,3.9598,4.0931,4.3057,4.4514,4.4587,4.4587,4.5449,4.7665,4.7885,4.7885,4.7885,4.7885,4.8206,4.8968,4.9001,4.9001,4.9001,4.8274,4.6802,4.4604,4.5012,4.5423,4.5821,4.5821,4.5563,4.5211,4.5211,4.3563,4.0728,4.1569,4.2169,4.2613,4.3142,4.3339,4.3339,4.3444,4.3497,4.3497,4.3497,4.3497,4.3532,0.0,0.0,0.0,0.0,0.0,0.0,0.0,0.0,0.0,0.0,0.0,0.0,0.0,0.0,0.0,0.0,0.0,0.0,0.0,-0.0555,-0.0083,0.0563,0.1801,0.3167,0.4589,0.5925,0.7187,0.8246,0.9007,0.9724,1.0354,1.163,1.2613,1.3391,1.4511,1.569,1.6849,1.7183,1.781,0.0,0.0,1.9293,1.9254,1.8834,1.8508,1.8179,1.7222,1.6905,1.7074,1.7885,1.8935,2.0271,2.2356,2.4487,2.6735,2.9104,3.2019,3.4896,3.6806,3.9457,4.1863,4.2621,4.3103,4.3092,4.1891,3.9835,3.7717,3.623,3.4705,3.3443,3.2671,3.0831,3.0375,3.3195,3.5487,3.7652,3.9783,4.2675,4.506,4.6363,4.6515,4.7293,4.9274,4.9445,4.9445,4.9445,4.9202,4.9001,4.9001,4.9001,4.9001,4.9001,4.7733,4.6476,4.5318,4.5854,4.6253,4.656,4.656,4.6398,4.6105,4.6105,4.5159,4.3535,4.2858,4.2709,4.292,4.3339,4.3497,4.3497,4.3497,4.3497,4.3497,4.3497,4.3582,4.3781,0.0,0.0,0.0,0.0,0.0,0.0,0.0,0.0,0.0,0.0,0.0,0.0,0.0,0.0,0.0,0.0,0.0,0.0,0.0,0.0,-0.0833,-0.0418,0.0734,0.1804,0.286,0.3948,0.5028,0.5975,0.6546,0.7066,0.7591,0.8626,0.9503,1.0295,1.1348,1.2424,1.3388,1.3954,1.4639,1.5415,1.6206,1.6628,1.6831,0.0,0.0,1.6782,1.6355,1.6576,1.7446,1.9396,2.1067,2.2682,2.4925,2.7669,3.0491,3.2337,3.5052,3.7841,3.9352,4.1307,4.2909,4.2971,4.2778,4.2076,4.0146,3.791,3.5815,3.4455,3.2833,3.1551,3.114,2.8397,2.7311,3.0678,3.4015,3.711,3.9715,4.2675,4.5669,4.8646,4.9001,4.9246,4.9935,5.0068,5.0109,5.0109,4.9505,4.9063,4.9001,4.9001,4.8815,4.8426,4.5964,4.5194,4.6319,4.6842,4.7116,4.716,4.716,4.716,4.707,4.707,4.707,4.6955,4.4159,4.2957,4.2995,4.3339,4.3497,4.3497,4.3497,4.3532,4.3548,4.3548,4.3781,4.4128,0.0,0.0,0.0,0.0,0.0,0.0,0.0,0.0,0.0,0.0,0.0,-0.0134,0.0,0.0,0.0,0.0,0.0,0.0,0.0,0.0,0.0,-0.1374,-0.0462,0.0385,0.1104,0.2069,0.3165,0.4405,0.501,0.5157,0.4905,0.5646,0.6462,0.7389,0.8407,0.9466,1.0555,1.1259,1.2306,1.3505,1.379,1.4687,1.582,1.562,0.0,0.0,1.5712,1.6529,1.8014,1.9858,2.1812,2.3912,2.6586,2.9642,3.2582,3.4289,3.704,3.9832,4.0845,4.2546,4.3899,4.3335,4.2088,4.087,4.0516,3.7247,3.391,3.2719,2.9899,2.7953,2.879,2.7418,2.7311,3.0678,3.5757,3.9478,4.0003,4.2675,4.5669,4.8646,4.9001,4.9246,4.9935,5.045,5.0727,5.0727,5.0149,4.9564,4.9001,4.9001,4.7885,4.5432,4.5268,4.577,4.6842,4.7356,4.7765,4.8053,4.8053,4.7911,4.7572,4.7572,4.7572,4.7434,4.46,4.341,4.341,4.3479,4.3497,4.3497,4.3497,4.3682,4.391,4.391,4.4128,4.4496,0.0,0.0,0.0,0.0,0.0,0.0,0.0,0.0,0.0,0.0,0.0,-0.0101,-0.037,-0.0639,0.0,0.0,0.0,0.0,0.0,0.0,0.0,0.0,0.0,0.0,-0.0125,0.0466,0.1242,0.2182,0.0,0.2639,0.2767,0.3507,0.4234,0.5047,0.6205,0.7375,0.8623,0.9488,1.0515,1.1599,1.2196,1.285,0.0,0.0,0.0,0.0,0.0,1.5823,1.7468,1.9817,2.2293,2.497,2.8001,3.1083,3.3951,3.5751,3.8216,4.0679,4.1639,4.3167,4.4326,4.3236,4.2212,4.1071,3.9364,3.5845,3.2043,2.9251,2.7433,2.6409,2.6598,2.6823,2.7833,3.0423,3.4745,3.8294,3.9868,4.1999,4.4215,4.643,4.8071,4.9246,4.9935,5.0561,5.0891,5.0891,5.0337,4.97,4.9063,4.7826,4.6481,4.5046,4.5803,4.659,4.7356,4.7806,4.813,4.8306,4.8306,4.819,4.801,4.801,4.813,4.8161,4.5084,4.3878,4.4036,4.4036,4.4036,4.4036,4.4036,4.4199,4.4486,4.4629,4.4872,4.5226,0.0,0.0,0.0,0.0,0.0,0.0,0.0,0.0,0.0,0.0,0.0,-0.0067,-0.0235,-0.0538,-0.0808,0.0,0.0,0.0,0.0,0.0,0.0,0.0,0.0,0.0,0.0,0.0,0.0,-0.0082,-0.0042,0.0,0.0,0.0,0.0,0.0,0.432,0.5624,0.7037,0.8156,0.9107,0.0,0.0,1.1025,0.0,0.0,0.0,0.0,0.0,1.5082,1.6749,1.9333,2.2138,2.5034,2.814,3.1382,3.4382,3.6111,3.8442,4.0652,4.1908,4.3472,4.448,4.2896,4.2023,4.0851,3.7866,3.3695,2.9312,2.5182,2.4686,2.5019,2.4851,2.6134,2.79,3.0062,3.2754,3.5678,3.87,4.0679,4.2506,4.435,4.7192,4.9246,4.9935,5.045,5.0727,5.0727,5.0149,4.9564,4.9001,4.7364,4.6167,4.5598,4.659,4.7356,4.7717,4.809,4.8306,4.8306,4.8306,4.8344,4.842,4.842,4.8254,4.782,4.5307,4.4335,4.4578,4.4659,4.4685,4.4685,4.4719,4.4881,4.5135,4.5362,4.5626,4.5898,0.0,0.0,0.0,0.0,0.0,0.0,0.0,0.0,0.0,0.0,0.0,-0.0,-0.0034,-0.0336,-0.0639,0.0,0.0,0.0,0.0,0.0,0.0,0.0,0.0,0.0,0.0,0.0,0.0,-0.2052,-0.1741,0.0,0.0,0.0,0.0,0.0,0.0,0.4024,0.5577,0.7147,0.0,0.0,0.0,0.0,0.0,0.0,0.0,0.0,0.0,1.4628,1.6443,1.8388,2.0615,2.3032,2.5625,2.9572,3.3487,3.4468,3.698,3.9795,4.1504,4.3263,4.4323,4.2606,4.0727,3.8838,3.6542,3.0649,2.4642,2.1015,2.1114,2.2416,2.4066,2.4941,2.6471,2.9688,3.0842,3.2421,3.556,3.8481,4.1356,4.4231,4.7192,4.9246,4.9935,5.0068,5.0051,5.0051,4.9445,4.9063,4.9001,4.9367,4.8526,4.621,4.7116,4.7675,4.7717,4.809,4.8306,4.8306,4.8306,4.8495,4.882,4.882,4.7406,4.4918,4.4851,4.4846,4.487,4.5125,4.5233,4.5235,4.5419,4.5582,4.5737,4.5886,4.6027,4.6169,0.0,0.0,0.0,0.0,0.0,0.0,0.0,0.0,0.0,0.0,0.0,0.0,0.0,-0.0134,-0.0331,-0.064,0.0,0.0,0.0,0.0,0.0,0.0,0.0,0.0,0.0,0.0,-0.2179,-0.2291,-0.2238,0.0,0.0,0.0,0.0,0.0,0.0,0.2735,0.4368,0.6007,0.0,0.0,0.0,0.0,0.0,0.0,0.0,0.0,0.0,0.0,1.4677,1.6876,1.9046,2.1094,2.291,2.5687,2.904,3.2569,3.5905,3.8846,4.061,4.2845,4.4301,4.2614,4.0182,3.7385,3.4447,2.8197,2.2559,2.0941,2.0993,2.1668,2.2815,2.4123,2.5823,2.8264,2.9824,3.1658,3.4387,3.7067,3.9546,4.161,4.4519,4.7157,4.9214,4.9385,4.9385,4.9385,4.9124,4.9202,4.9564,5.0206,5.04,4.9997,4.8762,4.805,4.805,4.8229,4.8306,4.8306,4.8532,4.8874,4.9281,4.9415,4.8947,4.7878,4.5978,4.526,4.5454,4.5638,4.5775,4.5854,4.5933,4.6018,4.6103,4.6151,4.6216,4.6254,0.0,0.0,0.0,0.0,0.0,0.0,0.0,0.0,0.0,0.0,0.0,0.0,0.0,0.0,-0.0098,-0.0337,-0.0544,0.0,0.0,0.0,0.0,0.0,0.0,0.0,0.0,0.0,-0.2313,-0.2419,-0.2503,-0.2435,0.0,0.0,-0.1667,-0.0733,0.0,0.0,0.0,0.0,0.0,0.0,0.0,0.0,0.0,0.0,0.0,0.0,0.0,0.0,0.0,0.0,0.0,1.8969,2.0457,2.2203,2.4802,2.9961,3.3802,3.6796,3.8886,4.1323,4.2956,4.1523,3.9113,3.6172,3.2586,2.7362,2.2944,2.1689,2.1077,2.091,2.1469,2.304,2.4879,2.6969,2.8812,3.0867,3.356,3.5621,3.7584,3.9428,4.1779,4.4418,4.7411,4.8494,4.9001,4.9001,4.9001,4.9307,4.9935,4.9524,5.0204,5.2209,4.9562,4.819,4.8306,4.8306,4.8306,4.8306,4.8714,4.9146,4.9623,4.9898,5.0163,5.0224,4.6896,4.5596,4.588,4.6007,4.6135,4.6236,4.623,4.6251,4.6303,4.6297,4.6305,4.6308,0.0,0.0,0.0,0.0,0.0,0.0,0.0,0.0,0.0,0.0,0.0,0.0,0.0,0.0,-0.0,-0.0,-0.026,0.0,0.0,0.0,0.0,0.0,0.0,0.0,0.0,0.0,-0.2284,-0.2683,-0.2683,-0.2616,-0.248,-0.2414,-0.2284,-0.2053,0.0,0.0,0.0,0.0,0.0,0.0,0.0,0.0,0.0,0.0,0.0,0.0,0.0,0.0,0.0,0.0,0.0,0.0,0.0,1.9782,2.16,2.6516,3.0195,3.3239,3.5982,3.8262,3.9642,3.8779,3.7416,3.5259,3.1236,2.8606,2.6072,2.2696,2.0768,1.9812,2.0056,2.1487,2.3528,2.6264,2.7668,2.9559,3.2841,3.404,3.5537,3.8294,3.9512,4.1305,4.4333,4.7276,4.9001,4.9001,4.9001,4.9307,4.9935,4.7131,4.7352,5.1601,4.91,4.7888,4.8306,4.8306,4.8306,4.8306,4.8714,4.9239,4.9906,5.0163,5.0438,5.051,4.7214,4.5861,4.6007,4.6146,4.6249,4.6308,4.6295,4.6303,4.6306,4.6307,4.6308,4.6308,0.0,0.0,0.0,0.0,0.0,0.0,0.0,0.0,0.0,0.0,0.0,0.0,0.0,0.0,0.0,0.0,-0.0092,0.0,0.0,0.0,0.0,0.0,0.0,0.0,0.0,0.0,-0.2145,-0.251,-0.2646,-0.2613,-0.2441,-0.2278,-0.2147,-0.2014,-0.0335,0.1107,0.0,0.0,0.0,0.0,0.0,0.0,0.0,0.0,0.0,0.0,0.0,0.0,0.0,0.0,0.0,0.0,0.0,0.0,0.0,2.2454,2.6302,3.0204,3.253,3.557,3.7953,3.7121,3.781,3.7628,3.384,2.9769,2.5908,2.265,2.0768,1.9726,1.9797,2.1121,2.2991,2.5497,2.7323,2.9343,3.2085,3.355,3.5098,3.7313,3.9056,4.2277,4.778,4.9135,4.986,5.0246,4.7972,4.6636,4.6818,4.5579,4.5979,4.8396,4.7965,4.7888,4.8306,4.8306,4.8458,4.8714,4.9131,4.9615,5.0163,5.0438,5.0664,5.0651,4.7353,4.6007,4.6146,4.624,4.6282,4.6295,4.6303,4.63,4.6303,4.6307,4.6306,4.6295,0.0,0.0,0.0,0.0,0.0,0.0,0.0,0.0,0.0,0.0,0.0,0.0,0.0,0.0,0.0,0.0,0.0,0.0,0.0,0.0,0.0,0.0,0.0,0.0,0.0,-0.1477,-0.2011,-0.251,-0.248,-0.248,-0.251,-0.1809,-0.1375,-0.1039,0.0569,0.1579,0.0,0.0,0.0,0.0,0.0,0.0,0.4504,0.0,0.0,0.0,0.0,0.0,0.0,0.0,0.0,0.0,0.0,0.0,0.0,0.0,2.2584,2.5834,2.9108,3.2224,3.4497,3.4067,3.5112,3.5623,3.3142,3.0016,2.6673,2.3529,2.119,1.969,1.969,2.0594,2.2079,2.4269,2.6278,2.8565,3.1392,3.2992,3.4539,3.6315,3.9829,4.4266,4.9795,5.0544,5.031,4.9482,4.7309,4.5922,4.5718,4.5406,4.5649,4.6655,4.716,4.7639,4.809,4.8229,4.8495,4.8909,4.9402,4.9871,5.0302,5.0625,5.0146,4.8941,4.694,4.6146,0.0,4.6287,4.6308,4.63,4.63,4.63,4.6303,4.6301,4.627,4.6255,0.0,0.0,0.0,0.0,0.0,0.0,0.0,0.0,0.0,0.0,0.0,0.0,0.0,0.0,0.0,0.0,0.0,0.0,0.0,0.0,0.0,0.0,0.0,0.0,0.0,-0.1377,-0.1909,-0.2613,-0.2247,-0.2247,-0.2547,-0.1072,-0.0067,0.0571,0.1274,0.1827,0.0,0.0,0.0,0.0,0.0,0.0,0.0,0.0,0.0,0.0,0.0,0.0,0.0,0.0,0.0,0.0,0.0,0.0,0.0,0.0,0.0,0.0,0.0,2.8152,2.9512,2.9655,2.9782,2.9741,2.9296,2.8834,0.0,2.4575,2.169,1.969,1.969,2.001,2.0976,2.3051,2.5059,2.7428,3.061,3.2493,3.4235,3.6118,4.195,4.7212,5.0699,5.1325,5.0265,4.7375,4.7116,4.687,4.6319,4.627,4.627,4.6319,4.6842,4.7294,4.7741,4.8151,4.855,4.8959,4.9607,5.0063,5.0352,5.0486,4.8883,4.6017,4.6154,4.624,4.6306,4.6307,4.6305,4.6303,4.6303,4.6303,4.63,4.6296,4.6245,4.6154,0.0,0.0,0.0,0.0,0.0,0.0,0.0,0.0,0.0,0.0,0.0,0.0,0.0,0.0,0.0,0.0,0.0,0.0,0.0,0.0,0.0,0.0,0.0,0.0,0.0,-0.1008,-0.1444,-0.1842,-0.1776,-0.1644,-0.1444,0.0034,0.0808,0.0976,0.1408,0.2203,0.0,0.0,0.0,0.0,0.0,0.0,0.0,0.0,0.0,0.0,0.5106,0.6337,0.0,0.0,0.0,0.0,0.0,0.0,0.0,0.0,1.785,1.8852,2.0425,0.0,2.4601,2.4804,2.3786,2.2702,0.0,2.2223,2.1698,2.0926,2.0182,1.969,1.969,2.001,2.1338,2.451,2.6504,2.8108,2.9323,3.273,3.7229,4.2988,4.7565,5.0834,5.2509,5.0794,4.9249,4.8532,4.8172,4.7829,4.7381,4.7025,4.698,4.7338,4.7788,4.8072,4.8151,4.8569,4.9075,4.9683,5.0038,5.0399,5.0694,4.8263,4.6795,4.6154,4.6245,4.6287,4.6307,4.6308,4.6308,4.6307,4.6307,4.63,4.6296,4.624,4.6074,4.5905,0.0,0.0,0.0,0.0,0.0,0.0,0.0,0.0,0.0,0.0,0.0,0.0,0.0,0.0,0.0,0.0,0.0,0.0,0.0,0.0,0.0,0.0,0.0,-0.0168,-0.0504,-0.0706,-0.1008,-0.1377,-0.1174,-0.0737,-0.0067,0.0739,0.1278,0.1579,0.2109,0.2822,0.0,0.0,0.0,0.0,0.3581,0.0,0.0,0.0,0.0,0.0,0.4767,0.6044,0.0,0.8699,1.0045,1.1436,0.0,0.0,0.0,0.0,1.685,1.7501,1.8221,1.9893,2.1456,2.1548,2.0793,2.001,2.001,1.9711,1.942,1.942,1.942,1.9472,1.969,2.001,2.1483,2.5035,2.7627,2.9871,3.1753,3.5504,4.0176,4.5882,4.8839,5.067,5.1417,5.0206,4.9321,4.9197,4.8785,4.8495,4.8267,4.8192,4.8309,4.8692,4.9048,4.9118,4.8855,4.9174,4.9588,5.0108,5.0348,4.9836,4.8587,4.6872,4.6154,4.6245,4.629,4.6306,4.6308,4.6308,4.6307,4.6303,4.6303,4.6238,4.6157,4.6056,4.5893,4.5715,0.0,0.0,0.0,0.0,0.0,0.0,0.0,0.0,0.0,0.0,0.0,0.0,0.0,0.0,0.0,0.0,0.0,0.0,0.0,0.0,0.0,0.0,0.0,-0.0134,-0.0403,-0.0437,-0.0605,-0.0942,-0.0538,0.0171,0.1132,0.1309,0.1765,0.2466,0.3093,0.3444,0.0,0.0,0.0,0.0,0.3581,0.0,0.0,0.0,0.0,0.0,0.0,0.0,0.0,0.8431,0.9527,1.0582,1.1993,0.0,0.0,0.0,0.0,0.0,1.7638,1.8655,1.9493,1.9617,1.969,1.969,1.9617,0.0,0.0,0.0,0.0,1.9139,1.9603,2.0416,2.2039,2.5099,2.8787,3.246,3.583,3.9397,4.3039,4.6567,4.8593,4.9604,4.9515,4.975,4.9788,4.9521,4.8698,4.8248,4.8329,4.8927,4.9268,4.9289,4.9526,4.9434,4.901,4.9188,4.9387,4.9654,4.9856,4.8589,4.6027,4.6162,4.625,4.6309,4.6307,4.6308,4.6308,4.6308,4.6305,4.63,4.6292,4.6164,4.5964,4.5835,4.5731,4.5586,0.0,0.0,0.0,0.0,0.0,0.0,0.0,0.0,0.0,0.0,0.0,0.0,0.0,0.0,0.0,0.0,0.0,0.0,0.0,0.0,0.0,0.0,0.0,-0.0034,-0.0067,-0.0067,-0.0101,-0.0168,0.0168,0.07,0.1379,0.224,0.3095,0.3983,0.4067,0.3917,0.3581,0.0,0.0,0.0,0.3581,0.0,0.0,0.0,0.0,0.0,0.0,0.0,0.0,0.8975,1.001,1.0725,1.1811,0.0,0.0,0.0,0.0,0.0,1.7124,1.7841,1.8567,1.9302,1.9581,1.9603,1.9288,1.8889,1.8581,0.0,0.0,1.8812,1.9581,2.2207,2.4553,2.546,3.0775,3.5886,3.8971,4.2866,4.5791,4.688,5.057,5.2119,4.974,4.975,4.9788,4.9521,4.6802,4.5367,4.5822,4.7354,4.7702,4.6544,4.6603,4.6678,4.6715,4.6515,4.6506,4.6661,4.6705,4.6542,4.6162,4.625,4.6293,4.6308,4.6308,4.6308,4.6308,4.6308,4.6305,4.6296,4.6234,4.6056,4.5841,4.5814,4.5731,4.5586,0.0,0.0,0.0,0.0,0.0,0.0,0.0,0.0,0.0,0.0,0.0,0.0,0.0,0.0,0.0,0.0,0.0,0.0,0.0,0.0,0.0,0.0,0.0,0.0,0.0,0.0,0.0101,0.0269,0.0753,0.1407,0.2239,0.3741,0.4495,0.4675,0.4408,0.4056,0.3581,0.3581,0.3581,0.3581,0.0,0.0,0.0,0.0,0.0,0.0,0.0,0.0,0.0,0.0,1.0264,1.1553,1.2282,0.0,0.0,0.0,0.0,0.0,1.6571,1.733,1.8002,1.8874,1.9398,1.9603,1.9213,1.8812,1.8439,0.0,0.0,1.9266,2.1741,2.3904,2.6564,3.0402,3.4959,3.8514,3.9884,4.3608,4.6416,4.6952,5.1009,5.3293,5.1929,5.0338,4.8426,4.6128,4.4872,4.4421,4.4846,4.5849,4.6244,4.5805,4.5997,4.6164,4.6245,4.6093,4.6053,4.6102,4.615,4.6183,4.625,4.6293,4.6306,4.6308,4.6308,4.6308,4.6308,4.6305,4.6284,4.6234,4.6047,4.5848,4.57,4.57,4.5651,4.5336,0.0,0.0,0.0,0.0,0.0,0.0,0.0,0.0,0.0,0.0,0.0,0.0,0.0,0.0,0.0,0.0,0.0,0.0,0.0,0.0,0.0,0.0,0.0,0.0,0.0,0.0106,0.029,0.0544,0.126,0.2324,0.3744,0.5193,0.568,0.529,0.4718,0.4188,0.3755,0.3667,0.3581,0.3581,0.0,0.0,0.0,0.0,0.0,0.0,0.0,0.0,0.0,0.0,0.0,0.0,0.0,0.0,0.0,1.3913,1.4613,1.5312,1.5971,1.677,1.7639,1.8514,1.9236,1.9745,1.9948,1.9684,1.946,1.9734,2.0117,2.1411,2.4658,2.7326,3.0692,3.5836,3.887,4.073,4.1085,4.3974,4.6221,4.6749,5.0653,5.3027,5.2254,4.9932,4.6854,4.2886,4.3284,4.3905,4.4269,4.4707,4.5137,4.5596,4.5956,4.6176,4.6288,4.6234,4.6207,4.6206,4.6254,4.6282,4.6301,4.6308,4.6286,4.6284,4.6284,4.6284,4.6282,4.628,4.6234,4.6138,4.5886,4.5731,4.5586,4.5586,4.5086,4.4028,0.0,0.0,0.0,0.0,0.0,0.0,0.0,0.0,0.0,0.0,0.0,0.0,0.0,0.0,0.0,0.0,0.0,0.0,0.0,0.0,0.0,0.0,0.0,0.0,0.0,0.0446,0.0662,0.0706,0.165,0.3517,0.6153,0.6282,0.6331,0.6239,0.5376,0.4675,0.4232,0.3799,0.3581,0.3581,0.3581,0.0,0.0,0.0,0.0,0.0,0.0,0.0,0.0,0.0,0.0,0.0,0.0,0.0,1.3938,1.405,1.4853,1.558,1.5132,1.611,1.7447,1.8307,1.9101,2.0206,2.2164,2.2298,2.2578,2.4829,0.0,2.6579,2.788,3.4105,3.9192,3.9681,4.1102,4.2625,4.4045,4.4966,4.5684,4.6172,4.955,5.0725,4.7769,4.7286,4.5615,4.1965,4.2476,4.3177,4.3656,4.4157,4.4713,4.5304,4.5722,4.6005,4.6219,4.6199,4.6206,4.6195,4.6192,4.6248,4.6306,4.6306,4.6264,4.6216,4.6216,4.6216,4.6216,4.6209,4.6138,4.5997,4.5867,4.5731,4.5586,4.5586,4.3585,4.0816,0.0,0.0,0.0,0.0,0.0,0.0,0.0,0.0,0.0,0.0,0.0,0.0,0.0,0.0,0.0,0.0,0.0,0.0,0.0,0.0303,0.0202,0.0,0.0202,0.0501,0.085,0.0739,0.0989,0.1617,0.3778,0.5653,0.7209,0.7209,0.7041,0.6738,0.5847,0.5024,0.4276,0.3796,0.3581,0.3581,0.3581,0.3581,0.0,0.0,0.0,0.0,0.0,0.0,0.0,0.0,1.0937,1.1378,1.2125,1.2973,1.3715,1.3939,1.4801,1.5663,1.5568,1.6345,1.7365,1.7949,1.8721,0.0,0.0,2.4024,2.5782,2.8311,2.9302,3.0364,3.2512,3.6833,4.007,4.007,4.0544,4.1779,4.4231,4.5049,4.5476,4.5667,4.7206,4.7802,4.6636,4.6204,4.4631,4.1424,4.2198,4.3069,4.3586,4.4233,4.4815,4.5341,4.5667,4.5923,4.6131,4.6147,4.6111,4.6068,4.6068,4.6137,4.6234,4.615,4.6091,4.6075,4.6075,4.6075,4.6075,4.6075,4.5997,4.5861,4.5827,4.5771,4.5712,4.5712,4.3588,4.0693,0.0,0.0,0.0,0.0,0.0,0.0,0.0,0.0,0.0,0.0,0.0,0.0,0.0,0.0,0.0,0.0,0.0,0.0,0.0873,0.0739,0.0538,0.0168,0.0504,0.1003,0.1652,0.1789,0.219,0.2862,0.5642,0.7419,0.8118,0.7961,0.7663,0.7196,0.6319,0.5501,0.4714,0.4236,0.402,0.402,0.402,0.402,0.0,0.0,0.0,0.0,0.0,0.0,0.0,0.0,1.0631,1.0802,1.1712,1.2514,1.3275,1.3926,1.4985,1.5973,1.6051,1.663,1.7323,1.7788,0.0,0.0,2.3277,2.6126,2.9046,3.163,3.2093,3.2889,3.5607,3.7814,3.9379,3.9598,4.0037,4.0965,4.2895,4.3934,4.4609,4.5106,4.5615,4.5922,4.5922,4.49,4.336,4.1261,4.2074,4.2959,4.3661,4.4323,4.493,4.5433,4.5666,4.5904,4.6092,4.6099,4.608,4.6037,4.6016,4.6047,4.6138,4.6037,4.5944,4.5861,4.5861,4.5304,4.4361,4.4374,4.5004,4.5929,4.5929,4.5929,4.591,4.5893,4.3717,4.0843,0.0,0.0,0.0,0.0,0.0,0.0,0.0,0.0,0.0,0.0,0.0,0.0,0.0,0.0,0.0,0.0,0.0,0.0,0.1609,0.1276,0.0942,0.0538,0.0875,0.1449,0.2186,0.3609,0.4316,0.4316,0.7091,0.8618,0.8975,0.8578,0.8167,0.767,0.6793,0.6153,0.568,0.5203,0.499,0.499,0.499,0.499,0.4941,0.0,0.0,0.0,0.0,0.0,0.0,0.0,0.9804,0.9815,1.0926,1.1796,1.2698,1.4181,1.5504,1.6522,1.6522,1.6863,1.7295,1.7787,2.0083,2.2845,2.5359,2.8795,3.2228,3.4951,3.4337,3.4122,3.6651,3.7336,3.7736,3.8472,3.9828,4.062,4.0172,4.1339,4.2828,4.435,4.5069,4.5389,4.5389,4.3067,4.1604,4.1604,4.2061,4.2794,4.3847,4.4436,4.4938,4.5486,4.5706,4.5902,4.6097,4.6103,4.6088,4.6105,4.6033,4.5991,4.5997,4.5997,4.5848,4.5603,4.5584,4.374,4.0803,4.0868,4.2991,4.6196,4.6196,4.6196,4.6169,4.6008,4.3802,4.0926,0.0,0.0,0.0,0.0,0.0,0.0,0.0,0.0,0.0,0.0,0.0,0.0,0.0,0.0,0.0,0.0,0.0,0.0,0.1981,0.1644,0.131,0.0942,0.1276,0.1556,0.1768,0.4414,0.6258,0.7175,0.8594,0.9355,0.9475,0.8741,0.8167,0.767,0.6793,0.6325,0.6153,0.568,0.5507,0.5507,0.5507,0.5507,0.5463,0.0,0.0,0.0,0.0,0.0,0.0,0.0,0.0,0.0,1.1105,1.2393,1.367,1.4374,1.5504,1.6522,1.6522,1.6595,1.7204,1.9317,2.0765,2.2734,2.6832,2.9419,0.0,3.5489,3.6209,3.6587,3.779,3.809,3.806,3.787,3.8887,3.979,4.0054,4.046,4.1053,4.1884,4.241,4.2882,4.3182,4.2787,4.2634,4.2902,4.3508,4.4165,4.4858,4.4906,4.5111,4.5563,4.5813,4.6009,4.617,4.6112,4.6056,4.5953,4.5827,4.5854,4.5997,4.5898,4.5827,4.5607,4.3236,4.1712,4.0878,4.0987,4.311,4.626,4.626,4.626,4.5967,4.347,4.1905,4.1052,0.0,0.0,0.0,0.0,0.0,0.0,0.0,0.0,0.0,0.0,0.0,0.0,0.0,0.0,0.0,0.0,0.0,0.0,0.0,0.1778,0.1442,0.1111,0.141,0.1952,0.2644,0.4958,0.6787,0.8126,0.9194,0.9683,0.9683,0.8984,0.8291,0.767,0.7167,0.6829,0.6617,0.6355,0.6227,0.6227,0.6227,0.6227,0.6184,0.0,0.0,0.0,0.0,0.0,0.0,0.0,0.0,0.0,1.1088,1.2867,1.4815,1.5217,1.5923,1.6522,1.6522,1.6522,1.7137,1.9718,2.1432,2.3781,2.8847,3.1129,3.297,3.589,3.68,3.7225,3.7759,3.7934,3.7988,3.7817,3.85,3.9222,3.9713,3.9781,4.0204,4.1318,4.1984,4.2577,4.3123,4.349,4.3831,4.4184,4.4749,4.5266,4.5689,4.5564,4.555,4.5753,4.5946,4.6083,4.6162,4.5453,4.5395,4.5941,4.5867,4.5176,4.4015,4.5195,4.5008,4.3705,4.1762,4.0949,4.0981,4.1104,4.2373,4.4403,4.577,4.5477,4.4013,4.1904,4.1144,4.1144,0.0,0.0,0.0,0.0,0.0,0.0,0.0,0.0,0.0,0.0,0.0,0.0,0.0,0.0,0.0,0.0,0.0,0.0,0.0,0.0,0.141,0.1076,0.141,0.2438,0.4256,0.5193,0.627,0.7503,0.8935,0.9603,0.9563,0.9145,0.8529,0.7753,0.7753,0.7496,0.7063,0.7021,0.6979,0.6979,0.6979,0.6979,0.6937,0.6575,0.0,0.0,0.0,0.0,0.0,0.0,0.0,0.0,1.1207,1.3339,1.5881,1.6349,1.6522,1.6522,1.6522,1.666,1.7338,1.956,2.2244,2.5761,3.0996,3.3297,3.4668,3.6037,3.6304,3.6429,3.6816,3.7165,3.7567,3.8173,3.8511,3.8914,3.9379,3.9556,4.0334,4.2234,4.316,4.3892,4.4524,4.4802,4.4954,4.492,4.5299,4.5636,4.5821,4.575,4.5655,4.5523,4.5587,4.5628,4.5635,4.4137,4.4109,4.5551,4.5561,4.3928,4.1003,4.3868,4.3573,4.0843,4.1022,4.1114,4.1116,4.117,4.1191,4.1504,4.4629,4.3945,4.1191,4.1191,4.1191,4.1191,0.0,0.0,0.0,0.0,0.0,0.0,0.0,0.0,0.0,0.0,0.0,0.0,0.0,0.0,0.0,0.0,0.0,0.0,0.0,0.0,0.1041,0.0639,0.1241,0.2438,0.4256,0.4849,0.5463,0.6147,0.8144,0.8984,0.8659,0.8578,0.8414,0.825,0.825,0.8002,0.7538,0.7154,0.6979,0.6979,0.6979,0.6979,0.6979,0.6901,0.6859,0.0,0.0,0.0,0.0,0.0,0.0,0.0,1.3493,1.463,1.5881,1.6349,1.6522,1.6522,1.6522,1.7777,1.9623,2.1857,2.4589,2.7723,3.1361,3.2888,3.3799,3.4668,3.4868,3.5133,3.6037,3.6336,3.6738,3.7812,3.8075,3.8678,4.032,4.1455,4.2505,4.3526,4.4221,4.4751,4.5084,4.5419,4.4597,4.218,4.21,4.2163,4.2225,4.206,4.1953,4.1927,4.1975,4.2077,4.2169,4.1827,4.1843,4.2234,4.219,4.1764,4.1081,4.1645,4.1596,4.1033,4.1142,4.1171,4.1171,4.1191,4.1191,4.1269,4.2012,4.1855,4.1191,4.1144,4.1119,4.1114,0.0,0.0,0.0,0.0,0.0,0.0,0.0,0.0,0.0,0.0,0.0,0.0,0.0,0.0,0.0,0.0,0.0,0.0,0.0,0.0,0.0908,0.0504,0.1407,0.2442,0.3609,0.4104,0.4543,0.5019,0.6416,0.7433,0.8085,0.8291,0.8496,0.87,0.87,0.8332,0.767,0.7196,0.6979,0.6979,0.6979,0.6979,0.7081,0.7662,0.7876,0.8004,0.917,0.0,0.0,0.0,0.0,0.0,0.0,0.0,1.5558,1.6044,1.6306,1.6436,1.6219,1.7749,2.0279,2.3841,2.6114,2.8039,3.0038,3.1707,3.2847,3.3203,3.3922,3.4668,3.5559,3.6117,3.6829,3.7879,3.897,4.0131,4.1373,4.2637,4.366,4.4355,4.4905,4.5342,4.561,4.4376,4.2872,4.1216,4.103,4.0986,4.0956,4.0862,4.0808,4.0846,4.0945,4.0241,3.8661,3.8667,3.8671,3.8706,3.8672,3.8651,3.8664,3.859,3.8585,3.8671,3.8709,3.8711,3.8711,3.8709,3.9683,4.1146,4.1155,4.115,4.1147,4.1105,4.1061,4.0994,0.0,0.0,0.0,0.0,0.0,0.0,0.0,0.0,0.0,0.0,0.0,0.0,0.0,0.0,0.0,0.0,0.0,0.0,0.0,0.0,0.0,0.0674,0.1661,0.2422,0.2912,0.3357,0.3799,0.4188,0.4767,0.5911,0.0,0.8301,0.8859,0.9241,0.9241,0.8816,0.7997,0.751,0.7328,0.7328,0.7328,0.7328,0.7435,0.843,0.8804,0.8857,0.9413,0.9984,1.0675,1.1619,0.0,0.0,0.0,0.0,1.5108,1.5659,1.6132,1.6392,1.5925,1.7388,2.0091,2.4741,2.6704,2.7656,2.8262,3.0052,3.1621,3.1814,3.3168,3.4534,3.5219,3.6043,3.6971,3.7963,3.999,4.17,4.2329,4.3453,4.4421,4.5,4.5419,4.5525,4.5191,4.27,4.1108,4.1108,4.0434,3.9985,3.9913,3.9925,3.9973,4.0032,4.0163,3.8857,3.6013,3.5971,3.5974,3.5974,3.5988,3.6003,3.5996,3.6009,3.5999,3.6001,3.5995,3.5996,3.5995,3.5996,3.764,4.0246,4.0824,4.1071,4.1052,4.1057,4.0945,4.0776,0.0,0.0,0.0,0.0,0.0,0.0,0.0,0.0,0.0,0.0,0.0,0.0,0.0,0.0,0.0,0.0,0.0,0.0,0.2047,0.0,0.0,0.1247,0.1862,0.2422,0.2912,0.3357,0.3622,0.3711,0.4754,0.0,0.0,0.0,0.0,1.0284,1.0284,0.9926,0.9307,0.8769,0.8571,0.8571,0.8571,0.8571,0.8584,0.8744,0.8804,0.8857,0.9413,0.9984,1.0565,1.1226,1.1778,0.0,0.0,0.0,1.4651,1.5558,1.6132,1.6392,1.5925,1.7388,1.9728,2.277,2.5538,2.7536,2.759,2.8372,2.937,3.0474,3.2365,3.4074,3.5037,3.5444,3.6052,3.7427,3.9563,4.1499,4.2736,4.4194,4.5262,4.5626,4.5848,4.4831,4.2038,4.1369,4.1091,4.1095,3.8225,3.6454,3.6392,3.6435,3.6495,3.6573,3.664,3.6424,3.5914,3.5866,3.583,3.583,3.5942,3.5994,3.5999,3.5995,3.5996,3.5996,3.5996,3.5994,3.5996,3.5938,3.6144,3.6802,3.9768,4.0926,4.0917,4.0865,4.0646,4.0363,0.0,0.0,0.0,0.0,0.0,0.0,0.0,0.0,0.0,0.0,0.0,0.0,0.0,0.0,0.0,0.3193,0.3185,0.2908,0.2195,0.1436,0.1116,0.1383,0.1928,0.2422,0.2912,0.3357,0.3787,0.4124,0.0,0.0,0.0,0.815,0.9152,0.0,0.0,0.0,0.9562,0.9008,0.8804,0.8804,0.8804,0.8804,0.8804,0.0,0.0,0.0,0.0,0.0,1.0087,1.0667,1.1226,1.1769,1.251,0.0,0.0,0.0,1.5736,1.6044,1.5881,1.7388,1.9429,2.1301,2.367,2.5785,2.6604,2.7907,2.9132,3.0115,3.1631,3.3235,3.4422,3.5245,3.6292,3.7908,3.9557,4.1324,4.3375,4.4461,4.5304,4.5956,4.6107,4.4838,4.1432,4.1136,4.0351,3.8393,3.676,3.583,3.5757,3.5823,3.5897,3.5947,3.5976,3.5942,3.5833,3.5784,3.5737,3.5757,3.5845,3.5914,3.5942,3.5979,3.5993,3.5996,3.5996,3.5993,3.5988,3.5897,3.5807,3.6076,3.9379,4.0615,4.0549,4.0356,3.8937,3.7084,0.0,0.0,0.0,0.0,0.0,0.0,0.0,0.0,0.0,0.0,0.0,0.0,0.0,0.0,0.0,0.0,0.3581,0.3268,0.2422,0.1884,0.1614,0.1614,0.2107,0.26,0.3046,0.3589,0.4072,0.4519,0.0,0.0,0.7139,0.7628,0.8527,0.0,0.9465,0.9413,0.0,0.0,0.0,0.0,0.8804,0.8804,0.0,0.0,0.0,0.0,0.0,0.0,0.0,0.0,1.0667,1.1217,1.1877,1.2803,0.0,0.0,0.0,1.5659,1.5792,1.6991,1.8484,1.9808,2.1976,2.4158,2.5594,2.7331,2.8824,2.9766,3.1053,3.2369,3.3731,3.5088,3.648,3.8035,3.9479,4.1118,4.3223,4.4204,4.5076,4.6052,4.5479,4.3989,4.1372,4.1169,3.9744,3.6267,3.5947,3.5889,3.5859,3.5065,3.4628,3.4679,3.4679,3.4613,3.4484,3.525,3.5659,3.5639,3.5737,3.5807,3.5885,3.5942,3.5977,3.5995,3.5996,3.5987,3.5955,3.583,3.5688,3.581,3.8223,3.9059,3.8899,3.866,3.6839,3.4495,0.0,0.0,0.0,0.0,0.0,0.0,0.0,0.0,0.0,0.0,0.0,0.0,0.3534,0.3534,0.3548,0.3578,0.3581,0.3401,0.2912,0.2422,0.2154,0.2154,0.26,0.0,0.3537,0.4131,0.4488,0.0,0.0,0.0,0.7139,0.7628,0.8527,0.9562,0.9061,0.8857,0.8857,0.0,0.0,0.0,0.0,0.0,0.0,0.0,0.0,0.0,0.0,0.0,0.0,0.0,0.0,0.0,0.0,1.2803,1.3716,0.0,0.0,0.0,1.5659,1.5876,1.6379,1.8153,2.0827,2.3277,2.4581,2.6073,2.7646,2.9312,3.0565,3.1785,3.3202,3.4634,3.6017,3.7273,3.9211,4.084,4.1543,4.3079,4.4626,4.5957,4.3365,4.1387,4.1211,4.1191,3.9744,3.6267,3.5991,3.5988,3.5988,3.2865,3.1069,3.106,3.1063,3.1002,3.0878,3.3954,3.5507,3.5507,3.5639,3.5728,3.5807,3.5866,3.5942,3.5996,3.5992,3.5955,3.5883,3.5766,3.5534,3.5226,3.5417,3.5337,3.5173,3.4953,3.46,3.4173,0.0,0.0,0.0,0.0,0.0,0.0,0.0,0.0,0.0,0.0,0.0,0.0,0.0,0.3581,0.3581,0.3581,0.3581,0.3401,0.2912,0.2467,0.2201,0.2201,0.2645,0.3135,0.3578,0.4209,0.0,0.0,0.0,0.5896,0.7139,0.7628,0.8527,0.9614,0.9413,0.9524,0.9844,0.9472,0.0,0.0,0.0,0.0,0.0,0.0,0.0,0.0,0.0,0.0,0.0,0.0,0.0,0.0,0.0,0.0,0.0,0.0,1.4455,1.5244,1.5881,1.6349,1.6976,1.8189,1.9681,2.1359,2.3435,2.5319,2.7025,2.8415,2.9653,3.0942,3.2476,3.4128,3.5657,3.6823,3.8423,3.9874,4.09,4.1655,4.2588,4.3838,4.2349,4.1171,4.1144,4.1142,3.9696,3.6194,3.5938,3.4984,3.278,3.1489,3.0794,3.0806,3.0759,3.0653,3.0477,3.1634,3.332,3.5507,3.556,3.5628,3.5747,3.5807,3.5903,3.5996,3.594,3.5903,3.583,3.5643,3.535,3.4982,3.487,3.467,3.4435,3.4363,3.4173,3.3921,0.0,0.0,0.0,0.0,0.0,0.0,0.0,0.0,0.0,0.0,0.0,0.0,0.0,0.0,0.3581,0.3581,0.3445,0.3223,0.2912,0.2467,0.2201,0.2201,0.2645,0.3218,0.3873,0.4312,0.0,0.0,0.0,0.0,0.0,0.7574,0.8527,0.9614,0.9829,1.0198,0.0,0.0,0.0,0.9562,0.0,0.0,0.8804,0.0,0.0,0.0,0.0,0.0,0.0,0.0,0.0,0.0,0.0,0.0,0.0,0.0,0.0,0.0,1.5969,0.0,1.7475,1.8372,1.9342,2.0625,2.2657,2.4491,2.6262,2.7907,2.908,3.0304,3.191,3.3303,3.468,3.6043,3.7597,3.898,3.9868,4.0096,4.0532,4.152,4.0991,4.0469,4.0218,3.9613,3.8305,3.6035,3.5879,3.4374,3.0948,3.0773,3.0767,3.0724,3.0653,3.054,3.041,3.0398,3.1532,3.3782,3.3782,3.4443,3.5647,3.5757,3.5859,3.5996,3.5929,3.5859,3.5728,3.5416,3.5107,3.4791,3.4542,3.4293,3.4074,3.4074,3.3895,3.3671,0.0,0.0,0.0,0.0,0.0,0.0,0.0,0.0,0.0,0.3602,0.0,0.0,0.0,0.0,0.0,0.3605,0.3203,0.2934,0.2934,0.2485,0.2215,0.2215,0.2665,0.3393,0.445,0.0,0.0,0.0,0.0,0.0,0.0,0.0,0.8474,0.9614,1.0205,1.0769,1.1226,0.0,1.0146,0.9562,0.0,0.8804,0.8804,0.0,0.0,0.0,0.8804,0.8917,0.0,0.8864,0.0,0.0,0.0,0.0,0.0,0.0,0.0,0.0,0.0,0.0,0.0,1.85,1.9783,2.1197,2.2352,2.361,2.5261,2.7708,2.8809,2.9787,3.1381,3.2064,3.2981,3.4743,3.6748,3.816,3.8312,3.8408,3.8653,3.9201,3.9246,3.9007,3.8419,3.6687,3.563,3.5704,3.5771,3.4295,3.0858,3.0683,3.0673,3.0598,3.037,3.0244,3.0244,3.034,3.0398,3.0398,3.0398,3.2141,3.5366,3.5553,3.5723,3.5843,3.5773,3.5725,3.5651,3.5122,3.4771,3.4561,3.4293,3.4023,3.3807,3.3807,3.3633,3.3393,0.0,0.0,0.0,0.0,0.0,0.0,0.0,0.0,0.0,0.0,0.0,0.0,0.0,0.4271,0.4271,0.4271,0.3752,0.3387,0.3387,0.2858,0.2542,0.2542,0.3121,0.3764,0.446,0.4519,0.4519,0.4519,0.4629,0.5018,0.5572,0.6761,0.0,0.0,0.9621,1.019,1.0718,1.0573,0.0,1.0154,0.9166,0.8804,0.0,0.0,0.0,0.0,0.0,0.8864,0.8864,0.0,0.9015,0.9681,0.0,0.0,0.0,0.0,0.0,0.0,1.54,0.0,0.0,0.0,0.0,0.0,2.2127,2.3266,2.4408,2.5701,2.6786,2.7678,2.8227,2.9276,3.0243,3.083,3.3514,3.5779,3.6482,3.7105,3.7753,3.849,3.8194,3.7858,3.7686,3.643,3.5075,3.379,3.487,3.4087,3.0683,3.049,3.0469,3.0455,2.8016,2.6706,2.6706,2.9148,3.0398,3.0398,3.0398,3.0956,3.1959,3.2061,3.2187,3.2304,3.2182,3.3355,3.53,3.487,3.4539,3.4269,3.4023,3.3868,3.3807,3.3807,3.3633,3.3393,0.0,0.0,0.0,0.0,0.0,0.0,0.0,0.3835,0.4124,0.0,0.0,0.0,0.4519,0.4519,0.4519,0.4519,0.3968,0.3585,0.3585,0.3026,0.2802,0.3081,0.3416,0.386,0.4463,0.4519,0.4519,0.4519,0.4519,0.4798,0.5297,0.6277,0.7359,0.0,0.0,0.0,0.0,0.0,0.0,0.0,0.942,0.0,0.0,0.9427,0.9532,0.0,0.0,0.0,0.9113,0.8857,0.9472,0.0,0.0,0.0,0.0,0.0,0.0,0.0,0.0,0.0,0.0,0.0,0.0,0.0,2.1964,2.2948,2.3919,2.499,2.5854,2.6583,2.7154,2.795,2.8548,2.8655,3.0408,3.2318,3.3997,3.4948,3.5643,3.6075,3.5825,3.5601,3.562,3.4944,3.4179,3.3352,3.3782,3.3,3.0544,2.9052,2.8264,2.8264,2.6341,2.5303,2.5303,2.7283,2.9028,3.0477,3.0477,3.054,3.064,3.0716,3.078,3.0843,3.0724,3.159,3.3191,3.4205,3.4381,3.4023,3.3842,3.3807,3.3807,3.3807,3.3559,3.3214,0.0,0.0,0.0,0.0,0.0,0.0,0.0,0.0,0.0,0.0,0.4519,0.4519,0.4519,0.4519,0.4519,0.4519,0.4024,0.3694,0.3694,0.319,0.3135,0.3694,0.3694,0.3968,0.4463,0.4519,0.4519,0.4519,0.4519,0.4739,0.5242,0.5845,0.6712,0.7848,0.0,0.0,0.0,0.0,0.0,0.9718,0.9718,0.9718,0.0,0.0,1.0573,1.0573,1.0573,1.0249,0.9718,0.9316,1.0694,0.0,0.0,0.0,0.0,0.0,1.4316,0.0,0.0,0.0,0.0,0.0,1.9924,0.0,2.1938,2.2762,2.3683,2.4977,2.5502,2.6045,2.7082,2.7351,2.7405,2.7475,2.7633,2.8637,3.1227,3.2266,3.2773,3.2803,3.281,3.2789,3.2789,3.2744,3.2863,3.3272,3.2328,3.1199,2.9943,2.6978,2.5322,2.5322,2.5322,2.5322,2.5322,2.5322,2.6911,3.0055,3.0432,3.0657,3.0704,3.0778,3.082,3.0794,3.0657,3.0455,3.0386,3.2996,3.3981,3.3842,3.3807,3.3807,3.3807,3.3807,3.3426,3.2916,0.0,0.0,0.0,0.0,0.3287,0.0,0.0,0.0,0.0,0.4519,0.4519,0.4519,0.0,0.0,0.4519,0.4519,0.4408,0.4298,0.4298,0.4242,0.4187,0.4298,0.4298,0.4353,0.4519,0.4519,0.4519,0.4519,0.4519,0.4574,0.4684,0.5242,0.6114,0.73,0.0,0.0,0.0,0.0,0.0,1.0308,1.0308,1.0557,1.0964,1.1116,1.1124,1.1124,1.1124,1.1065,1.1006,1.136,1.2067,1.2832,0.0,0.0,0.0,1.3668,0.0,0.0,0.0,0.0,0.0,0.0,2.034,0.0,2.2371,2.3028,2.3624,2.4164,2.4505,2.4823,2.5186,2.5367,2.5469,2.5532,2.6182,2.7377,2.9381,2.9844,3.0209,3.0852,3.0926,3.0933,3.0933,3.0902,3.0671,3.0147,2.9748,2.8651,2.6636,2.5906,2.5544,2.5544,2.5544,2.5544,2.5544,2.5544,2.5893,2.6605,2.9421,3.0779,3.0785,3.0853,3.0852,3.0794,3.0657,3.0455,3.0228,3.0658,3.2122,3.4099,3.3868,3.3807,3.3807,3.3807,3.3426,3.2916,0.0,0.0,0.0,0.0,0.3425,0.0,0.0,0.0,0.0,0.0,0.0,0.0,0.0,0.0,0.0,0.0,0.4519,0.4519,0.4519,0.4519,0.4519,0.4519,0.4519,0.4519,0.4519,0.4519,0.4519,0.4519,0.4519,0.4519,0.4519,0.5073,0.5786,0.6712,0.0,0.0,0.0,0.0,0.9932,1.0522,1.0769,0.0,1.1728,1.1977,1.2076,1.2076,1.2076,1.2076,1.2126,1.2431,1.2676,0.0,1.2968,1.319,1.3515,0.0,1.4593,1.5377,0.0,0.0,0.0,1.9778,0.0,0.0,0.0,2.3212,2.361,2.386,2.406,2.4247,2.4408,2.4556,2.4682,2.4727,2.5201,2.5874,2.6823,2.7854,2.8651,2.9052,2.9129,2.9159,2.9159,2.9159,2.8989,2.8637,2.8263,2.7582,2.6515,2.594,2.566,2.566,2.566,2.5648,2.5644,2.5644,2.5658,2.5699,2.9149,3.0813,3.0855,3.0859,3.0838,3.0794,3.0657,3.0455,3.0171,2.9988,3.0659,3.1927,3.3287,3.3807,3.3807,3.3807,3.2511,3.0751,0.1479,0.0,0.0,0.0,0.3416,0.3416,0.3416,0.0,0.0,0.0,0.0,0.0,0.0,0.0,0.0,0.0,0.0,0.4519,0.4519,0.4519,0.4519,0.4519,0.4519,0.4519,0.4519,0.4519,0.4519,0.4519,0.4519,0.4519,0.4519,0.4963,0.5462,0.6064,0.0,0.0,0.0,0.0,0.0,1.0573,0.0,1.1778,1.2274,1.2735,1.2881,1.2881,1.2881,1.2881,1.2881,1.2881,1.2929,1.2968,1.3104,1.3382,0.0,0.0,0.0,0.0,0.0,0.0,0.0,0.0,0.0,2.23,0.0,0.0,0.0,2.3689,2.3819,2.3961,2.4078,2.4229,2.4373,2.4444,2.4578,2.4651,2.4553,2.6111,2.7255,2.7297,2.7369,2.7409,2.739,2.74,2.7451,2.7514,2.7135,2.6912,2.7,2.6161,2.5709,2.5709,2.5691,2.5705,2.5701,2.5701,2.5693,2.5732,2.8504,3.0209,3.0898,3.0831,3.0804,3.0794,3.0657,3.0425,3.0128,2.994,2.9645,2.9542,3.1955,3.2889,3.2889,3.2889,3.1042,2.8652,0.2199,0.2849,0.0,0.0,0.2802,0.2802,0.2802,0.3744,0.0,0.0,0.0,0.0,0.0,0.0,0.0,0.0,0.0,0.0,0.4519,0.0,0.0,0.4519,0.4519,0.4519,0.4519,0.4519,0.4519,0.4519,0.4519,0.4519,0.4519,0.4574,0.4908,0.5462,0.6652,0.0,0.0,0.0,0.9932,0.0,1.1628,1.2323,0.0,1.2881,1.2881,1.2881,1.2881,1.2881,1.2881,0.0,1.2968,1.3094,0.0,1.3546,1.3905,1.464,0.0,0.0,0.0,0.0,0.0,0.0,2.2067,2.2746,2.3242,0.0,2.3407,2.3383,0.0,2.3664,2.3735,0.0,0.0,2.4303,2.4479,2.4385,2.3746,2.4563,2.5292,2.5474,2.5559,2.559,2.5591,2.5658,2.5719,2.5778,2.5782,2.5803,2.5886,2.5761,2.5696,2.5696,2.5702,2.5703,2.5702,2.5702,2.5703,2.5703,2.6093,2.789,3.0898,3.0831,3.0804,3.0794,3.0657,3.0348,2.9905,2.9773,2.9451,2.9076,2.942,2.9567,2.9567,2.9567,2.9144,2.8959,0.3131,0.3337,0.0,0.0,0.3249,0.3249,0.3249,0.3965,0.0,0.0,0.0,0.0,0.0,0.0,0.0,0.0,0.0,0.4519,0.0,0.0,0.0,0.4963,0.4963,0.4963,0.4963,0.4684,0.4519,0.4519,0.4519,0.4519,0.4519,0.4519,0.4794,0.5352,0.6168,0.0,0.7955,0.0,0.9932,0.0,0.0,1.2559,0.0,1.3027,1.2881,1.2929,1.32,1.319,1.3094,1.3162,1.3248,0.0,0.0,0.0,0.0,1.5209,0.0,0.0,0.0,0.0,0.0,0.0,0.0,0.0,2.3157,2.3168,2.3095,2.3052,0.0,0.0,0.0,0.0,0.0,0.0,2.3878,2.3591,2.3353,2.3289,2.3553,2.4293,2.49,2.5261,2.5302,2.536,2.5429,2.5498,2.5551,2.5629,2.5693,2.5694,2.5701,2.5702,2.5703,2.5703,2.5703,2.5703,2.5702,2.5698,2.5698,2.6463,2.7871,2.7843,2.783,2.7885,2.9621,3.0152,2.9755,2.9431,2.898,2.8536,2.8536,2.8637,2.8785,2.8929,2.8947,2.9241,0.3913,0.0,0.0,0.0,0.0,0.3638,0.3805,0.0,0.0,0.0,0.0,0.0,0.4519,0.4519,0.0,0.0,0.4519,0.4574,0.0,0.0,0.4963,0.0,0.0,0.0,0.5576,0.5018,0.4739,0.4739,0.4574,0.4519,0.4519,0.4629,0.4908,0.5352,0.0,0.6982,0.7955,0.0,1.0035,1.082,1.1728,1.2793,1.3763,1.344,1.3306,1.3344,1.3716,1.361,1.3314,1.3344,1.3334,1.3409,1.3668,1.4305,1.5062,0.0,0.0,0.0,1.9307,0.0,0.0,0.0,2.2617,2.2729,2.2781,2.2669,2.2581,2.2677,2.291,0.0,0.0,0.0,0.0,0.0,0.0,2.3288,2.3188,2.2914,2.2909,2.336,2.4049,2.4605,2.4896,2.4995,2.5178,2.5478,2.5586,2.5642,2.5705,2.57,2.5703,2.5703,2.5703,2.5703,2.5701,2.57,2.5694,2.5661,2.5676,2.5685,2.5698,2.5679,2.5648,2.5673,2.7618,2.8236,2.795,2.8544,2.851,2.8053,2.7986,2.8081,2.8282,2.8662,2.8785,2.9191,0.4463,0.4463,0.0,0.0,0.0,0.0,0.0,0.0,0.0,0.0,0.0,0.0,0.0,0.0,0.0,0.0,0.0,0.4739,0.5242,0.0,0.5517,0.0,0.0,0.6178,0.0,0.5576,0.5297,0.5297,0.4743,0.4519,0.4519,0.5018,0.5297,0.5356,0.6544,0.7354,0.7955,0.9093,1.0233,1.1326,1.1877,1.3035,1.4373,1.4384,1.4326,1.4326,1.4373,1.4046,1.3573,1.3266,1.3218,1.3266,1.3515,1.4468,1.5676,1.6773,0.0,0.0,2.0107,2.1115,2.1927,2.2441,2.2415,2.219,2.2062,2.1881,2.1799,2.2079,2.2502,2.294,2.3319,0.0,0.0,0.0,0.0,0.0,0.0,2.3818,2.387,2.2596,2.2589,2.301,2.3864,2.4072,2.4521,2.5437,2.5615,2.5696,2.5707,2.5701,2.5703,2.5703,2.5703,2.5702,2.57,2.5693,2.5661,2.56,2.5593,2.5648,2.5703,2.5634,2.557,2.544,2.4441,2.3746,2.3562,2.6863,2.8025,2.7701,2.7421,2.7313,2.7407,2.8014,2.8227,2.8701,0.0,0.0,0.0,0.0,0.0,0.0,0.0,0.4519,0.0,0.0,0.4519,0.0,0.0,0.4519,0.4629,0.0,0.0,0.5297,0.5845,0.6277,0.0,0.0,0.0,0.682,0.0,0.6228,0.5905,0.5905,0.5297,0.5018,0.5018,0.5626,0.6119,0.6544,0.7306,0.7735,0.0,0.0,0.0,0.0,0.0,1.4129,1.488,1.488,1.488,1.488,1.488,1.4743,1.4501,1.3905,1.3716,1.3763,1.4046,1.4777,1.5668,1.6484,1.7826,1.9302,2.0252,2.1101,2.174,2.1852,2.1549,2.114,2.0925,2.091,2.1037,2.1486,2.2124,2.2738,2.3199,0.0,0.0,0.0,0.0,0.0,0.0,2.2382,2.1603,2.0602,2.1632,2.2785,2.3728,2.3966,2.4433,2.543,2.5581,2.5645,2.5705,2.57,2.5703,2.5703,2.5702,2.5698,2.5709,2.5668,2.5593,2.5526,2.5434,2.5467,2.5562,2.5499,2.5058,2.4346,2.3638,2.3879,2.4813,2.5659,2.6574,2.7421,2.7038,2.6908,2.6973,2.7612,2.7864,2.8276,0.5124,0.0,0.0,0.0,0.0,0.0,0.0,0.0,0.0,0.0,0.4707,0.0,0.4841,0.0,0.5432,0.0,0.6316,0.6544,0.6792,0.7144,0.0,0.8221,0.7681,0.7413,0.0,0.6982,0.6717,0.6495,0.59,0.5626,0.5631,0.6228,0.682,0.7408,0.0,0.8321,0.8633,1.0344,1.1276,0.0,0.0,1.4697,1.5153,1.5457,1.5591,1.5591,1.5591,1.5513,1.5289,1.4789,1.4662,1.4662,1.4834,1.5457,1.625,1.6976,1.8185,1.9449,2.0196,2.0782,2.1163,2.1005,2.051,1.998,1.9712,1.9832,2.019,2.0799,2.1691,2.2459,2.296,0.0,0.0,0.0,0.0,0.0,0.0,2.1671,2.0778,1.9996,2.077,2.1877,2.3145,2.3414,2.4033,2.5321,2.554,2.5632,2.5703,2.5698,2.5703,2.5703,2.5699,2.5689,2.5668,2.5604,2.5517,2.5391,2.5253,2.5254,2.5346,2.5255,2.462,2.3571,2.3855,2.4427,2.5137,2.5218,2.5742,2.6444,2.6621,2.6691,2.6758,2.7195,2.7352,2.7754,0.6232,0.0,0.0,0.0,0.4519,0.0,0.0,0.0,0.4529,0.0,0.5068,0.5428,0.5428,0.602,0.6679,0.7461,0.8182,0.8376,0.8045,0.8033,0.0,0.0,0.8275,0.7955,0.7955,0.7955,0.7681,0.7139,0.6554,0.6232,0.6282,0.6869,0.7413,0.7955,0.854,0.0,0.9769,1.146,1.2175,1.2314,1.38,1.4697,1.5244,1.6163,1.6522,1.6522,1.6522,1.6219,1.5836,1.5792,1.5792,1.5792,1.5792,1.6479,1.7406,1.8268,1.8798,1.931,2.0,2.0212,2.0203,1.9974,1.9379,1.8801,1.8517,1.8769,1.9294,2.0141,2.1207,2.2141,2.2669,2.3157,0.0,0.0,0.0,0.0,0.0,2.1676,2.1435,2.0623,2.0066,2.0418,2.2133,2.2502,2.3381,2.5166,2.5473,2.5621,2.5698,2.5697,2.5703,2.5702,2.5694,2.5676,2.5601,2.5523,2.5395,2.5197,2.505,2.503,2.5061,2.4923,2.4209,2.319,2.4848,2.5102,2.4427,2.5455,2.5542,2.5111,2.6248,2.6691,2.6674,2.6674,2.6759,2.7282,0.6874,0.6168,0.5462,0.0,0.4743,0.4519,0.0,0.0,0.0,0.0,0.5332,0.5428,0.5428,0.602,0.6876,0.8122,0.8835,0.0,0.0,0.0,0.0,0.8844,0.8646,0.8593,0.8593,0.8593,0.8275,0.7681,0.7139,0.6874,0.6869,0.7413,0.8002,0.8593,0.0,0.9577,1.0956,1.254,1.3228,1.3276,1.4093,1.488,1.5703,1.6262,1.6522,1.6522,1.6522,1.6436,1.6262,1.5925,1.5792,1.5792,1.5792,1.668,1.7828,1.8361,1.9213,1.9975,1.9854,1.9808,1.9671,1.9156,1.8608,1.8185,1.7961,1.8391,1.9104,1.9982,2.1054,2.2027,2.2561,2.2876,2.3151,0.0,0.0,0.0,0.0,0.0,2.0537,1.9727,2.0062,2.0864,2.2089,2.2937,2.393,2.5216,2.5439,2.5586,2.5696,2.5691,2.5702,2.5701,2.5691,2.5665,2.56,2.542,2.5274,2.5122,2.4942,2.4794,2.4719,2.4545,2.3963,2.3165,2.4663,2.5157,2.4941,2.5678,2.6158,2.6493,2.6622,2.6538,2.6329,2.6329,2.7486,2.9231,0.7521,0.6495,0.0,0.5352,0.0,0.0,0.4519,0.4745,0.0,0.5384,0.5428,0.0,0.5826,0.6482,0.7461,0.8835,0.9606,0.0,1.0561,0.0,0.0,1.0058,0.9721,0.9532,0.9532,0.9271,0.0,0.8626,0.7836,0.7467,0.7467,0.7741,0.8221,0.8831,0.0,1.0367,1.1769,1.3314,1.3752,1.3515,1.4362,1.5153,0.0,1.6306,1.6522,1.6522,1.6522,1.6522,1.6479,1.6219,1.6088,1.6088,1.6088,1.6947,1.7963,1.84,2.004,2.1546,2.0631,2.0076,1.9657,1.9038,1.8407,1.7868,1.7828,1.838,1.9133,1.9978,2.0991,2.1853,2.2298,2.2642,2.2768,0.0,0.0,0.0,0.0,0.0,2.0629,1.9436,2.0696,2.1787,2.2081,2.3027,2.4074,2.5168,2.5376,2.554,2.5693,2.5707,2.5701,2.57,2.5709,2.5678,2.56,2.5403,2.5206,2.5005,2.4837,2.4663,2.4445,2.4135,2.3628,2.3125,2.4781,2.5351,2.5184,2.6117,2.6614,2.6859,2.6725,2.64,2.5914,2.5749,2.7316,2.9592,0.7966,0.7001,0.0,0.0,0.0,0.0,0.0,0.5151,0.0,0.5561,0.0,0.6086,0.6625,0.7263,0.8112,0.942,1.018,1.0624,1.0751,1.1373,1.1747,1.1864,1.1044,1.0624,1.0624,1.0035,0.9666,0.0,0.0,0.8269,0.8269,0.8075,0.8404,0.0,0.0,0.0,0.0,1.361,1.3836,1.3362,1.4536,1.5379,1.5925,1.6349,1.6522,1.6522,1.6522,1.6522,1.6522,1.6522,1.6522,1.6522,1.6565,1.7282,1.8218,1.8976,2.1286,2.3283,2.1798,2.0727,1.9888,1.9402,1.8535,1.7868,1.8068,1.8598,1.9353,2.0147,2.1023,2.1748,2.2124,2.2571,2.2531,0.0,0.0,0.0,0.0,0.0,0.0,0.0,2.1633,0.0,2.2232,2.3068,2.4093,2.5126,2.5327,2.5498,2.5687,2.5705,2.57,2.5701,2.5709,2.5678,2.5609,2.5395,2.5166,2.4924,2.4775,2.458,2.4303,2.384,2.3382,2.3049,2.5077,2.5629,2.5224,2.6564,2.6957,2.6691,2.6775,2.633,2.5702,2.5655,2.7094,2.9075,0.7727,0.0,0.0,0.0,0.0,0.527,0.527,0.5814,0.6222,0.6222,0.7354,0.8184,0.8263,0.8289,0.8641,0.942,1.018,0.0,0.0,0.0,0.0,1.3147,1.1856,1.1175,1.1175,1.0616,1.0095,0.0,0.0,1.0131,1.0104,0.9092,0.9213,0.0,0.0,0.0,1.2126,1.2774,1.3256,1.361,1.4233,1.5277,1.6392,1.6479,1.6522,1.6522,1.6522,1.6522,1.6522,1.6522,1.6522,1.6565,1.6947,1.7908,1.9392,2.1948,2.3108,2.3357,2.2251,2.1082,2.0065,1.9634,1.8951,1.8383,1.8549,1.92,1.9954,2.0715,2.1385,2.1998,2.2508,2.3035,2.3132,2.2392,2.2544,2.2446,2.1405,0.0,0.0,0.0,2.2367,2.308,2.3063,2.3933,2.4695,2.5163,2.533,2.5486,2.5684,2.5703,2.5698,2.5702,2.5691,2.5665,2.56,2.5398,2.5216,2.505,2.4874,2.4679,2.4465,2.3979,2.3558,2.3347,2.5376,2.5848,2.5359,2.6762,2.7103,2.6725,2.7072,2.6742,2.6319,2.8338,2.907,2.9029,0.8158,0.0,0.0,0.0,0.0,0.6467,0.6467,0.7464,0.8032,0.7677,0.8601,0.9458,0.9906,0.9416,0.9285,0.9989,1.0681,1.1373,1.2058,1.2736,1.2991,1.2767,1.2386,1.2126,1.2126,1.1628,1.0913,1.0095,1.0746,1.0933,1.0611,0.998,1.0253,1.1156,0.0,1.2255,0.0,1.3122,1.3505,1.4046,1.4558,1.5457,1.6522,1.6522,1.6522,1.6522,1.6522,1.6522,1.6522,1.662,1.6607,1.6565,1.7031,1.8212,1.9975,2.279,2.3338,2.305,2.2939,2.1969,2.091,2.0607,1.9734,1.9049,1.9295,1.9864,2.0485,2.1165,2.1807,2.2364,2.2876,2.3283,2.3329,2.2656,2.2752,2.263,2.1861,2.2168,2.2328,0.0,0.0,0.0,2.3289,2.4094,2.479,2.513,2.5274,2.5439,2.5632,2.5673,2.5694,2.5703,2.5698,2.5661,2.5601,2.5428,2.5272,2.5102,2.4902,2.4692,2.4482,2.3999,2.3685,2.3588,2.5066,2.5622,2.5676,2.7115,2.763,2.7491,2.7509,2.803,2.8891,2.9848,2.993,2.9457,0.8947,0.7798,0.0,0.0,0.7033,0.7787,0.8016,0.9231,0.9916,0.9306,0.9911,1.0663,1.126,1.0374,0.9989,1.0561,1.1185,1.1934,1.2744,1.3042,1.289,1.228,1.2676,1.2881,1.2881,1.2372,1.1619,1.0675,1.1284,1.1247,1.0624,1.0624,1.1122,1.1989,1.2202,1.2852,1.38,1.3988,1.4362,1.4869,1.5232,1.5856,1.6522,1.6522,1.6522,1.6522,1.6522,1.6522,1.6522,1.6748,1.6791,1.6765,1.7323,1.8447,2.0065,2.2383,2.2686,2.243,2.3107,2.2445,2.1519,2.1376,2.0459,1.969,2.0096,2.0532,2.1038,2.1655,2.2275,2.2859,2.3223,2.3513,2.3533,2.3035,2.3141,2.3052,2.2426,2.292,2.3138,0.0,0.0,0.0,2.3533,2.4172,2.4731,2.5041,2.5197,2.5372,2.5589,2.5642,2.5685,2.57,2.5703,2.5676,2.5626,2.5496,2.5332,2.5163,2.4955,2.4738,2.4515,2.4097,2.4018,2.4306,2.4931,2.5655,2.6491,2.7593,2.8154,2.8264,2.7922,2.9308,3.1406,3.1038,3.0699,3.0384,0.0,0.0,0.0,0.8435,0.85,0.8856,0.9539,1.0438,1.0962,1.0887,1.1558,1.2077,1.215,1.1195,1.0498,1.0561,1.1185,1.2112,1.3329,1.2671,1.2382,1.2783,1.2881,1.2881,1.2881,1.2372,1.1819,1.1226,1.1452,1.1247,1.0624,1.0624,1.1545,1.3322,1.2948,1.3392,1.4373,1.5244,1.5869,1.6293,1.6349,1.6423,1.6522,1.6522,1.6522,1.6522,1.6522,1.6522,1.6565,1.6863,1.7115,1.7434,1.8149,1.8798,1.9567,2.0855,2.1205,2.1311,2.2033,2.1706,2.1164,2.1127,2.0635,2.0224,2.0613,2.1087,2.1582,2.2203,2.2958,2.3508,2.3562,2.3816,2.4056,2.4059,2.4118,2.4155,2.4081,2.4192,2.4246,2.4172,0.0,0.0,2.4383,2.4572,2.4749,2.4915,2.5113,2.5313,2.5586,2.5613,2.5642,2.5709,2.5698,2.5703,2.5691,2.557,2.5453,2.5361,2.5099,2.4879,2.4676,2.4317,2.4887,2.6126,2.5651,2.6561,2.8319,2.8219,2.8327,2.8536,2.8246,2.9836,3.2284,3.2249,3.2196,3.2161,1.0812,1.0357,1.0165,1.0269,1.0767,1.1252,1.1496,1.2314,1.264,1.1945,1.2077,1.2305,1.2305,1.1263,1.0751,1.1185,1.1809,1.2736,1.401,1.3143,1.2676,1.2881,1.2881,1.2881,1.2881,1.2686,1.2323,1.1778,1.1234,1.1032,1.1185,1.0807,1.167,1.3502,1.3355,1.3716,1.4466,1.5379,1.6044,1.6522,1.6522,1.6522,1.6522,1.6522,1.6522,1.6522,1.6522,1.6522,1.6565,1.6876,1.7199,1.7557,1.8358,1.9049,1.9781,2.1059,2.1439,2.1569,2.2325,2.2108,2.1682,2.1596,2.1182,2.0893,2.115,2.1612,2.2119,2.2591,2.323,2.371,2.3774,2.3996,2.417,2.4208,2.4303,2.4358,2.4358,2.443,2.4465,2.4465,0.0,2.4495,2.4495,2.461,2.4768,2.4879,2.5088,2.5272,2.5479,2.556,2.5604,2.5636,2.5642,2.5641,2.5641,2.5593,2.5511,2.5395,2.5201,2.5032,2.4861,2.4607,2.5764,2.7903,2.6603,2.6999,2.8612,2.8662,2.8737,2.8834,2.8712,3.055,3.325,3.325,3.325,3.3262,1.2054,1.197,1.1982,1.2076,1.2625,1.3137,1.3137,1.3652,1.3781,1.2939,1.2518,1.2305,1.2305,1.1263,1.087,1.156,1.2367,1.3346,1.4446,1.3523,1.2881,1.2881,1.2881,1.2881,1.2881,1.2881,1.2627,1.2076,1.1175,1.0917,1.13,1.12,1.1897,1.3086,1.3429,1.3905,1.4466,1.5379,1.6044,1.6522,1.6522,1.6911,1.7488,1.7488,1.7087,1.6522,1.6522,1.6565,1.665,1.6947,1.7282,1.7639,1.8422,1.9147,1.9903,2.0993,2.142,2.1698,2.2226,2.2208,2.1956,2.1924,2.1681,2.1507,2.1731,2.2147,2.2591,2.3045,2.3544,2.3896,2.3937,2.4113,2.4228,2.4228,2.434,2.443,2.443,2.4464,2.4498,2.4534,2.4545,2.4591,2.4591,2.4734,2.487,2.4947,2.5138,2.5293,2.539,2.5511,2.5574,2.56,2.5603,2.5595,2.5605,2.5609,2.5535,2.541,2.5274,2.516,2.5037,2.5276,2.6749,2.9034,2.7743,2.7752,2.8737,2.9067,2.92,2.92,2.92,3.1205,3.4136,3.4208,3.426,3.4334,1.4062,1.4068,1.4068,1.4082,1.4088,1.4088,1.4088,1.4088,1.4082,1.4068,1.3033,1.2305,1.2305,1.1263,1.087,1.156,1.2781,1.3761,1.4455,1.3523,1.2881,1.2881,1.2881,1.2881,1.2881,1.2881,1.2627,1.2076,1.1578,1.1032,1.0526,1.1916,1.2389,1.2153,1.3152,1.3905,1.4466,1.5379,1.6044,1.6522,1.6522,1.7827,1.9761,1.9761,1.8405,1.6522,1.6522,1.665,1.6918,1.7115,1.7475,1.7868,1.8422,1.9124,1.9782,2.0289,2.0777,2.1247,2.1388,2.1573,2.1724,2.1886,2.1998,2.2164,2.2422,2.2695,2.3045,2.3566,2.3917,2.4094,2.4094,2.4209,2.4284,2.4284,2.4411,2.45,2.45,2.4497,2.4512,2.4599,2.4719,2.4785,2.4809,2.4987,2.5106,2.5103,2.5233,2.5332,2.5406,2.5464,2.5525,2.5605,2.5593,2.5592,2.5605,2.5593,2.5532,2.5406,2.5332,2.5228,2.5126,2.6414,2.7866,2.9386,2.9089,2.8975,2.904,2.951,2.9701,2.9701,2.9701,3.1827,3.4908,3.5107,3.5324,3.5493,1.4088,1.4088,1.4088,1.4088,1.4088,1.4088,1.4088,1.4088,1.4088,1.4088,1.3046,1.2305,1.2305,1.1971,1.1901,1.2266,1.3025,1.3992,1.501,1.4799,1.4092,1.293,1.2881,1.2881,1.2881,1.2881,1.2832,1.2627,1.2126,1.1569,1.1082,1.15,1.2044,1.2676,1.3716,1.4419,1.4926,1.5525,1.6044,1.6647,1.8154,1.9183,1.9798,1.9798,1.8907,1.7564,1.6798,1.662,1.6803,1.7199,1.7625,1.8159,1.8954,1.9573,2.01,2.0761,2.123,2.1587,2.1764,2.1957,2.213,2.2275,2.2429,2.266,2.2915,2.33,2.3671,2.3917,2.4074,2.417,2.417,2.4191,2.4229,2.4229,2.4339,2.4447,2.45,2.4547,2.4607,2.4716,2.485,2.4943,2.5,2.5148,2.5234,2.5239,2.5333,2.5383,2.5395,2.5456,2.5537,2.56,2.5593,2.5602,2.5597,2.5547,2.5498,2.5406,2.5332,2.5236,2.5101,2.5329,2.6967,2.9588,2.9608,2.9608,2.9645,2.977,2.9841,2.9841,2.9991,3.083,3.2281,3.4749,3.5724,3.5768,1.4088,1.4088,1.4088,1.4088,1.4088,1.4088,1.4088,1.4088,1.3928,1.3474,1.2766,1.2305,1.2305,1.2599,1.2677,1.2624,1.3407,1.43,1.5352,1.541,1.4941,1.3877,1.3828,1.3828,1.3828,1.3828,1.3828,1.3828,1.3189,1.2471,1.1628,1.1828,1.2461,1.3519,1.5078,1.6098,1.6584,1.7098,1.7474,1.7877,1.9246,1.9798,1.9798,1.9798,1.8882,1.7476,1.6773,1.6663,1.6918,1.7282,1.7814,1.8511,1.9288,1.9949,2.0563,2.1119,2.1495,2.1827,2.2073,2.2287,2.2508,2.2669,2.2892,2.3133,2.341,2.3714,2.3996,2.4074,2.4151,2.419,2.419,2.4209,2.4192,2.4192,2.4303,2.4411,2.4498,2.461,2.4727,2.4869,2.5015,2.5149,2.5219,2.5305,2.5371,2.5381,2.5414,2.5444,2.5471,2.5482,2.5537,2.5606,2.5599,2.5603,2.5595,2.5527,2.546,2.5398,2.5313,2.5206,2.5095,2.4903,2.5978,2.8099,2.9483,3.0075,3.0075,3.0075,3.0075,3.0123,3.0273,3.0471,3.0955,3.32,3.4014,3.3986,1.4088,1.4088,1.4088,1.4088,1.4088,1.4088,1.4088,1.4088,1.3661,1.2458,1.2305,1.2298,1.2378,1.3119,1.3359,1.2947,1.39,1.4734,1.5352,1.541,1.541,1.541,1.541,1.541,1.541,1.541,1.541,1.541,1.4655,1.3704,1.2491,1.2948,1.3721,1.4752,1.7092,1.8464,1.904,1.95,1.9695,1.9747,1.9747,1.9747,1.9798,1.9798,1.848,1.6622,1.6547,1.682,1.7199,1.7352,1.8055,1.8993,1.9523,2.0388,2.1199,2.1388,2.1661,2.1986,2.2321,2.2569,2.2764,2.3028,2.3319,2.3598,2.3855,2.4016,2.4094,2.4094,2.4151,2.419,2.419,2.4209,2.4192,2.4192,2.4303,2.4429,2.4495,2.4685,2.4869,2.4998,2.5187,2.5337,2.5411,2.5473,2.5519,2.5506,2.5506,2.5545,2.5604,2.5549,2.5544,2.5603,2.5599,2.5593,2.5593,2.5537,2.5456,2.5393,2.5253,2.5164,2.5094,2.5031,2.5089,2.5394,2.8902,3.041,3.0421,3.0421,3.0421,3.0425,3.0559,3.0703,3.0817,3.0876,3.0853,3.0799,1.4088,1.4088,1.4088,1.4088,1.4088,1.4088,1.4088,1.4088,1.3661,1.2458,1.2305,1.2526,1.3127,1.392,1.479,1.5819,1.5024,1.4734,1.5352,1.541,1.541,1.541,1.541,1.541,1.541,1.541,1.541,1.541,1.5454,1.5695,1.6018,1.6148,1.6579,1.7281,1.8348,1.8881,1.8999,1.8667,1.8774,1.9198,1.9198,1.9448,1.9798,1.9798,1.897,1.7689,1.7053,1.6918,1.7115,1.7557,1.8557,1.9769,2.0526,2.1604,2.2467,2.1805,2.1873,2.218,2.2405,2.2596,2.279,2.3168,2.3571,2.3915,2.4034,2.4132,2.417,2.417,2.419,2.419,2.419,2.4209,2.419,2.4192,2.4303,2.4446,2.4559,2.4785,2.5031,2.5203,2.5352,2.5474,2.5554,2.5604,2.5659,2.5648,2.5648,2.5666,2.5679,2.5666,2.5633,2.5598,2.5603,2.5571,2.5511,2.5449,2.5387,2.5332,2.5233,2.5179,2.5164,2.5107,2.5126,2.5394,2.8902,3.0455,3.054,3.054,3.0588,3.0645,3.0717,3.0765,3.0799,3.0825,3.0806,3.0802,1.4088,1.4088,1.4088,1.4088,1.4088,1.4088,1.4088,1.4088,1.3661,1.2458,1.2305,1.2599,1.3419,1.4497,1.5638,1.6769,1.5675,1.5079,1.5352,1.541,1.541,1.541,1.541,1.541,1.541,1.541,1.541,1.541,1.5778,1.6208,1.6588,1.7056,1.77,1.8518,1.8827,1.8827,1.8572,1.7975,1.8084,1.8614,1.8893,1.9291,1.9698,1.8681,1.7987,1.7581,1.7522,1.7596,1.7813,1.8532,1.9556,2.0636,2.1258,2.2264,2.3079,2.2736,2.259,2.2601,2.2518,2.2605,2.285,2.3371,2.375,2.4016,2.4113,2.4151,2.4151,2.4151,2.4132,2.4113,2.4151,2.417,2.4209,2.4247,2.4357,2.4497,2.4676,2.4902,2.5126,2.5322,2.546,2.5574,2.5636,2.5683,2.5687,2.5657,2.5654,2.5676,2.5696,2.5693,2.5668,2.56,2.5571,2.5531,2.551,2.5432,2.5361,2.5311,2.5252,2.5231,2.5209,2.5187,2.5195,2.5313,2.7304,2.91,3.0649,3.068,3.0704,3.0742,3.0798,3.0804,3.08,3.0778,3.0742,3.0753,1.4088,1.4088,1.4088,1.4088,1.4088,1.4088,1.4088,1.4018,1.3615,1.2587,1.2599,1.2966,1.3783,1.515,1.6289,1.6978,1.6271,1.5693,1.543,1.541,1.541,1.541,1.541,1.541,1.541,1.541,1.541,1.541,1.5884,1.6053,1.6007,1.68,1.7799,1.8881,1.8881,1.8506,1.792,1.7501,1.7601,1.8139,1.8774,1.9291,1.9597,1.7727,1.6941,1.6965,1.7769,1.835,1.8889,1.9784,2.0685,2.1528,2.1967,2.272,2.3494,2.3712,2.3621,2.3284,2.2779,2.2771,2.3028,2.3562,2.3837,2.4054,2.417,2.4151,2.4094,2.4094,2.4036,2.4054,2.4094,2.417,2.4247,2.4321,2.4444,2.4594,2.4802,2.4981,2.5184,2.5385,2.5529,2.5623,2.568,2.5682,2.5652,2.5609,2.5609,2.5613,2.5677,2.5675,2.5659,2.5593,2.554,2.5511,2.5495,2.5416,2.5341,2.5282,2.5282,2.5252,2.5222,2.5284,2.5284,2.5243,2.5432,2.7205,2.9953,3.001,3.0033,3.0022,3.0035,3.0351,3.0794,3.0734,3.073,3.0717,1.4088,1.4088,1.4088,1.4088,1.4088,1.4088,1.4088,1.3787,1.3496,1.3375,1.3848,1.4569,1.5371,1.6211,1.7047,1.7735,1.7696,1.6982,1.5508,1.541,1.541,1.541,1.541,1.541,1.541,1.541,1.541,1.541,1.5826,1.6104,1.6224,1.6965,1.7656,1.8247,1.8247,1.792,1.7445,1.7334,1.7601,1.8139,1.8774,1.9291,1.9761,1.9422,1.8141,1.662,1.7161,1.8498,2.0102,2.0662,2.1384,2.2182,2.2798,2.3701,2.453,2.4337,2.4505,2.4514,2.3608,2.3284,2.3295,2.3606,2.3837,2.4054,2.417,2.4151,2.4094,2.4094,2.4094,2.4094,2.417,2.4228,2.4321,2.4444,2.4578,2.4753,2.494,2.5091,2.5245,2.5371,2.5529,2.5605,2.5618,2.5619,2.5605,2.5605,2.5605,2.5605,2.5605,2.5625,2.5605,2.5597,2.5593,2.5518,2.5416,2.5351,2.5293,2.5222,2.5222,2.5243,2.5293,2.534,2.5387,2.5378,2.5524,2.591,2.6489,2.649,2.6491,2.6482,2.6483,2.8259,3.0796,3.0793,3.0789,3.0799,1.4088,1.4088,1.4088,1.4088,1.4088,1.4257,1.4762,1.4396,1.4217,1.4649,1.5007,1.5505,1.6281,1.67,1.7185,1.794,1.8008,1.7666,1.6865,1.5928,1.541,1.541,1.541,1.541,1.541,1.541,1.541,1.541,1.5594,1.5718,1.5857,1.6821,1.7601,1.8084,1.8084,1.7975,1.7711,1.7711,1.8084,1.8614,1.9186,1.9604,1.9811,1.9965,1.9291,1.8227,1.8393,1.9293,2.057,2.1589,2.2263,2.2848,2.3428,2.4122,2.4712,2.4862,2.4818,2.4635,2.3939,2.3877,2.3975,2.3797,2.3896,2.4074,2.417,2.4113,2.4054,2.4054,2.4054,2.4074,2.4134,2.4284,2.4444,2.4578,2.4749,2.4912,2.5051,2.5157,2.5293,2.5382,2.5479,2.5551,2.5598,2.56,2.5609,2.5593,2.5567,2.5545,2.5558,2.5587,2.5603,2.5599,2.5561,2.5499,2.5395,2.5322,2.5262,2.519,2.519,2.5241,2.5312,2.5369,2.541,2.5452,2.5564,2.563,2.569,2.5694,2.5702,2.5703,2.5703,2.6657,2.8281,3.0121,3.0798,3.0807,1.4088,1.4088,1.4088,1.4088,1.4257,1.4678,1.559,1.5241,1.515,1.5938,1.6219,1.656,1.7107,1.7185,1.7392,1.794,1.8008,1.8008,1.8008,1.6377,1.541,1.541,1.541,1.541,1.541,1.5526,1.5652,1.5652,1.5758,1.5698,1.5426,1.6687,1.7656,1.8302,1.8302,1.8302,1.8302,1.8302,1.8667,1.9198,1.9656,1.9798,1.985,2.0321,2.0233,1.997,2.0054,2.0547,2.1251,2.2476,2.3068,2.3378,2.3855,2.4302,2.467,2.5162,2.5221,2.506,2.4681,2.4592,2.4551,2.4187,2.4103,2.4113,2.417,2.4113,2.4016,2.4036,2.4036,2.4077,2.4173,2.4391,2.461,2.4753,2.4907,2.5057,2.5118,2.5239,2.5313,2.5385,2.5441,2.5499,2.5574,2.5579,2.5579,2.5579,2.5523,2.5492,2.5505,2.5554,2.5585,2.5601,2.5556,2.5583,2.5699,2.5621,2.5644,2.5757,2.5757,2.5803,2.5887,2.5736,2.5615,2.5523,2.5574,2.564,2.5694,2.5703,2.5703,2.5703,2.5703,2.6209,2.7237,2.9853,3.0827,3.0814,1.4088,1.4088,1.4088,1.4088,1.4755,1.559,1.6484,1.6086,1.6008,1.67,1.7392,1.7872,1.794,1.794,1.794,1.8008,1.8008,1.8008,1.8008,1.6377,1.541,1.541,1.541,1.541,1.541,1.6019,1.6316,1.6316,1.6874,1.657,1.5459,1.6684,1.7865,1.8934,1.8934,1.8934,1.8934,1.8934,1.9239,1.9747,1.9798,1.9798,1.9901,2.0921,2.1028,2.0766,2.1649,2.2331,2.2801,2.3363,2.3551,2.3638,2.3994,2.4328,2.467,2.5162,2.5986,2.6676,2.633,2.5473,2.4746,2.4958,2.4561,2.4113,2.417,2.4133,2.4113,2.417,2.419,2.4248,2.4444,2.4591,2.476,2.4953,2.505,2.5115,2.5171,2.5253,2.5322,2.5387,2.5393,2.5437,2.5499,2.5507,2.5507,2.5507,2.5499,2.5507,2.5503,2.5511,2.5547,2.56,2.5607,2.5926,2.6605,2.6487,2.6745,2.7414,2.7414,2.7497,2.7596,2.6843,2.6188,2.5582,2.5595,2.5637,2.5703,2.5703,2.5703,2.5703,2.5703,2.7676,3.0547,3.0801,3.0898,3.0879,1.4088,1.4088,1.425,1.4846,1.5673,1.6492,1.7383,1.7778,1.8243,1.9069,1.8531,1.8008,1.8008,1.8008,1.8008,1.8008,1.8008,1.8008,1.8008,1.7393,1.6543,1.5459,1.541,1.5594,1.6009,1.6648,1.7099,1.7423,1.77,1.7744,1.7644,1.8116,1.8667,1.9263,1.9263,1.9198,1.9146,1.9158,1.9316,1.9565,1.9914,2.0372,2.0809,2.1166,2.1423,2.1664,2.1841,2.2356,2.2949,2.3421,2.3782,2.4185,2.4948,2.5321,2.5631,2.6487,2.6962,2.7247,2.7476,2.6925,2.6141,2.5394,2.5063,2.4776,2.4318,2.4151,2.4113,2.419,2.4284,2.4357,2.4474,2.4716,2.4921,2.5032,2.5153,2.5231,2.5252,2.5283,2.5322,2.5388,2.5397,2.5415,2.5432,2.5443,2.5434,2.5434,2.5434,2.5443,2.544,2.5518,2.5566,2.5603,2.5592,2.5702,2.5955,2.6352,2.6683,2.6929,2.7427,2.7713,2.7788,2.7526,2.7312,2.7097,2.6053,2.5642,2.5698,2.5703,2.5703,2.5918,2.8086,2.9726,3.0898,3.0898,3.0878,3.0829,1.4088,1.4088,1.4334,1.5264,1.6327,1.7383,1.8273,1.9143,1.9932,2.0489,1.9541,1.8809,1.8809,1.833,1.8008,1.8008,1.8008,1.8008,1.8008,1.8008,1.7227,1.5488,1.541,1.571,1.6384,1.6998,1.7656,1.841,1.856,1.8881,1.9239,1.9239,1.9356,1.9512,1.942,1.9356,1.9344,1.9316,1.942,1.9565,2.0029,2.0673,2.1423,2.1375,2.1793,2.2402,2.217,2.2526,2.3157,2.3508,2.3909,2.4513,2.5706,2.6176,2.6571,2.7509,2.7635,2.7577,2.8128,2.8018,2.7471,2.6337,2.591,2.5566,2.4759,2.4537,2.4464,2.4302,2.4339,2.4479,2.4586,2.4847,2.5152,2.5504,2.5653,2.5802,2.6071,2.588,2.5717,2.5765,2.5534,2.5485,2.5745,2.5774,2.589,2.6169,2.5947,2.5713,2.5488,2.5547,2.5603,2.5605,2.5581,2.5556,2.5499,2.6225,2.6851,2.7316,2.7884,2.8322,2.8643,2.8434,2.8401,2.8424,2.7034,2.6443,2.6564,2.7108,2.7324,2.7578,2.994,3.0877,3.0876,3.0873,3.0843,3.0801,1.4088,1.4088,1.4341,1.5264,1.6812,1.8273,1.9143,2.001,2.0566,2.0566,2.0566,2.0566,2.0566,1.9053,1.8027,1.8027,1.8018,1.8008,1.8008,1.8008,1.7236,1.5508,1.542,1.571,1.6384,1.6998,1.7865,1.8987,1.9552,1.9798,1.9798,1.9798,1.9798,1.9798,1.9512,1.946,1.9617,1.9473,1.9565,1.985,2.0067,2.0673,2.1423,2.1616,2.2203,2.2889,2.2737,2.3098,2.3595,2.3595,2.3909,2.4539,2.5983,2.6798,2.7361,2.8032,2.7927,2.776,2.8335,2.8594,2.8537,2.7871,2.7134,2.641,2.5605,2.5421,2.5222,2.4561,2.4464,2.4594,2.4879,2.5019,2.5454,2.6453,2.66,2.6909,2.7775,2.7159,2.6621,2.6621,2.5851,2.5649,2.6524,2.6621,2.6958,2.7826,2.7152,2.6397,2.5644,2.5615,2.5604,2.559,2.5531,2.5504,2.5499,2.6232,2.745,2.9091,2.9091,2.9589,3.0482,2.9678,2.9358,2.937,2.8577,2.8266,2.8447,3.0193,3.0898,3.0898,3.0829,3.0799,3.0796,3.0798,3.0799,3.0794,1.4088,1.4088,1.4587,1.6079,1.7221,1.8514,2.001,2.0411,2.0566,2.0566,2.0566,2.0566,2.0566,2.0107,1.9805,1.9805,1.8701,1.8008,1.8008,1.8008,1.7783,1.7256,1.6064,1.571,1.6384,1.7379,1.8247,1.8987,1.9552,1.9798,1.9798,1.9798,1.9798,1.9798,1.9708,1.9708,1.9759,1.9708,1.9811,2.0029,2.0271,2.0871,2.1616,2.1841,2.2161,2.2593,2.2949,2.3084,2.32,2.3879,2.4385,2.5178,2.755,2.8578,2.8935,2.9179,2.8675,2.8225,2.9178,2.9155,2.8745,2.8007,2.7665,2.7301,2.6571,2.6368,2.6334,2.6191,2.6281,2.6449,2.6616,2.6803,2.7044,2.7385,2.7475,2.7601,2.7852,2.7678,2.7505,2.7505,2.7274,2.7236,2.7486,2.7507,2.7614,2.7885,2.7753,2.7337,2.6554,2.6503,2.6239,2.5621,2.554,2.5473,2.5434,2.6251,2.7228,2.8327,2.8908,2.9661,3.0557,3.0319,3.0253,3.0289,3.0063,2.9989,3.01,3.0679,3.0877,3.0827,3.0817,3.0765,3.0728,3.073,3.071,3.0657,1.4173,1.4341,1.509,1.6492,1.77,1.8984,2.0411,2.0566,2.0566,2.0566,2.0566,2.0566,2.0566,2.0566,2.0566,2.0566,1.9619,1.874,1.8057,1.8008,1.8008,1.8008,1.7002,1.6427,1.6394,1.7323,1.8084,1.8614,1.9186,1.95,1.95,1.9708,1.9798,1.9798,1.9798,1.9798,1.9798,1.9798,1.9914,2.008,2.0206,2.0805,2.1616,2.1996,2.236,2.2756,2.348,2.3822,2.3969,2.4143,2.5513,2.7526,2.9432,3.0226,3.0407,3.0299,2.9753,2.9366,3.0142,3.0198,2.9821,2.9144,2.8719,2.8255,2.7481,2.7318,2.7247,2.7028,2.7115,2.7264,2.7447,2.7599,2.7826,2.8241,2.8341,2.8506,2.8832,2.8582,2.8371,2.8371,2.8082,2.8025,2.8332,2.8403,2.8425,2.8457,2.8557,2.8252,2.7461,2.7388,2.6969,2.6098,2.6016,2.5801,2.5412,2.5942,2.6845,2.8055,2.8555,2.9458,3.0678,3.0685,3.0703,3.0748,3.0736,3.0753,3.0808,3.0845,3.0847,3.0798,3.0774,3.0711,3.0637,3.0604,3.055,3.0509,1.425,1.4755,1.5673,1.6574,1.8095,1.946,2.0323,2.0566,2.0566,2.0566,2.0566,2.0566,2.0566,2.0566,2.0566,2.0566,2.0566,1.9902,1.834,1.8096,1.8008,1.8008,1.8008,1.7536,1.6537,1.7027,1.7545,1.803,1.8625,1.8934,1.8987,1.9552,1.9798,1.9811,1.9911,1.9936,1.9899,1.9886,2.0002,2.0092,2.0142,2.069,2.152,2.224,2.2824,2.3363,2.4282,2.5108,2.5632,2.482,2.7227,3.0692,3.1269,3.1617,3.1685,3.1355,3.1018,3.0826,3.1245,3.1439,3.1413,3.0971,3.0132,2.9254,2.8435,2.8234,2.8071,2.7472,2.7389,2.7535,2.7793,2.7886,2.8222,2.9071,2.9217,2.9486,3.0294,2.9717,2.9217,2.9217,2.8563,2.8409,2.9151,2.928,2.9351,2.9421,2.9471,2.9158,2.8342,2.8242,2.7815,2.6939,2.684,2.6428,2.5637,2.568,2.6521,2.8097,2.8176,2.9109,3.0804,3.079,3.0798,3.081,3.0817,3.0808,3.0789,3.0804,3.0794,3.0759,3.069,3.0604,3.0519,3.039,3.0374,3.033,1.425,1.4755,1.5673,1.6574,1.7546,1.8594,1.946,2.0167,2.0566,2.0566,2.0566,2.0566,2.0566,2.0566,2.0566,2.0566,2.0566,2.041,2.0039,1.875,1.8008,1.8008,1.8008,1.7899,1.7658,1.7396,1.7334,1.749,1.803,1.8518,1.8987,1.9552,1.9798,1.9849,2.0727,2.0966,2.0636,2.0643,2.0739,2.0834,2.0742,2.114,2.1848,2.2956,2.3792,2.4445,2.5242,2.6489,2.789,2.8443,2.969,3.1072,3.123,3.1691,3.2231,3.2521,3.181,3.1157,3.2187,3.213,3.1961,3.2558,3.1652,3.0415,2.9551,2.9345,2.9345,2.9229,2.9309,2.9437,2.9622,2.9692,2.9824,3.0071,3.0121,3.0179,3.0359,3.0237,3.0121,3.0121,2.9967,2.994,3.0098,3.022,3.0315,3.0381,3.0405,3.005,2.9182,2.9072,2.8617,2.7691,2.7653,2.7547,2.7353,2.743,2.7679,2.8106,2.8159,2.9117,3.0794,3.0796,3.0801,3.0796,3.0862,3.0841,3.081,3.0806,3.0742,3.0623,3.0394,3.0202,3.006,3.0015,3.0,2.9984,1.4958,1.5569,1.6401,1.6684,1.7383,1.8273,1.9143,2.001,2.0566,2.0566,2.0566,2.0566,2.0566,2.0566,2.0722,2.1108,2.1558,2.17,2.17,2.0897,1.9975,1.905,1.8674,1.8539,1.8539,1.7953,1.7353,1.6885,1.77,1.841,1.8987,1.9552,1.9798,1.9823,2.0413,2.0878,2.1217,2.1373,2.1319,2.1219,2.1407,2.1968,2.2804,2.4129,2.4817,2.5161,2.6042,2.727,2.8497,2.9273,3.0258,3.119,3.119,3.1748,3.2521,3.2894,3.2624,3.242,3.329,3.3343,3.3243,3.3447,3.2902,3.2107,3.1185,3.0694,3.0541,3.1042,3.12,3.1276,3.1412,3.1494,3.1431,3.1071,3.1025,3.0871,3.0456,3.0398,3.0398,3.0398,3.0402,3.0582,3.1081,3.12,3.1451,3.1905,3.1906,3.1504,3.0646,3.0496,2.9854,2.8569,2.848,2.8285,2.789,2.7971,2.8236,2.8667,2.8778,2.9526,3.0791,3.0829,3.0855,3.0853,3.0874,3.0864,3.0794,3.0736,3.0595,3.0379,3.0083,2.9842,2.9664,2.9664,2.957,2.9435,1.5965,1.6422,1.6989,1.6862,1.7505,1.8413,1.9179,2.001,2.0566,2.0566,2.0566,2.0566,2.0566,2.0876,2.1328,2.2101,2.2852,2.3224,2.3224,2.3224,2.2364,2.0358,1.9605,1.9208,1.9075,1.8405,1.7641,1.6839,1.7701,1.841,1.8987,1.9552,1.9999,2.0363,2.0363,2.0891,2.1794,2.2096,2.1939,2.1674,2.2336,2.3043,2.3895,2.522,2.5682,2.5697,2.6801,2.776,2.8589,2.8951,3.0027,3.119,3.119,3.1839,3.2639,3.3019,3.3379,3.3762,3.4245,3.4495,3.4519,3.4055,3.388,3.3634,3.3029,3.2138,3.1659,3.2461,3.2626,3.2669,3.2785,3.2864,3.2679,3.2025,3.191,3.166,3.0929,3.0833,3.0794,3.0641,3.0502,3.08,3.1809,3.1966,3.2358,3.3222,3.3232,3.2882,3.2152,3.1844,3.1056,2.9674,2.9421,2.9006,2.8332,2.8386,2.8781,2.9502,2.9638,3.0072,3.0796,3.0852,3.0897,3.0898,3.0895,3.0833,3.0778,3.0595,3.0367,3.0083,2.9774,2.949,2.9262,2.9156,2.898,2.8743,1.7106,1.6462,1.6243,1.7099,1.8078,1.8836,1.9272,2.001,2.0566,2.0566,2.0566,2.0566,2.0566,2.1852,2.3001,2.3824,2.397,2.4043,2.4043,2.4043,2.3142,2.1122,2.0324,1.9671,1.9131,1.8405,1.8228,1.8702,1.8298,1.841,1.8987,1.9552,2.0828,2.2627,2.2627,2.2774,2.2912,2.2902,2.2924,2.2942,2.4171,2.4474,2.4403,2.5416,2.5991,2.643,2.7595,2.8432,2.9045,2.9075,3.0027,3.119,3.119,3.1746,3.259,3.3437,3.3805,3.4062,3.4517,3.4727,3.481,3.4887,3.435,3.3987,3.4735,3.3617,3.2463,3.2653,3.2737,3.28,3.2883,3.2885,3.2872,3.2756,3.2737,3.2699,3.2583,3.2564,3.2295,3.1621,3.0901,3.0858,3.1817,3.1952,3.236,3.3227,3.3243,3.3117,3.2956,3.2158,3.16,3.1371,3.0621,3.0179,3.0063,3.013,3.0211,3.0337,3.0405,3.0561,3.081,3.0816,3.0849,3.0895,3.0847,3.0786,3.069,3.0383,3.0068,2.9738,2.9528,2.9134,2.8644,2.8138,2.7915,2.7858,1.7326,1.6951,1.6958,1.7986,1.9004,1.9881,2.0512,2.1417,2.2002,2.2002,2.1162,2.0799,2.1185,2.2692,2.3959,2.4754,2.5253,2.5465,2.5465,2.5465,2.5123,2.4232,2.195,2.0388,1.9671,1.8539,1.8539,1.9671,1.9773,2.0346,2.1272,2.1556,2.2126,2.3078,2.3078,2.3078,2.3078,2.3078,2.3078,2.3185,2.3897,2.4455,2.4846,2.5921,2.6535,2.6985,2.7981,2.8668,2.9213,2.9984,3.0675,3.119,3.119,3.1763,3.2574,3.3426,3.385,3.4093,3.4539,3.4727,3.4829,3.5001,3.4753,3.4599,3.5086,3.4573,3.4039,3.4178,3.4223,3.4271,3.4332,3.4326,3.4153,3.3653,3.3582,3.3396,3.2903,3.2891,3.2782,3.2459,3.2141,3.2338,3.3303,3.3438,3.3809,3.4635,3.4633,3.4342,3.3801,3.333,3.2678,3.1737,3.1333,3.0879,3.0348,3.0371,3.0364,3.0333,3.0351,3.049,3.0689,3.0691,3.0706,3.0728,3.0771,3.0739,3.0604,3.0202,2.991,2.9683,2.9326,2.8725,2.8017,2.7164,2.6858,2.6858]}]]